[[{"header":{"parameterUnit":"m.s-1","parameterCategory":1,"la1":30.6,"la2":28.766,"lo1":-90.7593,"lo2":-88.6598,"dy":0.0162,"dx":0.0183,"nx":116,"ny":114,"refTime":"2024-03-13T18:00:00:Z","depth":0,"parameterNumber":2,"parameterNumberName":"U-component_of_WINDS"},"data":[0.0,0.0,0.0,0.0,0.0,0.0,0.0,0.0,0.0,0.0,0.0,0.0,0.0,0.0,0.0,0.0,0.0,0.0,0.0,0.0,0.0,0.0,0.0,0.0,0.0,0.0,0.0,0.0,0.0,0.0,0.0,0.0,0.0,0.0,0.0,0.0,0.0,0.0,0.0,0.0,0.0,0.0,0.0,0.0,0.0,0.0,0.0,0.0,0.0,0.0,0.0,0.0,0.0,0.0,0.0,0.0,0.0,0.0,0.0,0.0,0.0,0.0,0.0,0.0,0.0,0.0,0.0,0.0,0.0,0.0,0.0,0.0,0.0,0.0,0.0,0.0,0.0,0.0,0.0,0.0,0.0,0.0,0.0,0.0,0.0,0.0,0.0,0.0,0.0,0.0,0.0,0.0,0.0,0.0,0.0,0.0,0.0,0.0,0.0,0.0,0.0,0.0,0.0,0.0,0.0,0.0,0.0,0.0,0.0,0.0,0.0,0.0,0.0,0.0,0.0,0.0,0.0,0.0,0.0,0.0,0.0,0.0,0.0,0.0,0.0,0.0,0.0,0.0,0.0,0.0,0.0,0.0,0.0,0.0,0.0,0.0,0.0,0.0,0.0,0.0,0.0,0.0,0.0,0.0,0.0,0.0,0.0,0.0,0.0,0.0,0.0,0.0,0.0,0.0,0.0,0.0,0.0,0.0,0.0,0.0,0.0,0.0,0.0,0.0,0.0,0.0,0.0,0.0,0.0,0.0,0.0,0.0,0.0,0.0,0.0,0.0,0.0,0.0,0.0,0.0,0.0,0.0,0.0,0.0,0.0,0.0,0.0,0.0,0.0,0.0,0.0,0.0,0.0,0.0,0.0,0.0,0.0,0.0,0.0,0.0,0.0,0.0,0.0,0.0,0.0,0.0,0.0,0.0,0.0,0.0,0.0,0.0,0.0,0.0,0.0,0.0,0.0,0.0,0.0,0.0,0.0,0.0,0.0,0.0,0.0,0.0,0.0,0.0,0.0,0.0,0.0,0.0,0.0,0.0,0.0,0.0,0.0,0.0,0.0,0.0,0.0,0.0,0.0,0.0,0.0,0.0,0.0,0.0,0.0,0.0,0.0,0.0,0.0,0.0,0.0,0.0,0.0,0.0,0.0,0.0,0.0,0.0,0.0,0.0,0.0,0.0,0.0,0.0,0.0,0.0,0.0,0.0,0.0,0.0,0.0,0.0,0.0,0.0,0.0,0.0,0.0,0.0,0.0,0.0,0.0,0.0,0.0,0.0,0.0,0.0,0.0,0.0,0.0,0.0,0.0,0.0,0.0,0.0,0.0,0.0,0.0,0.0,0.0,0.0,0.0,0.0,0.0,0.0,0.0,0.0,0.0,0.0,0.0,0.0,0.0,0.0,0.0,0.0,0.0,0.0,0.0,0.0,0.0,0.0,0.0,0.0,0.0,0.0,0.0,0.0,0.0,0.0,0.0,0.0,0.0,0.0,0.0,0.0,0.0,0.0,0.0,0.0,0.0,0.0,0.0,0.0,0.0,0.0,0.0,0.0,0.0,0.0,0.0,0.0,0.0,0.0,0.0,0.0,0.0,0.0,0.0,0.0,0.0,0.0,0.0,0.0,0.0,0.0,0.0,0.0,0.0,0.0,0.0,0.0,0.0,0.0,0.0,0.0,0.0,0.0,0.0,0.0,0.0,0.0,0.0,0.0,0.0,0.0,0.0,0.0,0.0,0.0,0.0,0.0,0.0,0.0,0.0,0.0,0.0,0.0,0.0,0.0,0.0,0.0,0.0,0.0,0.0,0.0,0.0,0.0,0.0,0.0,0.0,0.0,0.0,0.0,0.0,0.0,0.0,0.0,0.0,0.0,0.0,0.0,0.0,0.0,0.0,0.0,0.0,0.0,0.0,0.0,0.0,0.0,0.0,0.0,0.0,0.0,0.0,0.0,0.0,0.0,0.0,0.0,0.0,0.0,0.0,0.0,0.0,0.0,0.0,0.0,0.0,0.0,0.0,0.0,0.0,0.0,0.0,0.0,0.0,0.0,0.0,0.0,0.0,0.0,0.0,0.0,0.0,0.0,0.0,0.0,0.0,0.0,0.0,0.0,0.0,0.0,0.0,0.0,0.0,0.0,0.0,0.0,0.0,0.0,0.0,0.0,0.0,0.0,0.0,0.0,0.0,0.0,0.0,0.0,0.0,0.0,0.0,0.0,0.0,0.0,0.0,0.0,0.0,0.0,0.0,0.0,0.0,0.0,0.0,0.0,0.0,0.0,0.0,0.0,0.0,0.0,0.0,0.0,0.0,0.0,0.0,0.0,0.0,0.0,0.0,0.0,0.0,0.0,0.0,0.0,0.0,0.0,0.0,0.0,0.0,0.0,0.0,0.0,0.0,0.0,0.0,0.0,0.0,0.0,0.0,0.0,0.0,0.0,0.0,0.0,0.0,0.0,0.0,0.0,0.0,0.0,0.0,0.0,0.0,0.0,0.0,0.0,0.0,0.0,0.0,0.0,0.0,0.0,0.0,0.0,0.0,0.0,0.0,0.0,0.0,0.0,0.0,0.0,0.0,0.0,0.0,0.0,0.0,0.0,0.0,0.0,0.0,0.0,0.0,0.0,0.0,0.0,0.0,0.0,0.0,0.0,0.0,0.0,0.0,0.0,0.0,0.0,0.0,0.0,0.0,0.0,0.0,0.0,0.0,0.0,0.0,0.0,0.0,0.0,0.0,0.0,0.0,0.0,0.0,0.0,0.0,0.0,0.0,0.0,0.0,0.0,0.0,0.0,0.0,0.0,0.0,0.0,0.0,0.0,0.0,0.0,0.0,0.0,0.0,0.0,0.0,0.0,0.0,0.0,0.0,0.0,0.0,0.0,0.0,0.0,0.0,0.0,0.0,0.0,0.0,0.0,0.0,0.0,0.0,0.0,0.0,0.0,0.0,0.0,0.0,0.0,0.0,0.0,0.0,0.0,0.0,0.0,0.0,0.0,0.0,0.0,0.0,0.0,0.0,0.0,0.0,0.0,0.0,0.0,0.0,0.0,0.0,0.0,0.0,0.0,0.0,0.0,0.0,0.0,0.0,0.0,0.0,0.0,0.0,0.0,0.0,0.0,0.0,0.0,0.0,0.0,0.0,0.0,0.0,0.0,0.0,0.0,0.0,0.0,0.0,0.0,0.0,0.0,0.0,0.0,0.0,0.0,0.0,0.0,0.0,0.0,0.0,0.0,0.0,0.0,0.0,0.0,0.0,0.0,0.0,0.0,0.0,0.0,0.0,0.0,0.0,0.0,0.0,0.0,0.0,0.0,0.0,0.0,0.0,0.0,0.0,0.0,0.0,0.0,0.0,0.0,0.0,0.0,0.0,0.0,0.0,0.0,0.0,0.0,0.0,0.0,0.0,0.0,0.0,0.0,0.0,0.0,0.0,0.0,0.0,0.0,0.0,0.0,0.0,0.0,0.0,0.0,0.0,0.0,0.0,0.0,0.0,0.0,0.0,0.0,0.0,0.0,0.0,0.0,0.0,0.0,0.0,0.0,0.0,0.0,0.0,0.0,0.0,0.0,0.0,0.0,0.0,0.0,0.0,0.0,0.0,0.0,0.0,0.0,0.0,0.0,0.0,0.0,0.0,0.0,0.0,0.0,0.0,0.0,0.0,0.0,0.0,0.0,0.0,0.0,0.0,0.0,0.0,0.0,0.0,0.0,0.0,0.0,0.0,0.0,0.0,0.0,0.0,0.0,0.0,0.0,0.0,0.0,0.0,0.0,0.0,0.0,0.0,0.0,0.0,0.0,0.0,0.0,0.0,0.0,0.0,0.0,0.0,0.0,0.0,0.0,0.0,0.0,0.0,0.0,0.0,0.0,0.0,0.0,0.0,0.0,0.0,0.0,0.0,0.0,0.0,0.0,0.0,0.0,0.0,0.0,0.0,0.0,0.0,0.0,0.0,0.0,0.0,0.0,0.0,0.0,0.0,0.0,0.0,0.0,0.0,0.0,0.0,0.0,0.0,0.0,0.0,0.0,0.0,0.0,0.0,0.0,0.0,0.0,0.0,0.0,0.0,0.0,0.0,0.0,0.0,0.0,0.0,0.0,0.0,0.0,0.0,0.0,0.0,0.0,0.0,0.0,0.0,0.0,0.0,0.0,0.0,0.0,0.0,0.0,0.0,0.0,0.0,0.0,0.0,0.0,0.0,0.0,0.0,0.0,0.0,0.0,0.0,0.0,0.0,0.0,0.0,0.0,0.0,0.0,0.0,0.0,0.0,0.0,0.0,0.0,0.0,0.0,0.0,0.0,0.0,0.0,0.0,0.0,0.0,0.0,0.0,0.0,0.0,0.0,0.0,0.0,0.0,0.0,0.0,0.0,0.0,0.0,0.0,0.0,0.0,0.0,0.0,0.0,0.0,0.0,0.0,0.0,0.0,0.0,0.0,0.0,0.0,0.0,0.0,0.0,0.0,0.0,0.0,0.0,0.0,0.0,0.0,0.0,0.0,0.0,0.0,0.0,0.0,0.0,0.0,0.0,0.0,0.0,0.0,0.0,0.0,0.0,0.0,0.0,0.0,0.0,0.0,0.0,0.0,0.0,0.0,0.0,0.0,0.0,0.0,0.0,0.0,0.0,0.0,0.0,0.0,0.0,0.0,0.0,0.0,0.0,0.0,0.0,0.0,0.0,0.0,0.0,0.0,0.0,0.0,0.0,0.0,0.0,0.0,0.0,0.0,0.0,0.0,0.0,0.0,0.0,0.0,0.0,0.0,0.0,0.0,0.0,0.0,0.0,0.0,0.0,0.0,0.0,0.0,0.0,0.0,0.0,0.0,0.0,0.0,0.0,0.0,0.0,0.0,0.0,0.0,0.0,0.0,0.0,0.0,0.0,0.0,0.0,0.0,0.0,0.0,0.0,0.0,0.0,0.0,0.0,0.0,0.0,0.0,0.0,0.0,0.0,0.0,0.0,0.0,0.0,0.0,0.0,0.0,0.0,0.0,0.0,0.0,0.0,0.0,0.0,0.0,0.0,0.0,0.0,0.0,0.0,0.0,0.0,0.0,0.0,0.0,0.0,0.0,0.0,0.0,0.0,0.0,0.0,0.0,0.0,0.0,0.0,0.0,0.0,0.0,0.0,0.0,0.0,0.0,0.0,0.0,0.0,0.0,0.0,0.0,0.0,0.0,0.0,0.0,0.0,0.0,0.0,0.0,0.0,0.0,0.0,0.0,0.0,0.0,0.0,0.0,0.0,0.0,0.0,0.0,0.0,0.0,0.0,0.0,0.0,0.0,0.0,0.0,0.0,0.0,0.0,0.0,0.0,0.0,0.0,0.0,0.0,0.0,0.0,0.0,0.0,0.0,0.0,0.0,0.0,0.0,0.0,0.0,0.0,0.0,0.0,0.0,0.0,0.0,0.0,0.0,0.0,0.0,0.0,0.0,0.0,0.0,0.0,0.0,0.0,0.0,0.0,0.0,0.0,0.0,0.0,0.0,0.0,0.0,0.0,0.0,0.0,0.0,0.0,0.0,0.0,0.0,0.0,0.0,0.0,0.0,0.0,0.0,0.0,0.0,0.0,0.0,0.0,0.0,0.0,0.0,0.0,0.0,0.0,0.0,0.0,0.0,0.0,0.0,0.0,0.0,0.0,0.0,0.0,0.0,0.0,0.0,0.0,0.0,0.0,0.0,0.0,0.0,0.0,0.0,0.0,0.0,0.0,0.0,0.0,0.0,0.0,0.0,0.0,0.0,0.0,0.0,0.0,0.0,0.0,0.0,0.0,0.0,0.0,0.0,0.0,0.0,0.0,0.0,0.0,0.0,0.0,0.0,0.0,0.0,0.0,0.0,0.0,0.0,0.0,0.0,0.0,0.0,0.0,0.0,0.0,0.0,0.0,0.0,0.0,0.0,0.0,0.0,0.0,0.0,0.0,0.0,0.0,0.0,0.0,0.0,0.0,0.0,0.0,0.0,0.0,0.0,0.0,0.0,0.0,0.0,0.0,0.0,0.0,0.0,0.0,0.0,0.0,0.0,0.0,0.0,0.0,0.0,0.0,0.0,0.0,0.0,0.0,0.0,0.0,0.0,0.0,0.0,0.0,0.0,0.0,-3.373,-3.4594,0.0,0.0,0.0,0.0,0.0,0.0,0.0,0.0,0.0,0.0,0.0,0.0,0.0,0.0,0.0,0.0,0.0,0.0,0.0,0.0,0.0,0.0,0.0,0.0,0.0,0.0,-4.7375,-4.7293,-4.6962,-4.5586,-4.521,-4.6225,-4.3977,-4.2612,-4.2424,-4.1418,-4.0151,-3.8629,-3.7994,-3.754,-3.7344,-3.8147,-3.9124,-4.0254,0.0,0.0,0.0,0.0,0.0,0.0,0.0,0.0,0.0,0.0,0.0,0.0,0.0,0.0,0.0,0.0,0.0,0.0,0.0,0.0,0.0,0.0,0.0,0.0,0.0,0.0,0.0,0.0,0.0,0.0,0.0,0.0,0.0,0.0,0.0,0.0,0.0,0.0,0.0,0.0,0.0,0.0,0.0,0.0,0.0,0.0,0.0,0.0,0.0,0.0,0.0,0.0,0.0,0.0,0.0,0.0,0.0,0.0,0.0,0.0,0.0,0.0,0.0,0.0,0.0,0.0,0.0,0.0,0.0,0.0,-3.2371,-3.3314,0.0,0.0,0.0,0.0,0.0,0.0,0.0,0.0,0.0,0.0,0.0,0.0,0.0,0.0,0.0,0.0,0.0,0.0,0.0,0.0,0.0,0.0,0.0,-4.558,-4.6556,-4.7461,-4.7052,-4.6575,-4.6165,-4.5036,-4.4851,-4.593,-4.3971,-4.2745,-4.2484,-4.1121,-3.9629,-3.8034,-3.7263,-3.6737,-3.6508,-3.725,-3.8392,-3.9807,-4.0111,0.0,0.0,0.0,0.0,0.0,0.0,0.0,0.0,0.0,0.0,0.0,0.0,0.0,0.0,0.0,0.0,0.0,0.0,0.0,0.0,0.0,0.0,0.0,0.0,0.0,0.0,0.0,0.0,0.0,0.0,0.0,0.0,0.0,0.0,0.0,0.0,0.0,0.0,0.0,0.0,0.0,0.0,0.0,0.0,0.0,0.0,0.0,0.0,0.0,0.0,0.0,0.0,0.0,0.0,0.0,0.0,0.0,0.0,0.0,0.0,0.0,0.0,0.0,-3.1487,-3.1688,-3.2399,-3.1963,-3.1773,-3.1784,-3.1313,-3.2007,-3.3458,-3.2509,0.0,0.0,0.0,0.0,0.0,0.0,0.0,0.0,0.0,0.0,0.0,0.0,0.0,0.0,0.0,0.0,0.0,0.0,0.0,0.0,0.0,-4.5436,-4.7013,-4.7234,-4.7558,-4.7435,-4.6741,-4.573,-4.5242,-4.5407,-4.3912,-4.2679,-4.1912,-4.0411,-3.8922,-3.7399,-3.7007,-3.7131,-3.7706,-3.8961,-3.9644,-3.9881,-3.9409,-4.0084,-4.1506,0.0,0.0,0.0,0.0,0.0,0.0,0.0,0.0,0.0,0.0,0.0,0.0,0.0,0.0,0.0,0.0,0.0,0.0,0.0,0.0,0.0,0.0,0.0,0.0,0.0,0.0,0.0,0.0,0.0,0.0,0.0,0.0,0.0,0.0,0.0,0.0,0.0,0.0,0.0,0.0,0.0,-3.5686,-3.5968,0.0,0.0,0.0,0.0,0.0,0.0,0.0,0.0,0.0,0.0,0.0,0.0,0.0,-3.187,-3.1623,-3.2097,-3.2207,-3.1999,-3.2054,-3.192,-3.1662,-3.1544,-3.1505,-3.1563,-3.1445,0.0,-3.1895,-3.1389,0.0,0.0,0.0,0.0,0.0,0.0,0.0,0.0,0.0,0.0,0.0,0.0,0.0,0.0,0.0,0.0,0.0,0.0,0.0,0.0,0.0,-4.5801,-4.6975,-4.7208,-4.8796,-4.8891,-4.6675,-4.6419,-4.6125,-4.5503,-4.3371,-4.205,-4.1721,-3.9894,-3.8255,-3.6849,-3.7514,-3.7761,-3.7643,-3.9068,-3.9549,-3.9322,-4.0065,-4.0431,-4.0371,-3.9673,0.0,0.0,0.0,0.0,0.0,0.0,0.0,0.0,0.0,0.0,0.0,0.0,0.0,0.0,0.0,0.0,0.0,0.0,0.0,0.0,0.0,0.0,0.0,0.0,0.0,0.0,0.0,0.0,0.0,0.0,0.0,0.0,0.0,0.0,0.0,0.0,0.0,0.0,0.0,-3.5237,-3.5674,-3.4086,-3.4743,-3.4715,0.0,0.0,0.0,0.0,0.0,0.0,0.0,0.0,0.0,-3.1871,-3.223,-3.2399,-3.2349,-3.2595,-3.2851,-3.321,-3.2979,-3.2891,-3.2949,-3.2695,-3.2461,-3.2246,-3.2246,-3.1998,-3.1476,-3.1103,-3.0944,-3.082,0.0,0.0,0.0,0.0,-2.8185,-2.815,0.0,0.0,0.0,0.0,0.0,0.0,0.0,0.0,0.0,0.0,0.0,0.0,-4.496,-4.6024,-4.6843,-4.7682,-4.9219,-4.9131,-4.6797,-4.6456,-4.6049,-4.5361,-4.3005,-4.1662,-4.1535,-3.9784,-3.8387,-3.7343,-3.844,-3.8868,-3.8631,-3.9498,-3.9717,-3.9438,-4.0484,-4.0635,-3.9991,-3.9365,-3.8486,-3.7466,0.0,0.0,0.0,0.0,0.0,0.0,0.0,0.0,0.0,0.0,0.0,0.0,0.0,0.0,0.0,0.0,0.0,0.0,0.0,0.0,0.0,0.0,0.0,0.0,0.0,0.0,0.0,0.0,0.0,0.0,0.0,0.0,0.0,0.0,0.0,0.0,0.0,-3.547,-3.5924,-3.3119,-3.4557,-3.4601,0.0,0.0,0.0,0.0,0.0,0.0,-3.2251,-3.2051,-3.2183,-3.2814,-3.3015,-3.3212,-3.3281,-3.3398,-3.3769,-3.4414,-3.3848,-3.3809,-3.4219,-3.3672,-3.3184,-3.2793,-3.2793,-3.2305,-3.1485,-3.1054,-3.0689,-3.0282,-2.9203,-2.8523,-2.8091,-2.8376,-2.8416,-2.8566,0.0,0.0,0.0,0.0,0.0,0.0,0.0,0.0,0.0,0.0,0.0,-4.2444,-4.5166,-4.5885,-4.6889,-4.8847,-4.7808,-4.7162,-4.7498,-4.5366,-4.4216,-4.4521,-4.3091,-4.1986,-4.1423,-4.0477,-3.9854,-3.9543,-3.9728,-4.053,-4.1848,-4.1022,-4.0757,-4.0956,-3.9974,-4.0439,-4.1946,-4.028,-3.9607,-3.9456,-3.7095,0.0,0.0,0.0,0.0,0.0,0.0,0.0,0.0,0.0,0.0,0.0,0.0,0.0,0.0,0.0,0.0,0.0,0.0,0.0,0.0,0.0,0.0,0.0,0.0,0.0,0.0,0.0,0.0,0.0,0.0,0.0,0.0,0.0,0.0,0.0,0.0,0.0,0.0,-3.4969,-3.6474,0.0,0.0,0.0,0.0,-3.2126,-3.1643,-3.1706,-3.2542,-3.2336,-3.2544,-3.3364,-3.4166,-3.4616,-3.4609,-3.5039,-3.5293,-3.5312,-3.4453,-3.4258,-3.4648,-3.3809,-3.3184,-3.2793,-3.2793,-3.2305,-3.1484,-3.1074,-3.0787,-3.0533,-2.8945,-2.8508,-2.8696,-2.7994,-2.8009,-2.831,0.0,0.0,0.0,0.0,0.0,0.0,0.0,0.0,-4.0826,-4.1028,-4.2844,-4.4801,-4.6716,-4.8223,-4.9164,-4.9418,-4.985,-4.9415,-4.7886,-4.6517,-4.5709,-4.5521,-4.3142,-4.1718,-4.1596,-4.1284,-4.1176,-4.1253,-4.0714,-4.0533,-4.0668,-4.0947,-4.0708,-4.0073,-4.0616,-4.0652,-4.0379,-3.9625,-3.9323,-3.9144,-3.7652,-3.6449,0.0,0.0,0.0,0.0,0.0,0.0,0.0,0.0,0.0,0.0,0.0,0.0,0.0,0.0,0.0,0.0,0.0,0.0,0.0,0.0,0.0,0.0,0.0,0.0,0.0,0.0,0.0,0.0,0.0,0.0,0.0,0.0,0.0,0.0,0.0,0.0,0.0,-3.5847,-3.7598,0.0,-3.4175,-3.3727,-3.3424,-3.2963,-3.2985,-3.3417,-3.4315,-3.4472,-3.4907,-3.5785,-3.5838,-3.5862,-3.5862,-3.5838,-3.5664,-3.5391,-3.4766,-3.4414,-3.4258,-3.3398,-3.293,-3.2773,-3.2519,-3.2051,-3.1504,-3.1367,-3.0936,-3.0336,-2.9741,-2.9423,-2.9268,-2.8996,-2.8984,-2.9121,0.0,0.0,0.0,0.0,0.0,0.0,0.0,0.0,-4.1407,-4.1588,-4.4108,-4.6475,-4.8001,-4.9993,-5.1192,-5.1168,-5.1168,-5.0476,-4.9017,-4.6973,-4.5765,-4.5546,-4.3437,-4.2203,-4.2249,-4.3055,-4.3512,-4.3533,-4.2422,-4.1681,-4.1342,-4.1256,-4.0643,-3.9618,-4.054,-4.0358,-3.9358,-3.8871,-3.8582,-3.8516,-3.7782,-3.7494,-3.7146,0.0,0.0,0.0,0.0,0.0,0.0,0.0,0.0,0.0,0.0,0.0,0.0,0.0,0.0,0.0,0.0,0.0,0.0,0.0,0.0,0.0,0.0,0.0,0.0,0.0,0.0,0.0,0.0,0.0,0.0,0.0,0.0,0.0,0.0,-3.7714,-3.8642,-3.6162,-3.8243,-3.8488,-3.488,-3.506,-3.5067,-3.4428,-3.4911,-3.559,-3.633,-3.6449,-3.6844,-3.7569,-3.7017,-3.6801,-3.6961,-3.6276,-3.5846,-3.5571,-3.4831,-3.4258,-3.3828,-3.3125,-3.2637,-3.2344,-3.207,-3.1699,-3.1309,-3.1309,-3.0957,-3.043,-3.043,-3.0156,-2.9785,-2.9785,-2.9744,-2.9587,0.0,0.0,0.0,0.0,0.0,0.0,0.0,-4.1682,-4.2177,-4.2078,-4.4759,-4.7337,-4.9028,-5.103,-5.2857,-5.4219,-5.1505,-5.0047,-5.0898,-4.6578,-4.4143,-4.4539,-4.395,-4.3624,-4.3514,-4.5802,-4.6794,-4.6361,-4.4867,-4.4098,-4.4045,-4.2091,-4.0707,-3.9798,-3.9767,-3.9533,-3.9216,-3.8033,-3.7598,-3.7761,-3.7421,-3.8349,-3.9677,0.0,0.0,0.0,0.0,0.0,0.0,0.0,0.0,0.0,0.0,0.0,0.0,0.0,0.0,0.0,0.0,0.0,0.0,0.0,0.0,0.0,0.0,0.0,0.0,0.0,0.0,0.0,0.0,0.0,0.0,0.0,0.0,0.0,-3.6108,-3.8153,-3.8735,-3.6107,-3.859,-3.9109,-3.5577,-3.6476,-3.7112,-3.6602,-3.7368,-3.8033,-3.8476,-3.8073,-3.8033,-3.8546,-3.763,-3.7388,-3.7811,-3.6542,-3.5884,-3.5845,-3.4687,-3.3848,-3.3379,-3.2969,-3.2305,-3.1523,-3.1504,-3.1269,-3.0898,-3.0898,-3.0879,-3.0879,-3.0879,-3.0605,-3.0195,-3.0176,-2.9902,-2.945,0.0,0.0,0.0,0.0,0.0,0.0,0.0,-4.2144,-4.3128,-4.3407,-4.7523,-5.0837,-5.1999,-5.4461,-5.5954,-5.5809,-5.3531,-5.2091,-5.2113,-4.8009,-4.5393,-4.5016,-4.5221,-4.6093,-4.7763,-4.7391,-4.7425,-4.7981,-4.6181,-4.4451,-4.2833,-4.2268,-4.1372,-4.022,-3.9888,-3.9708,-3.9474,-3.806,-3.7487,-3.7588,-3.7455,-3.7861,-3.8537,0.0,0.0,0.0,0.0,0.0,0.0,0.0,0.0,0.0,0.0,0.0,0.0,0.0,0.0,0.0,0.0,0.0,0.0,0.0,0.0,0.0,0.0,0.0,0.0,0.0,0.0,0.0,0.0,0.0,0.0,0.0,-3.7221,-3.8374,-3.7125,-4.003,-4.1788,-4.0468,-4.1529,-4.1708,-4.0072,-3.9589,-3.8991,-3.8041,-3.8588,-3.8979,-3.8893,-3.8999,-3.9068,-3.9191,-3.8412,-3.8031,-3.8153,-3.6957,-3.6157,-3.5801,-3.4975,-3.4113,-3.3322,-3.2662,-3.2031,-3.1504,-3.1191,-3.0996,-3.0898,-3.0898,-3.0703,-3.043,-3.0762,-3.0605,-3.0156,-2.9863,-2.9082,-2.8158,0.0,0.0,0.0,0.0,0.0,0.0,0.0,-4.2672,-4.3809,-4.4281,-4.8695,-5.2057,-5.2788,-5.5477,-5.688,-5.6042,-5.4225,-5.2687,-5.1694,-4.8608,-4.6779,-4.6751,-4.7688,-4.8961,-5.0512,-5.0231,-5.0138,-5.0279,-4.8155,-4.629,-4.4676,-4.389,-4.2695,-4.122,-4.1464,-4.0933,-3.9847,-3.9089,-3.8644,-3.843,-3.8455,-3.8758,-3.9108,-3.8609,-3.8805,-3.9305,-3.8868,-3.9007,-3.9294,-3.8262,0.0,0.0,0.0,0.0,0.0,0.0,0.0,0.0,0.0,0.0,0.0,0.0,0.0,0.0,0.0,0.0,0.0,0.0,0.0,0.0,0.0,0.0,0.0,0.0,-3.9061,-4.036,-3.989,-4.2066,-4.3402,-4.2839,-4.295,-4.2831,-4.2123,-4.1116,-4.0162,-3.931,-3.9783,-4.0026,-3.9815,-3.9791,-3.9909,-4.0096,-3.9082,-3.8528,-3.8575,-3.7153,-3.6188,-3.5816,-3.4675,-3.3733,-3.301,-3.2271,-3.166,-3.125,-3.0996,-3.0898,-3.0879,-3.0684,-3.0449,0.0,0.0,0.0,0.0,0.0,-2.8457,-2.765,0.0,0.0,0.0,0.0,0.0,0.0,0.0,-4.3218,-4.4435,-4.5094,-4.9047,-5.2004,-5.2538,-5.5174,-5.6544,-5.5598,-5.4193,-5.2577,-5.0579,-4.8973,-4.8434,-4.9226,-5.0709,-5.1737,-5.2226,-5.3387,-5.3558,-5.2661,-5.0482,-4.888,-4.7812,-4.6167,-4.4429,-4.2664,-4.3439,-4.2639,-4.0619,-4.0592,-4.0256,-3.9826,-3.9887,-4.0264,-4.0644,-3.975,-4.0292,-4.1393,-4.0035,-3.9719,-3.9905,-3.9267,0.0,0.0,0.0,0.0,0.0,0.0,0.0,0.0,0.0,0.0,0.0,0.0,0.0,0.0,0.0,0.0,0.0,0.0,0.0,0.0,0.0,0.0,0.0,0.0,-4.1143,-4.2743,-4.359,-4.4205,-4.4427,-4.4086,-4.3736,-4.3407,-4.3034,-4.1882,-4.1001,-4.0534,-4.0726,-4.0882,-4.0811,-4.0439,0.0,0.0,0.0,-3.8849,-3.8914,-3.7228,-3.62,-3.5816,-3.4213,-3.3231,-3.2754,-3.1958,-3.1348,-3.0957,-3.0957,-3.0918,-3.0781,-3.0371,-3.0137,-3.0059,-3.0059,-2.9551,-2.8789,-2.8379,-2.793,-2.7461,0.0,0.0,0.0,0.0,0.0,0.0,0.0,-4.3724,-4.5399,-4.7207,-5.0731,-5.3394,-5.4226,-5.6304,-5.7269,-5.6379,-5.5227,-5.3681,-5.1583,-5.1248,-5.1207,-5.138,-5.2289,-5.3007,-5.3608,-5.3893,-5.3681,-5.2943,-5.1853,-5.0248,-4.8089,-4.717,-4.5991,-4.4588,-4.3202,-4.2866,-4.3117,-4.1139,-4.0326,-4.0408,-4.0279,-4.0539,-4.1089,-4.1659,-4.2214,-4.2718,-4.2812,-4.2936,-4.2796,-4.1843,-4.1588,-4.1414,-3.9576,-3.8641,0.0,0.0,0.0,0.0,0.0,0.0,0.0,0.0,0.0,0.0,0.0,0.0,0.0,0.0,0.0,0.0,0.0,0.0,0.0,-4.0358,-4.2593,-4.4502,-4.559,-4.6525,-4.6932,-4.6172,-4.6423,-4.6489,-4.6461,-4.4116,-4.2656,-4.257,-4.153,-4.074,-4.0453,-4.03,-4.0157,-3.993,-3.9281,-3.8812,-3.8546,-3.7333,-3.6571,-3.6204,0.0,0.0,-3.3395,-3.2593,-3.1858,-3.1208,-3.1208,-3.0895,-3.0332,-3.0234,-2.9785,-2.916,-2.916,-2.8867,-2.8359,-2.793,-2.7305,-2.6621,0.0,0.0,0.0,0.0,0.0,0.0,0.0,-4.3802,-4.524,-4.7195,-5.0016,-5.2127,-5.2889,-5.4591,-5.5059,-5.347,-5.2502,-5.2217,-5.2779,-5.302,-5.3681,-5.4842,-5.5629,-5.6352,-5.7011,-5.6683,-5.609,-5.5296,-5.4226,-5.2635,-5.058,-4.9519,-4.8192,-4.665,-4.5562,-4.4802,-4.417,-4.3014,-4.2469,-4.2206,-4.194,-4.1948,-4.2103,-4.2455,-4.2815,-4.3324,-4.3961,-4.4041,-4.3689,-4.2836,-4.2456,-4.1966,-4.0287,-3.9409,-3.8762,0.0,0.0,0.0,0.0,0.0,0.0,0.0,0.0,0.0,0.0,0.0,0.0,0.0,0.0,-3.5885,-3.8115,0.0,-4.0408,-4.2493,-4.4084,-4.5447,-4.6552,-4.7405,-4.7858,-4.7745,-4.7571,-4.7425,-4.7425,-4.4778,-4.3097,-4.3097,-4.1714,-4.0811,-4.0596,-4.0382,-4.0238,-4.0022,-3.9151,-3.8546,-3.8147,-3.6944,-3.6233,-3.599,-3.4465,-3.372,-3.3575,-3.2529,-3.1814,-3.1325,-3.1325,-3.0894,-3.0156,-2.9726,-2.918,-2.8613,-2.8613,-2.834,-2.793,-2.75,-2.6934,-2.6387,0.0,0.0,0.0,0.0,0.0,0.0,0.0,-4.3962,-4.5022,-4.6837,-4.8922,-5.0441,-5.1042,-5.22,-5.2138,-5.0242,-4.9957,-5.1262,-5.4564,-5.5177,-5.6463,-5.8819,-5.9655,-6.0203,-6.0513,-5.9936,-5.9059,-5.8088,-5.6783,-5.533,-5.3664,-5.2253,-5.0731,-4.9121,-4.8471,-4.7207,-4.557,-4.5387,-4.4943,-4.4313,-4.4206,-4.3823,-4.3371,-4.3193,-4.3228,-4.3454,-4.4369,-4.4175,-4.3391,-4.3219,-4.2721,-4.1991,-4.0455,-4.0109,-3.984,-3.7634,-3.7494,0.0,0.0,0.0,0.0,0.0,0.0,0.0,0.0,-3.3277,-3.3397,-3.5941,-3.645,-3.7266,-4.0227,-4.1259,-4.2363,-4.4435,-4.5271,-4.6024,-4.7129,-4.7556,-4.8008,-4.8686,-4.805,-4.7506,-4.7506,-4.498,-4.336,-4.336,-4.1862,-4.0882,-4.0811,-4.0453,-4.0197,-4.0044,-3.904,-3.8256,-3.7768,-3.6509,-3.58,-3.5534,-3.3921,-3.3295,-3.3551,-3.2441,-3.1787,-3.1498,-3.1204,-3.0697,-3.0,-2.9141,-2.8594,-2.8281,-2.8105,-2.7832,-2.75,-2.7148,-2.6699,-2.6269,0.0,0.0,0.0,0.0,0.0,0.0,0.0,0.0,-4.579,-4.7687,-4.9098,-5.0174,-5.0772,-5.0575,-5.0315,-5.012,-5.161,-5.4102,-5.7652,-5.8875,-6.0491,-6.2835,-6.3661,-6.3454,-6.2149,-6.2046,-6.1286,-5.9838,-5.9012,-5.7772,-5.6174,-5.4675,-5.3493,-5.2466,-5.0033,-4.9119,-4.9267,-4.7572,-4.6393,-4.5714,-4.6451,-4.5953,-4.4832,-4.4996,-4.4273,-4.3231,-4.4759,-4.3901,-4.2216,-4.3254,-4.3124,-4.2312,-4.1406,-4.1436,-4.1437,-3.9246,-3.801,-3.7042,-3.5821,-3.5003,-3.4777,-3.5674,-3.5198,-3.5115,0.0,-3.748,-3.7429,-3.9201,-4.0319,-4.1315,-4.2449,-4.3507,-4.4435,-4.5271,-4.5849,-4.6602,-4.7682,-4.7481,-4.7606,-4.8661,-4.8234,-4.7833,-4.7833,-4.5699,-4.4231,-4.4231,-4.214,-4.074,-4.0382,-4.031,-3.9983,-3.9222,-3.9018,-3.8389,-3.7172,-3.6582,-3.5817,-3.5002,-3.4004,-3.3489,-3.3372,-3.2839,-3.244,-3.2092,-3.0737,-2.9967,-2.957,-2.8711,-2.834,-2.8223,-2.7461,-2.7129,-2.709,-2.7031,-2.6504,-2.5752,0.0,0.0,0.0,0.0,0.0,0.0,0.0,0.0,0.0,-4.638,-4.7392,-4.7954,-4.7848,-4.7606,-4.7793,-4.8643,-5.047,-5.3492,-5.8055,-5.9075,-6.112,-6.4712,-6.4709,-6.4585,-6.4392,-6.3904,-6.3136,-6.2089,-6.1321,-6.0392,-5.9318,-5.7804,-5.659,-5.5692,-5.3233,-5.1612,-5.0589,-4.9297,-4.804,-4.6943,-4.728,-4.6699,-4.5621,-4.5635,-4.4262,-4.2571,-4.3648,-4.3198,0.0,0.0,-4.2282,-4.2289,-4.2071,-4.161,-4.0882,-3.9659,-3.8097,-3.6455,-3.5279,-3.5234,-3.5433,-3.5219,-3.5671,-3.6528,-3.7823,-3.7488,-3.7596,-4.0261,-4.1254,-4.2103,-4.3644,-4.4844,-4.5698,-4.5924,-4.6426,-4.6954,-4.738,-4.728,-4.7305,-4.7757,-4.733,-4.7355,-4.8309,-4.5746,-4.4224,-4.482,-4.1913,-4.0253,-4.0647,-4.0207,-3.9769,-3.9424,-3.8908,-3.8122,-3.7079,-3.639,-3.5628,-3.4901,-3.4003,-3.3528,-3.3368,-3.2934,-3.2411,-3.1819,-3.0574,-2.9786,-2.9415,-2.8388,-2.8066,-2.8203,-2.7344,-2.7012,-2.6953,-2.6415,-2.5986,-2.5693,0.0,0.0,0.0,0.0,0.0,0.0,0.0,0.0,0.0,0.0,-4.5945,-4.6055,-4.5444,-4.5869,-4.644,-4.7157,-4.9235,-5.2586,-5.7517,-5.8969,-6.1528,-6.5756,-6.6174,-6.639,-6.6595,-6.642,-6.5608,-6.4228,-6.3597,-6.2771,-6.1846,-6.0563,-5.9598,-5.8906,-5.6614,-5.46,-5.2849,-5.1827,-5.0206,-4.8254,-4.8501,-4.7603,-4.6132,-4.6062,-4.4696,-4.2805,-4.3012,-4.2085,0.0,-4.0668,-4.0881,-4.1183,-4.1106,-4.0695,-4.0097,-3.9391,-3.768,-3.5801,-3.4898,-3.5268,-3.577,-3.5405,-3.6547,-3.7823,-3.8155,-3.7963,-3.8359,-4.0832,-4.1712,-4.254,-4.4086,-4.5321,-4.6075,-4.6075,-4.6552,-4.6954,-4.7043,-4.6878,-4.6728,-4.6878,-4.6276,-4.6426,-4.7958,-4.5614,-4.4206,-4.4705,-4.1953,-4.0473,-4.0912,-4.0288,-3.9798,-3.9429,-3.8804,-3.7955,-3.68,-3.5966,-3.5199,-3.4554,-3.3758,-3.3284,-3.3066,-3.269,-3.2184,-3.1534,-3.0409,-2.9734,-2.9342,-2.8304,-2.8027,-2.8223,-2.748,-2.7187,-2.709,-2.623,-2.5791,-2.5693,0.0,0.0,0.0,0.0,0.0,0.0,0.0,0.0,0.0,0.0,0.0,0.0,0.0,-4.6375,-4.7204,-4.6161,-4.8793,-5.2269,-5.6367,-5.9409,-6.2611,-6.611,-6.9063,-6.9959,-6.8646,-6.992,-6.9102,-6.6025,-6.5796,-6.488,-6.3315,-6.2611,-6.2283,-6.2147,-5.9658,-5.8148,-5.7297,-5.5661,-5.3004,-5.0016,-5.0773,-4.9163,-4.631,-4.6499,-4.5861,-4.4637,-4.3353,0.0,-3.7702,-3.8738,-3.8893,-3.854,-3.7708,-3.8549,-3.9628,-3.853,-3.6696,-3.4962,-3.4613,-3.4527,-3.5039,-3.7087,-3.8218,-3.9034,-3.9764,-4.0556,-4.117,-4.1274,-4.2386,-4.3415,-4.3783,-4.4744,-4.5522,-4.5522,-4.5974,-4.6527,-4.7054,-4.62,-4.5723,-4.6276,-4.5347,-4.5121,-4.6276,-4.5464,-4.4562,-4.3739,-4.2681,-4.1743,-4.0912,-4.0862,-4.0261,-3.8869,-3.8807,-3.7939,-3.6141,-3.5333,-3.4513,-3.3615,-3.3146,-3.2697,-3.2305,-3.2102,-3.1875,-3.1513,-3.0308,-2.9653,-2.9362,-2.8564,-2.8281,-2.8242,-2.7812,-2.7708,-2.7591,-2.668,-2.6094,-2.5693,0.0,0.0,0.0,0.0,0.0,0.0,0.0,0.0,0.0,0.0,0.0,0.0,0.0,0.0,0.0,0.0,-4.8765,-5.1585,-5.5428,-5.7782,-6.0482,-6.3645,-6.6361,-6.7357,-6.6341,-6.7824,-6.7828,-6.6243,-6.6182,-6.5801,-6.5104,-6.4416,-6.3693,-6.2998,-6.1735,-6.0082,-5.8243,-5.7711,-5.5621,-5.2607,-5.2445,-5.1132,-4.9144,-4.7814,-4.6027,-4.3944,0.0,0.0,-3.8453,-3.7585,-3.7483,-3.7763,-3.7606,-3.7562,-3.7154,-3.5204,-3.452,-3.4508,-3.487,-3.5763,-3.7048,-3.8852,-3.977,-4.0409,-4.1243,-4.2202,-4.292,-4.2674,-4.3067,-4.3384,-4.3216,-4.3563,-4.394,-4.4317,-4.5146,-4.6075,-4.6943,-4.6803,-4.6652,-4.6828,-4.6466,-4.6301,-4.6301,-4.4866,-4.3867,-4.3713,-4.1904,-4.0764,-4.0456,-3.9868,-3.9454,-3.9241,-3.873,-3.7674,-3.6121,-3.5521,-3.4635,-3.3479,-3.2987,-3.2534,-3.2102,-3.205,-3.1525,-3.0656,-3.0025,-2.9473,-2.8852,-2.7839,-2.7617,-2.7812,-2.709,-2.6816,-2.6777,-2.6484,-2.6113,-2.5635,0.0,0.0,0.0,0.0,0.0,0.0,0.0,0.0,0.0,0.0,0.0,0.0,0.0,0.0,0.0,0.0,0.0,-5.0366,-5.3049,-5.5336,-5.7648,-5.998,-6.2658,-6.3765,-6.3033,-6.4262,-6.4663,-6.4124,-6.4375,-6.4602,-6.4731,-6.4789,-6.4446,-6.3788,-6.2964,-6.1427,-5.9426,-5.8866,-5.6672,-5.347,-5.2594,-5.1177,-4.9265,-4.6937,-4.4861,0.0,0.0,-3.8971,-3.7798,-3.6245,-3.5948,-3.6231,-3.6154,-3.5815,-3.5217,-3.3796,-3.3893,-3.4678,-3.5777,-3.7145,-3.8613,-4.0162,-4.1408,-4.2355,-4.273,-4.3618,-4.42,-4.3651,-4.3258,-4.2813,-4.237,-4.2184,-4.2305,-4.2866,-4.3689,-4.4819,-4.6326,-4.62,-4.6175,-4.6778,-4.6652,-4.6476,-4.6326,-4.4719,-4.3597,-4.3184,-4.1913,-4.0737,-3.9751,-3.9261,-3.8931,-3.8812,-3.8233,-3.7198,-3.5645,-3.5169,-3.4341,-3.3141,-3.2571,-3.222,-3.1967,-3.1712,-3.1106,-3.0368,-2.9903,-2.9393,-2.8774,-2.7779,-2.7604,-2.7812,-2.6953,-2.6699,-2.6816,-2.6504,-2.6211,-2.5898,0.0,0.0,0.0,0.0,0.0,0.0,0.0,0.0,0.0,0.0,0.0,0.0,0.0,0.0,0.0,0.0,0.0,0.0,-4.9562,-5.2262,-5.4301,-5.54,-5.8385,-5.9749,-5.9132,-5.9749,-6.0124,-6.0095,-6.0777,-6.1501,-6.2283,-6.3646,-6.4239,-6.413,-6.3075,-6.189,-6.0597,-5.9015,-5.616,-5.2606,-5.146,-4.9506,-4.6927,-4.4157,-4.2734,0.0,-3.8837,-3.701,-3.5781,-3.4832,-3.4453,-3.4245,-3.3648,-3.3716,-3.4026,-3.4451,-3.4813,-3.5507,-3.7317,-3.8514,-3.9636,-4.1128,-4.3056,-4.4537,-4.4346,-4.489,-4.5156,-4.4175,-4.2977,-4.1928,-4.111,-4.0765,-4.0747,-4.1157,-4.1831,-4.3067,-4.5221,-4.4618,-4.4543,-4.6125,-4.5899,-4.5799,-4.618,-4.5086,-4.374,-4.2247,-4.2555,-4.1615,-3.901,-3.9199,-3.8874,-3.757,-3.7488,-3.6597,-3.4878,-3.4339,-3.3596,-3.2669,-3.1969,-3.1743,-3.1926,-3.1091,-3.071,-3.0648,-2.9896,-2.9428,-2.9051,-2.8349,-2.8167,-2.8198,-2.7305,-2.7226,-2.7532,-2.668,-2.6367,-2.6289,0.0,0.0,0.0,0.0,0.0,0.0,0.0,0.0,0.0,0.0,0.0,0.0,0.0,0.0,0.0,0.0,0.0,0.0,-4.8586,-5.051,-5.1728,-5.1945,-5.5682,-5.7441,-5.6778,-5.8024,-5.8736,-5.8878,-5.8714,-5.8631,-5.8642,-5.9186,-5.9066,-5.8346,-5.8677,-5.7959,-5.6536,-5.6361,-5.4393,-5.1416,-5.0794,-4.8968,-4.6475,-4.5273,-4.3523,-4.1533,-3.9746,-3.7864,-3.6052,-3.5014,-3.541,-3.6322,-3.6175,-3.6116,-3.5991,-3.5763,-3.6024,-3.6768,-3.8465,-3.9265,-4.0305,-4.3115,-4.3648,-4.373,-4.4834,-4.5512,-4.5406,-4.3546,-4.2279,-4.0995,-3.9194,-3.9197,-3.9722,-4.0581,-4.2233,-4.4016,-4.5849,-4.62,-4.6301,-4.6301,-4.6878,-4.6724,-4.5375,-4.5315,-4.4243,-4.146,-4.102,-4.0431,-3.9398,-3.8833,-3.8378,-3.8026,-3.7343,-3.6432,-3.5273,-3.4134,-3.3285,-3.2669,-3.2138,-3.1746,-3.1526,-3.0946,-3.0601,-3.0393,-2.9818,-2.9662,-2.9599,-2.8146,-2.7586,-2.7574,-2.6839,-2.6426,-2.625,-2.6348,-2.6191,-2.583,0.0,0.0,0.0,0.0,0.0,0.0,0.0,0.0,0.0,0.0,0.0,0.0,0.0,0.0,0.0,0.0,0.0,0.0,0.0,-4.9016,-4.9686,-4.9639,-5.1824,-5.2927,-5.2582,-5.3446,-5.4262,-5.5022,-5.5305,-5.5727,-5.6224,-5.6768,-5.6735,-5.622,-5.6513,-5.6028,-5.4884,-5.4587,-5.3038,0.0,0.0,-4.8183,-4.6118,-4.4734,-4.3139,-4.1423,-4.0166,-3.8742,-3.7445,-3.7275,-3.7443,-3.7844,-3.844,-3.8127,-3.7679,-3.8247,-3.835,-3.8712,-4.0466,-4.1158,-4.1953,-4.4096,-4.4481,-4.4451,-4.4688,-4.512,-4.4741,-4.2366,-4.1068,-3.9858,-3.807,-3.8033,-3.8765,-4.0007,-4.1389,-4.3187,-4.5623,-4.5999,-4.62,-4.6627,-4.7205,-4.7122,-4.5968,-4.5624,-4.4559,-4.2279,-4.1111,-4.0034,-3.8984,-3.8274,-3.7798,-3.7591,-3.6887,-3.5956,-3.4838,-3.3679,-3.2871,-3.2359,-3.1961,-3.1505,-3.1104,-3.1106,-3.0995,-3.0867,-3.1098,-3.1178,-3.1055,-2.9237,-2.8439,-2.8289,-2.6834,-2.6153,-2.6035,-2.6074,-2.5957,-2.5693,0.0,0.0,0.0,0.0,0.0,0.0,0.0,0.0,0.0,0.0,0.0,0.0,0.0,0.0,0.0,0.0,0.0,0.0,0.0,0.0,-4.8113,-4.802,-4.8127,-4.8245,-4.8312,-4.8383,-4.9088,-5.0426,-5.1502,-5.2677,-5.394,-5.4838,-5.5243,-5.5206,-5.4947,-5.4483,-5.3916,-5.2835,-5.1471,-4.9889,-4.8584,-4.7125,-4.5535,0.0,0.0,-4.1415,-4.0256,-3.957,-3.9393,-4.0416,-4.0101,-3.9436,-4.0739,-4.038,-3.983,-4.1388,-4.1285,-4.1112,-4.2862,-4.3526,-4.3932,-4.4729,-4.5508,-4.5753,-4.4349,-4.418,-4.3559,-4.0879,-3.9589,-3.8573,-3.7274,-3.7207,-3.793,-3.953,-4.0185,-4.1681,-4.502,-4.5045,-4.5296,-4.6792,-4.7043,-4.7007,-4.6797,-4.583,-4.465,-4.3405,-4.1749,-4.0012,-3.8258,-3.7736,-3.7218,-3.6639,-3.6163,-3.5293,-3.4049,-3.3141,-3.2442,-3.1967,-3.1526,-3.1179,-3.0924,-3.1391,-3.1746,-3.1933,-3.2678,-3.2905,-3.2596,-3.051,-2.9607,-2.9274,-2.7089,-2.629,-2.63,-2.5928,-2.5742,-2.5693,0.0,0.0,0.0,0.0,0.0,0.0,0.0,0.0,0.0,0.0,-5.0584,-4.8993,0.0,0.0,0.0,0.0,0.0,0.0,0.0,0.0,0.0,-4.7235,-4.7841,-4.8291,-4.8461,-4.8484,-4.8673,-4.905,-4.909,-4.9182,-4.9257,-5.001,-5.0261,-5.0153,-5.013,-4.9913,-4.9603,-4.8992,-4.8073,-4.7025,-4.6838,-4.5575,-4.3793,0.0,0.0,0.0,-4.0261,-4.014,-4.0602,-4.1824,-4.2341,-4.271,-4.4054,-4.4659,-4.476,-4.4234,-4.4045,-4.4057,-4.4867,-4.4804,-4.4857,-4.6339,-4.6434,-4.5881,-4.4738,-4.3717,-4.2351,-3.9931,-3.8462,-3.7338,-3.6356,-3.6572,-3.75,-3.9452,-4.0185,-4.1681,-4.502,-4.5397,-4.5623,-4.6376,-4.6853,-4.6613,-4.5421,-4.5492,-4.4525,-4.1595,-4.0716,-3.9713,-3.8258,-3.7736,-3.6929,-3.5707,-3.5231,-3.4507,-3.3513,-3.2996,-3.2442,-3.1967,-3.1195,-3.1221,-3.1992,-3.1753,-3.2302,-3.3503,-3.2347,0.0,-3.2313,-3.0019,-2.8828,-2.8348,-2.738,-2.6663,-2.6161,-2.6082,-2.5868,-2.5693,0.0,0.0,0.0,0.0,0.0,0.0,0.0,-5.2006,-5.2736,-5.4839,-5.4146,-5.2828,-5.1131,-5.009,-4.9151,0.0,0.0,0.0,0.0,0.0,0.0,0.0,0.0,0.0,-4.7842,-4.8236,-4.8474,-4.8484,0.0,-4.8599,-4.862,-4.8698,-4.8785,-4.889,-4.889,-4.8732,-4.842,-4.7975,-4.7346,-4.6613,-4.646,-4.56,0.0,0.0,0.0,0.0,-4.1278,-4.1131,-4.1627,-4.2644,-4.303,-4.3454,-4.5436,-4.5922,-4.5733,-4.5906,-4.5702,-4.5647,-4.6537,-4.6572,-4.6494,-4.7241,-4.6757,-4.5516,-4.34,-4.1979,-4.0347,-3.7685,-3.6636,-3.5977,-3.5187,-3.5965,-3.7107,-3.8358,-3.946,-4.1022,-4.3419,-4.3991,-4.4493,-4.5347,-4.5924,-4.601,-4.5293,-4.5478,-4.4701,-4.2351,-4.109,-3.9686,-3.793,-3.7156,-3.6246,-3.5107,-3.4631,-3.4132,-3.3389,-3.2706,-3.2147,-3.1692,-3.1008,-3.0872,-3.1125,-3.2053,-3.2864,-3.3592,-3.3974,-3.3926,-3.3496,-3.155,-3.0235,-2.9258,-2.7947,-2.7117,-2.6672,-2.6383,-2.6207,-2.611,0.0,0.0,0.0,0.0,0.0,0.0,0.0,-5.375,-5.4538,-5.7563,-5.7974,-5.7188,-5.4962,-5.272,-5.0617,0.0,0.0,0.0,0.0,0.0,0.0,0.0,0.0,0.0,0.0,0.0,0.0,-4.8074,-4.8395,0.0,0.0,0.0,0.0,0.0,-4.8767,-4.8569,-4.8151,-4.7854,-4.7436,0.0,0.0,-4.6094,0.0,0.0,0.0,0.0,0.0,-4.2202,-4.2467,-4.3071,-4.3039,-4.311,-4.5242,-4.5516,-4.5289,-4.6438,-4.6607,-4.6664,-4.7843,-4.817,-4.8159,-4.8014,-4.7027,-4.5312,-4.231,-4.0437,-3.8642,-3.5949,-3.5189,-3.4936,-3.4638,-3.5466,-3.6497,-3.7491,-3.8568,-3.9999,-4.1983,-4.2709,-4.3406,-4.4468,-4.5121,-4.5447,-4.5321,-4.5422,-4.4814,-4.3205,-4.1057,-3.9029,-3.7286,-3.6411,-3.5542,-3.4691,-3.4318,-3.3803,-3.3244,-3.2437,-3.1816,-3.136,-3.0905,-3.0588,-3.0391,-3.2095,-3.3001,-3.33,-3.4969,-3.5114,-3.3995,-3.2814,-3.1501,-3.0098,-2.8533,-2.7667,-2.7218,-2.6875,-2.6685,-2.6637,0.0,0.0,0.0,0.0,0.0,0.0,0.0,-5.3846,-5.5986,-6.0717,-6.0524,-5.978,-5.9429,-5.5978,-5.23,0.0,0.0,0.0,0.0,0.0,0.0,0.0,0.0,0.0,0.0,0.0,0.0,-4.7286,-4.7637,0.0,0.0,0.0,0.0,0.0,0.0,-4.8209,-4.7741,-4.7578,0.0,0.0,0.0,0.0,0.0,0.0,0.0,0.0,0.0,-4.2899,-4.2878,-4.3126,-4.2735,-4.2271,-4.2879,-4.3796,-4.478,-4.5516,-4.6494,-4.7577,-4.8432,-4.9049,-4.9378,-4.8798,-4.7695,-4.5933,-4.2998,-4.0408,-3.8175,-3.639,-3.5096,-3.4646,-3.5714,-3.51,-3.5283,-3.795,-3.8006,-3.8792,-4.1879,-4.2802,-4.3559,-4.45,-4.5121,-4.5271,-4.4744,-4.5171,-4.4575,-4.2228,-3.8921,-3.6738,-3.6247,-3.5769,-3.5066,-3.4155,-3.4093,-3.3658,-3.2752,-3.2235,-3.1816,-3.136,-3.0905,-3.0937,-3.1483,-3.1688,-3.2297,-3.3201,-3.34,-3.2901,0.0,-3.1724,-3.0751,-2.9393,-2.9208,-2.8519,-2.7533,-2.7492,-2.7345,-2.71,0.0,0.0,0.0,0.0,0.0,0.0,-5.4842,-5.5235,-5.6925,-6.1919,-6.2408,-6.1858,-6.072,-5.8823,-5.5593,-5.0557,0.0,0.0,0.0,0.0,0.0,0.0,0.0,0.0,0.0,0.0,-4.7803,-4.7803,-4.8383,0.0,0.0,0.0,0.0,0.0,0.0,-4.7911,-4.745,-4.7407,0.0,0.0,0.0,0.0,0.0,0.0,0.0,0.0,0.0,0.0,-4.3027,-4.3009,-4.2103,-4.0935,-4.0913,-4.0895,-4.1479,-4.4232,-4.5649,-4.6709,-4.8238,-4.9175,-4.9524,-4.8885,-4.7062,-4.4931,-4.2869,-4.0041,-3.7394,-3.5883,-3.4843,-3.4245,-3.4393,-3.4287,-3.4602,-3.5745,-3.628,-3.709,-3.8566,-3.961,-4.0645,-4.1961,-4.3237,-4.4016,-4.4116,-4.4644,-4.3821,-4.1167,-3.9612,-3.8273,-3.7096,-3.5456,-3.432,-3.3679,-3.3658,-3.3348,-3.2747,-3.2002,-3.1547,-3.136,-3.0615,-3.0423,-3.0651,-3.133,-3.1841,-3.2297,-3.2901,-3.26,0.0,-3.1586,-3.0884,-2.9684,-2.9415,-2.9033,-2.8581,-2.8293,-2.814,-2.7971,0.0,0.0,0.0,0.0,0.0,-5.1255,-5.55,-5.5836,-5.732,-6.2106,-6.2932,-6.264,-6.1639,-5.9973,-5.7255,-5.3113,-5.0973,0.0,0.0,0.0,0.0,0.0,0.0,0.0,0.0,0.0,-4.8235,-4.8485,-4.8996,-4.9353,0.0,0.0,-4.875,-4.8829,0.0,0.0,0.0,0.0,0.0,0.0,0.0,0.0,0.0,0.0,0.0,0.0,0.0,0.0,0.0,0.0,0.0,-4.0579,-3.9972,-3.919,-3.9134,-4.2209,-4.3959,-4.5328,-4.7021,-4.8431,-4.9233,-4.8595,-4.6495,-4.4237,-4.2754,-3.976,-3.6967,-3.5705,-3.4927,-3.4393,-3.3944,-3.402,-3.4323,0.0,-3.5443,-3.6185,-3.6925,-3.7918,-3.8965,-4.0127,-4.1455,-4.2459,-4.3011,-4.3714,-4.3223,-4.1045,-4.0386,-3.9435,-3.8022,-3.5883,-3.4465,-3.3949,-3.3601,-3.3161,-3.2669,-3.1961,-3.1505,-3.136,-3.0574,-3.0118,-3.0047,-3.0785,-3.1124,-3.1176,-3.2246,-3.2145,0.0,-3.1483,-3.0991,-2.9973,-2.9642,-2.9415,-2.927,-2.8938,-2.8814,-2.8702,0.0,0.0,0.0,0.0,0.0,0.0,-5.3887,-5.5067,-5.7094,-6.128,-6.1629,-6.1823,-6.2587,-5.8954,-5.6413,-5.634,-5.2882,0.0,0.0,0.0,0.0,0.0,0.0,0.0,0.0,0.0,-4.8377,-4.9088,-4.9088,-4.9172,-4.9317,-4.8902,-4.8542,-4.8186,0.0,0.0,0.0,0.0,0.0,0.0,0.0,0.0,0.0,0.0,0.0,0.0,0.0,0.0,0.0,0.0,0.0,0.0,0.0,-3.9346,-3.8685,-3.9188,-4.128,-4.3634,-4.4413,-4.661,-4.8595,-4.7956,-4.6194,-4.4237,-4.2754,-3.976,-3.708,-3.6268,-3.5611,-3.5189,-3.5161,-3.4646,-3.461,-3.5855,-3.6117,-3.6607,-3.8096,-3.8845,-3.9385,-3.965,-4.0199,-4.0752,-4.125,-4.2359,-4.276,-4.2208,-4.0544,-3.9406,-3.8821,-3.7138,-3.5834,-3.5111,-3.3986,-3.3161,-3.2669,-3.2215,-3.1816,-3.136,-3.0905,-3.045,-2.9994,-2.9994,-2.9994,-3.0099,-3.1124,-3.1043,0.0,-3.1176,-3.0991,-2.9994,-2.9994,-2.9704,-2.9311,-2.929,-2.929,-2.9228,0.0,0.0,0.0,0.0,0.0,0.0,0.0,-5.3294,-5.5047,-5.8051,-5.884,-5.9606,-6.091,-5.8551,-5.6742,-5.6423,-5.2846,0.0,0.0,0.0,0.0,0.0,0.0,0.0,0.0,0.0,-4.9927,-5.0606,-5.1241,-5.1566,-5.1556,-5.0997,-5.0402,-4.971,-4.8529,-4.7898,0.0,0.0,0.0,0.0,0.0,0.0,-4.5203,0.0,0.0,0.0,0.0,0.0,0.0,0.0,0.0,0.0,0.0,0.0,0.0,-3.8047,-3.9542,-4.1474,-4.231,-4.3791,-4.4796,-4.3761,-4.2525,-4.1226,-3.9902,-3.8309,-3.6813,-3.5695,-3.5667,-3.5555,-3.4674,-3.4329,-3.461,-3.5892,-3.6117,-3.6369,-3.7187,-3.8113,-3.883,-3.9121,-4.0953,-4.2409,-4.2961,-4.2986,-4.2585,-4.1681,-4.1081,-4.0368,-3.9451,-3.7738,-3.6125,-3.4743,-3.4315,-3.3537,-3.2215,-3.1816,-3.136,-3.0884,-3.0118,-2.9829,-2.9973,-2.9663,-2.9704,-2.9994,-3.0339,-3.0287,-3.0047,-3.0339,-3.0287,-2.9994,-2.9994,-2.9911,-2.9766,-2.9766,-2.9766,-2.9663,0.0,0.0,0.0,0.0,0.0,0.0,0.0,-5.216,-5.347,-5.565,-5.6274,-5.7361,-5.9545,-5.7316,-5.5874,-5.635,-5.3171,0.0,0.0,0.0,0.0,0.0,0.0,0.0,-4.944,-4.9503,-5.0381,-5.2077,-5.2517,-5.2979,-5.3496,-5.2828,-5.1943,-5.0887,-4.9638,-4.8889,0.0,0.0,0.0,0.0,0.0,0.0,-4.4988,0.0,0.0,0.0,0.0,0.0,0.0,0.0,0.0,0.0,0.0,0.0,0.0,0.0,-3.8133,-3.9188,-4.0423,-4.1799,-4.2531,-4.1447,-4.0359,-3.9292,-3.8189,-3.7088,-3.6117,-3.533,-3.5667,-3.5686,-3.4413,-3.4413,-3.4843,-3.5639,-3.5525,-3.5707,-3.6652,-3.7281,-3.7981,-3.8793,-4.0752,-4.2258,-4.2811,-4.2735,-4.2308,-4.1351,-4.11,-4.0651,-3.9747,-3.8257,-3.6729,-3.5205,-3.4183,-3.3204,-3.2108,-3.112,-3.045,-3.016,-2.958,-2.9456,-2.9725,-2.9622,-2.9725,-2.9994,-2.9994,-2.9994,0.0,-2.9994,-2.9994,-2.9973,-2.9808,-2.9849,-2.9953,-2.9601,-2.958,-2.9601,0.0,0.0,0.0,0.0,0.0,0.0,0.0,-5.1513,-5.2332,-5.3931,-5.405,-5.5174,-5.8312,-5.5475,-5.4096,-5.5985,0.0,0.0,0.0,0.0,0.0,0.0,0.0,0.0,-5.0079,-4.8995,-4.9975,-5.3303,-5.2933,-5.3491,-5.4906,-5.433,-5.3228,-5.1744,-5.0994,-5.0174,-4.9293,-4.9197,-4.809,-4.6515,-4.6936,-4.6142,0.0,0.0,0.0,0.0,0.0,0.0,0.0,0.0,0.0,0.0,0.0,0.0,0.0,0.0,0.0,0.0,0.0,-4.0301,-4.1253,-4.0323,-3.9189,-3.8129,-3.7319,-3.6099,0.0,-3.5133,-3.5639,-3.5752,-3.4497,-3.4806,-3.5227,-3.533,-3.4758,-3.4883,-3.6524,-3.6705,-3.7241,-3.8768,-3.9923,-4.0724,-4.1225,-4.1806,-4.1856,-4.12,-4.0752,-4.0199,-3.9597,-3.8542,-3.7419,-3.6367,-3.3765,-3.2331,-3.2197,-3.0324,-2.9342,-2.9249,-2.9249,-2.927,-2.9311,-2.9746,-2.9953,-2.9953,-2.9973,-2.9953,-2.9891,-2.9932,-2.9953,-2.9891,-2.9435,-2.9539,-2.9829,-2.8938,-2.8876,-2.9125,0.0,0.0,0.0,0.0,0.0,0.0,0.0,0.0,0.0,0.0,-5.2799,-5.3626,-5.5135,-5.4335,-5.3682,0.0,0.0,0.0,0.0,0.0,0.0,0.0,0.0,0.0,-5.0468,-5.0185,-5.0717,-5.2123,-5.3068,-5.3753,-5.411,-5.5738,-5.5024,-5.241,-5.2361,-5.1208,-4.9257,-4.8687,-4.7926,-4.7131,-4.6625,-4.5684,0.0,0.0,0.0,0.0,-4.2565,-4.2386,0.0,0.0,0.0,0.0,0.0,0.0,0.0,0.0,-3.6123,-3.6019,-3.6438,0.0,-3.7128,-3.5453,-3.5504,-3.5704,0.0,-3.4747,-3.5048,-3.4534,-3.5321,-3.5864,-3.5133,-3.5058,-3.5449,-3.6396,-3.5964,-3.5957,-3.72,-3.7929,-3.8667,-3.9688,-4.0567,-4.1096,-4.0981,-4.1293,-4.1128,-4.0149,-3.9948,-3.9446,-3.8442,-3.7739,-3.7089,-3.64,-3.4198,-3.2446,-3.1142,-3.0673,-2.9913,-2.8773,-2.8773,-2.8959,-2.9311,-2.9415,-2.9456,-2.9477,-2.9849,-2.9601,-2.8959,-2.9332,-2.9456,-2.9415,-2.8959,-2.9063,-2.9394,-2.8835,-2.869,-2.869,0.0,0.0,0.0,0.0,0.0,0.0,0.0,0.0,0.0,0.0,0.0,0.0,0.0,0.0,0.0,0.0,0.0,0.0,0.0,0.0,0.0,0.0,0.0,-4.9943,-5.0025,-4.9785,-5.0488,-5.2201,-5.2988,-5.3914,-5.4887,-5.6476,-5.5758,-5.3114,-5.2585,-5.1422,-4.9828,-4.9817,-4.8957,-4.7572,-4.7402,0.0,0.0,0.0,0.0,0.0,-4.2315,-4.1975,0.0,-4.1786,-4.1725,-4.1342,0.0,0.0,0.0,0.0,-3.5896,-3.5302,-3.5204,-3.5545,-3.5613,-3.4495,-3.4548,-3.4671,-3.3888,-3.4028,-3.4225,-3.3852,-3.4562,-3.505,-3.439,-3.4496,-3.4979,-3.5907,-3.549,-3.5486,-3.6845,-3.7894,-3.8843,-3.979,-4.0295,-4.0671,-4.1064,-4.0771,-4.035,-3.9747,-3.922,-3.8642,-3.804,-3.701,-3.6307,-3.6031,-3.44,-3.2925,-3.1565,-3.1109,-3.0224,-2.8985,-2.9437,-2.9547,-2.9311,-2.9518,-2.9622,-2.9642,-2.9891,-2.9704,-2.927,-2.9518,-2.9622,-2.9611,-2.9379,-2.93,-2.9238,-2.8789,-2.8502,-2.8235,0.0,0.0,0.0,0.0,0.0,0.0,0.0,0.0,0.0,0.0,0.0,0.0,0.0,0.0,0.0,0.0,0.0,0.0,0.0,0.0,0.0,0.0,-4.9834,-4.9421,-4.9582,-4.8919,-4.9812,-5.2389,-5.2757,-5.3928,-5.5807,-5.6942,-5.6297,-5.4109,-5.2666,-5.153,-5.0709,-5.128,-5.0133,-4.8017,-4.8297,0.0,0.0,0.0,0.0,0.0,0.0,0.0,0.0,-4.1179,-4.1117,-4.0864,-3.9777,0.0,0.0,0.0,0.0,0.0,-3.466,-3.5112,-3.5537,-3.5102,-3.4711,-3.4405,-3.4112,-3.3655,-3.329,-3.329,-3.378,-3.4038,-3.3457,-3.3887,-3.4482,-3.4965,-3.4737,-3.5051,-3.66,-3.7538,-3.8517,-3.952,-3.9697,-4.0049,-4.0896,-4.0174,-3.9521,-3.9446,-3.8467,-3.7814,-3.7638,-3.626,-3.5433,-3.5257,-3.4474,-3.3548,-3.2641,-3.1688,-3.0718,-2.9793,-3.0673,-3.0565,-2.9566,-3.0026,-3.0109,-2.9891,-2.9973,0.0,-2.958,-2.9642,-2.9642,-2.958,-2.9633,-2.9535,-2.9291,-2.8739,-2.8357,-2.7952,0.0,0.0,0.0,0.0,0.0,0.0,0.0,0.0,0.0,0.0,0.0,0.0,0.0,0.0,0.0,0.0,0.0,0.0,0.0,0.0,0.0,-5.1353,-5.0814,-5.0557,-5.0479,-4.9419,-4.9405,-5.0592,-5.2303,-5.3549,-5.4379,-5.7612,-5.7961,-5.5771,-5.4305,-5.285,-5.1494,-5.0923,-4.9955,-4.8749,-4.791,0.0,0.0,0.0,0.0,0.0,0.0,0.0,0.0,-4.1079,-4.1086,-4.0547,-3.8811,0.0,0.0,0.0,0.0,0.0,-3.4616,-3.5511,-3.5849,-3.4044,-3.3931,-3.4112,-3.3543,-3.3347,-3.329,-3.329,-3.3789,-3.419,-3.4077,-3.4473,-3.5005,-3.5652,-3.6402,-3.7257,-3.839,-3.8693,-3.8918,-3.9287,-3.9594,-3.9644,-3.9611,-3.9268,-3.8793,-3.8291,-3.7663,-3.691,-3.5934,-3.5633,-3.5082,-3.4173,-3.4449,-3.4285,-3.3676,-3.2665,-3.19,-3.1428,-3.1999,-3.1686,-3.0665,-3.1164,-3.0623,-2.9435,0.0,-2.9104,-2.7766,-2.809,-2.8028,-2.7737,-2.7656,-2.8343,-2.9267,-2.8367,-2.8234,-2.8459,0.0,0.0,0.0,0.0,0.0,0.0,0.0,0.0,0.0,0.0,0.0,0.0,0.0,0.0,0.0,0.0,0.0,0.0,0.0,0.0,-5.1836,-5.2145,-5.1317,-5.0807,-5.0708,-5.0258,-5.0626,-5.1943,-5.3539,-5.4867,-5.5923,-5.6633,-5.6287,-5.4988,-5.3371,-5.2309,-5.1672,-5.1315,-5.0635,-4.9763,0.0,0.0,0.0,0.0,0.0,0.0,0.0,0.0,0.0,0.0,-4.0251,-4.0133,-3.8807,0.0,0.0,0.0,0.0,0.0,-3.4329,-3.4825,-3.5102,-3.4011,-3.4566,-3.5318,-3.5012,-3.4056,-3.3254,-3.3254,-3.3463,-3.3641,-3.3582,-3.4293,-3.5244,-3.6412,-3.7241,-3.7901,-3.8341,-3.8391,-3.8567,-3.9017,-3.8918,-3.8843,-3.9067,-3.8417,-3.7839,-3.7588,-3.7061,-3.6383,-3.5533,-3.5232,-3.4831,-3.4349,-3.4299,-3.4449,-3.4731,-3.3999,-3.3414,-3.3007,-3.3478,-3.3038,-3.1708,-3.1932,-3.1334,-3.0133,0.0,-2.94,-2.8359,-2.8317,-2.8173,-2.807,-2.8841,-2.9252,-2.931,-2.8612,-2.8179,-2.7904,0.0,0.0,0.0,0.0,0.0,0.0,0.0,0.0,0.0,0.0,0.0,0.0,0.0,0.0,0.0,0.0,0.0,0.0,0.0,0.0,-5.1907,-5.2394,-5.1486,-5.1128,-5.1436,-5.1256,-5.1959,-5.3592,-5.4892,-5.6325,-5.7719,-5.6026,-5.4834,-5.4027,-5.2533,-5.1695,-5.1495,-5.1632,-5.1219,-5.047,0.0,0.0,0.0,0.0,0.0,0.0,0.0,0.0,0.0,0.0,0.0,0.0,0.0,0.0,0.0,-3.668,-3.5672,-3.4978,-3.4289,-3.4462,-3.4772,-3.4685,-3.5129,-3.5735,-3.6153,-3.4739,-3.3463,-3.386,-3.3886,-3.3735,-3.3685,-3.4504,-3.5647,-3.7157,-3.7839,-3.8241,-3.8391,-3.8291,-3.8366,-3.8869,-3.8366,-3.8191,-3.8617,-3.7764,-3.7186,-3.7186,-3.6732,-3.6132,-3.5533,-3.5107,-3.4806,-3.468,-3.4299,-3.45,-3.5307,-3.4881,-3.4566,-3.4337,-3.4628,-3.4007,-3.2549,-3.2549,-3.19,-3.0762,-3.0275,-2.967,-2.8927,-2.8499,-2.8382,-2.8557,-2.9844,-3.0055,-2.9682,-2.9229,-2.8445,-2.7573,0.0,0.0,0.0,0.0,0.0,0.0,0.0,0.0,0.0,0.0,0.0,0.0,0.0,0.0,0.0,0.0,0.0,0.0,0.0,0.0,-5.1693,-5.1576,-5.1319,-5.1946,-5.3538,-5.2462,-5.265,-5.4161,-5.5617,-5.71,-5.8564,-5.7089,-5.5573,-5.406,-5.3177,-5.2081,-5.0884,-5.135,-5.1119,-5.047,-5.0221,0.0,0.0,0.0,0.0,0.0,0.0,0.0,0.0,0.0,0.0,0.0,0.0,0.0,-3.8713,-3.7325,-3.6394,-3.5654,-3.495,-3.5225,-3.5788,-3.6155,-3.4705,-3.368,-3.5393,-3.468,-3.4187,-3.5881,-3.5818,-3.5406,-3.5414,-3.5867,-3.6656,-3.7764,-3.8442,-3.8994,-3.9496,-3.912,-3.8818,-3.8919,-3.8366,-3.8015,-3.8065,-3.7538,-3.7186,-3.7186,-3.6732,-3.6132,-3.5533,-3.5458,-3.5207,-3.4751,-3.4675,-3.47,-3.4776,-3.4751,-3.4956,-3.539,-3.4915,-3.4139,-3.3026,-3.3026,-3.2206,-3.0668,-3.0281,-2.9302,-2.7969,-2.7558,-2.7661,-2.8091,-2.8628,-2.9592,-3.0652,-3.0234,-2.9441,-2.8445,0.0,0.0,0.0,0.0,0.0,0.0,0.0,0.0,0.0,0.0,0.0,0.0,0.0,0.0,0.0,0.0,0.0,0.0,0.0,-5.1708,-5.1897,-5.2345,-5.2353,-5.2646,-5.335,-5.3506,-5.4514,-5.6432,-5.7919,-5.8243,-5.743,-5.581,-5.4296,-5.2866,-5.1477,-5.0622,-5.0209,-5.0721,-5.085,-5.0699,-5.0708,-4.9389,0.0,0.0,0.0,0.0,0.0,0.0,0.0,0.0,-3.9991,-3.976,-3.9087,-3.9175,-3.9094,-3.709,-3.594,-3.5096,-3.41,-3.4284,-3.4711,-3.4547,-3.3933,-3.3904,-3.601,-3.5374,-3.4594,-3.568,-3.5984,-3.6202,-3.651,-3.6496,-3.686,-3.8316,-3.8417,-3.8542,-3.9094,-3.8693,-3.8216,-3.7864,-3.7638,-3.7362,-3.701,-3.6832,-3.6732,-3.6732,-3.6531,-3.5981,-3.5031,-3.4981,-3.4625,-3.3721,-3.3696,-3.3696,-3.3696,-3.3345,-3.3269,-3.347,-3.4324,-3.43,-3.3592,-3.3592,-3.2929,-3.1642,-3.0879,-3.0217,-2.9621,-2.8876,-2.8856,-2.9466,-3.0197,-3.0838,-3.1273,-3.1155,-3.0079,-2.8724,0.0,0.0,0.0,0.0,0.0,0.0,0.0,0.0,0.0,0.0,0.0,0.0,0.0,0.0,0.0,0.0,0.0,0.0,-5.1708,-5.1708,-5.1922,-5.2519,-5.2642,-5.2822,-5.3052,-5.399,-5.531,-5.7111,-5.8336,-5.8071,-5.6316,-5.4495,-5.3273,-5.2505,-5.0561,-4.9846,-5.0198,-5.0004,-5.0035,-5.0173,-5.0072,-4.8893,0.0,0.0,0.0,0.0,0.0,0.0,0.0,0.0,-3.9949,-3.9624,-3.9304,-3.9354,-3.9184,-3.7402,-3.6285,-3.5299,-3.3656,-3.3633,-3.387,-3.3301,-3.3457,-3.4219,-3.6114,-3.5767,-3.5278,-3.6358,-3.6734,-3.6839,-3.6748,-3.6668,-3.6889,-3.7742,-3.7942,-3.814,-3.8542,-3.7965,-3.7337,-3.696,-3.6784,-3.6458,-3.5906,-3.6006,-3.6031,-3.5855,-3.583,-3.5504,-3.4731,-3.468,-3.4299,-3.337,-3.3212,-3.2993,-3.2817,-3.224,-3.1964,-3.1964,-3.3119,-3.3571,-3.337,-3.3194,-3.2804,-3.22,-3.1255,-3.0802,-3.0763,-2.9893,-3.0027,-3.0711,-3.1713,-3.2064,-3.2045,-3.1713,-3.0756,-2.9669,0.0,0.0,0.0,0.0,0.0,0.0,0.0,0.0,0.0,0.0,0.0,0.0,0.0,0.0,0.0,0.0,0.0,0.0,-5.1672,-5.1672,-5.1672,-5.1672,-5.1945,-5.2361,-5.2965,-5.3842,-5.4716,-5.5582,-5.6316,-5.6316,-5.5516,-5.34,-5.2738,-5.3235,-5.0861,-5.0281,-5.098,-4.9197,-4.8587,-4.8722,-4.799,-4.6837,-4.5591,0.0,0.0,0.0,0.0,0.0,0.0,0.0,-3.9834,-3.8735,-4.0688,0.0,0.0,-3.8425,-3.7661,-3.6444,-3.3889,-3.3532,-3.3709,-3.281,-3.3333,-3.4307,-3.5383,-3.5607,-3.6229,-3.8417,-3.8417,-3.7494,-3.5864,-3.648,-3.6822,-3.5767,-3.6924,-3.799,-3.799,-3.7061,-3.6405,-3.6405,-3.5881,-3.5282,-3.4731,-3.5182,-3.5282,-3.4731,-3.468,-3.4726,-3.47,-3.4655,-3.4449,-3.3897,-3.3345,-3.2767,-3.2215,-3.1662,-3.1386,-3.1386,-3.1386,-3.1662,-3.219,-3.1637,-3.1687,-3.2173,-3.1217,-3.0788,-3.0793,-3.0367,-3.0756,-3.1713,-3.2723,-3.3111,-3.2982,-3.1977,-3.1625,-3.1492,0.0,0.0,0.0,0.0,0.0,0.0,0.0,0.0,0.0,0.0,0.0,0.0,0.0,0.0,0.0,0.0,0.0,0.0,-5.0887,-5.0852,-5.0852,-5.0852,-5.1475,-5.1609,-5.1172,-5.1573,-5.2892,-5.5199,-5.5666,-5.5246,-5.3878,-5.2338,-5.1446,-5.1115,-4.9858,-4.8893,-4.8157,-4.7953,-4.7645,-4.7311,-4.7221,-4.6647,-4.5767,0.0,0.0,0.0,0.0,0.0,0.0,0.0,0.0,0.0,-3.9224,0.0,-3.9336,-3.7499,-3.6655,-3.5874,-3.3937,-3.3516,-3.3628,-3.3584,-3.4125,-3.4955,-3.6183,-3.6305,-3.6443,-3.7433,-3.6518,-3.5423,-3.5053,-3.4903,-3.502,-3.5519,-3.5696,-3.6137,-3.7265,-3.6483,-3.578,-3.578,-3.5608,-3.5282,-3.4731,-3.5182,-3.5282,-3.4731,-3.468,-3.4374,-3.3596,-3.3571,-3.2968,-3.1637,-3.1436,-3.126,-3.1085,-3.0532,-3.0457,-3.0834,-3.0457,-3.0758,-3.1637,-3.1461,-3.1486,-3.1637,-3.1348,-3.1199,-3.1249,-3.1497,-3.2025,-3.2655,-3.2982,-3.3111,-3.3068,-3.2766,-3.222,-3.1669,0.0,0.0,0.0,0.0,0.0,0.0,0.0,0.0,0.0,0.0,-5.2198,-5.2222,0.0,0.0,0.0,0.0,0.0,0.0,0.0,-5.0495,-5.0495,-5.0495,-5.0959,-5.0998,-5.0524,-5.1099,-5.159,-5.2042,-5.3268,-5.3228,-5.1999,-5.151,-5.1214,-5.1048,-5.0286,-4.9326,-4.8199,-4.7558,-4.6773,-4.5891,-4.574,-4.5366,-4.4961,0.0,0.0,0.0,0.0,0.0,0.0,0.0,0.0,0.0,-3.8975,-3.913,-3.9008,-3.7344,-3.6473,-3.5696,-3.3944,-3.3815,-3.4117,-3.4019,-3.4706,-3.5665,-3.6709,-3.7166,-3.7344,-3.7221,-3.6157,-3.4935,-3.3951,-3.3674,-3.3641,-3.3711,-3.4335,-3.5066,-3.5863,-3.5722,-3.5508,-3.5508,-3.5307,-3.4956,-3.4449,-3.4655,-3.463,-3.4123,-3.4073,-3.3671,-3.2792,-3.2742,-3.2089,-3.0658,-3.0608,-3.0608,-3.0608,-3.0281,-3.0382,-3.0909,-3.0583,-3.0758,-3.1386,-3.1185,-3.1185,-3.1386,-3.1386,-3.1386,-3.1411,-3.1763,-3.2089,-3.2416,-3.2416,-3.2416,-3.2441,-3.2641,-3.2375,-3.1969,0.0,0.0,-5.1708,-5.1708,0.0,0.0,0.0,0.0,0.0,0.0,-5.2174,-5.2198,0.0,0.0,0.0,0.0,0.0,0.0,0.0,0.0,-5.0495,-5.0495,-5.0563,-5.0656,-5.0807,-5.1707,-5.0626,-4.7369,-4.9796,-5.0613,-4.9915,-5.0611,-5.134,-5.2035,-5.1378,-5.0616,-4.9723,-4.7571,-4.5881,-4.4522,-4.3863,-4.3598,-4.3598,-4.3598,0.0,0.0,0.0,0.0,0.0,0.0,0.0,0.0,-3.9536,-3.9137,-3.8373,-3.7623,-3.6813,-3.5821,-3.4123,-3.4327,-3.4918,-3.4451,-3.5359,-3.6505,-3.7089,-3.8015,-3.8515,-3.7418,-3.6699,-3.5459,-3.2997,-3.2864,-3.2719,-3.1429,-3.3059,-3.4414,-3.4171,-3.4777,-3.5265,-3.5408,-3.4931,-3.4449,-3.3947,-3.3897,-3.3646,-3.3043,-3.2993,-3.2717,-3.2114,-3.2064,-3.1587,-3.0583,-3.0532,-3.0557,-3.0608,-3.0557,-3.0809,-3.1311,-3.1311,-3.1311,-3.1311,-3.0884,-3.0934,-3.1386,-3.1336,-3.1336,-3.1386,-3.1336,-3.1361,-3.1386,-3.1386,-3.1386,-3.1461,-3.1964,-3.2139,-3.2215,0.0,0.0,-5.1708,-5.1708,0.0,0.0,0.0,0.0,0.0,0.0,0.0,0.0,0.0,-5.1932,0.0,0.0,0.0,0.0,0.0,0.0,-5.0495,-5.0495,-5.1026,-5.135,-5.1562,-5.0546,-4.886,-4.6567,-4.8002,-4.8249,-4.7399,-4.8106,-4.881,-4.9458,-4.9202,-4.8459,-4.7276,-4.5692,-4.4533,-4.3797,-4.3664,-4.3598,-4.3598,-4.3598,-4.3598,0.0,0.0,0.0,0.0,0.0,0.0,0.0,-3.9841,-3.9544,-3.8856,-3.7279,-3.6507,-3.6035,-3.5209,-3.4806,-3.4998,-3.6767,-3.7791,-3.8195,-3.7397,-3.7713,-3.7892,-3.6759,-3.5667,-3.4659,-3.3743,-3.3293,-3.3116,-3.3288,-3.2768,-3.2866,-3.4354,-3.3707,-3.3539,-3.4715,-3.4399,-3.4022,-3.3897,-3.3897,-3.347,-3.2466,-3.239,-3.1989,-3.1009,-3.0959,-3.0658,-2.998,-2.998,-3.0181,-3.0608,-3.0181,-3.0231,-3.0783,-3.0783,-3.0783,-3.0783,-3.1085,-3.1286,-3.1361,-3.0959,-3.1009,-3.1361,-3.0959,-3.1009,-3.1386,-3.1386,-3.1386,-3.1411,-3.1512,-3.1562,-3.1637,0.0,0.0,0.0,0.0,0.0,0.0,0.0,0.0,0.0,0.0,0.0,0.0,0.0,-5.1285,0.0,0.0,-5.0591,0.0,0.0,0.0,-5.0102,-5.0495,-5.1064,-5.0956,-5.0099,-4.9145,-4.7207,-4.4148,-4.4843,-4.5243,-4.54,-4.6258,-4.6984,-4.7622,-4.7952,-4.7395,-4.6126,-4.5369,-4.4469,-4.3598,-4.3598,-4.3598,-4.3598,-4.3598,-4.3598,-4.3532,-4.3168,0.0,0.0,0.0,0.0,0.0,0.0,0.0,-3.9279,-3.7573,-3.6722,-3.6163,-3.5555,-3.5371,-3.5819,-3.7873,-3.9094,-3.9513,-3.8329,-3.8277,-3.8146,-3.7146,-3.5927,-3.475,-3.3733,-3.3078,-3.2771,-3.2887,-3.2606,-3.2674,-3.349,-3.3531,-3.381,-3.4585,-3.4248,-3.3796,-3.352,-3.3244,-3.2742,-3.1888,-3.1813,-3.1461,-3.0658,-3.0608,-3.0357,-2.9804,-2.9804,-3.0055,-3.0608,-3.0331,-3.0457,-3.0984,-3.0984,-3.1135,-3.1386,-3.1386,-3.1537,-3.1738,-3.0959,-3.0758,-3.0984,-3.0432,-3.0382,-3.0633,-3.0633,-3.0633,-3.0658,-3.0909,-3.1009,-3.1085,0.0,0.0,0.0,0.0,0.0,0.0,0.0,0.0,0.0,0.0,0.0,0.0,0.0,0.0,-5.0295,0.0,0.0,0.0,0.0,0.0,0.0,-5.0673,-5.1099,-5.0443,-4.8641,-4.8274,-4.6058,-4.193,-4.1887,-4.2439,-4.3611,-4.4569,-4.5346,-4.6009,-4.6793,-4.6454,-4.5271,-4.5046,-4.4245,-4.3175,-4.3175,-4.3241,-4.337,-4.337,-4.34,-4.34,-4.34,-4.3002,-4.2506,-4.2477,0.0,0.0,0.0,0.0,-3.9569,-3.8046,-3.6958,-3.6138,-3.5693,-3.6107,-3.6968,-3.8347,-3.9604,-4.0254,-3.9234,-3.8893,-3.8542,-3.7719,-3.655,-3.5354,-3.4014,-3.3256,-3.2672,-3.2276,-3.2557,-3.2755,-3.2523,-3.3473,-3.4245,-3.4379,-3.4048,-3.3545,-3.2993,-3.2491,-3.1938,-3.1311,-3.126,-3.1035,-3.0507,-3.0482,-3.0256,-2.9804,-2.9804,-3.0005,-3.0457,-3.0482,-3.0683,-3.111,-3.121,-3.1537,-3.2064,-3.1687,-3.1788,-3.2164,-3.1286,-3.0834,-3.0708,-3.0156,-2.998,-3.0055,-2.9854,-2.9854,-2.998,-3.0331,-3.0482,-3.0557,0.0,0.0,0.0,0.0,0.0,0.0,0.0,0.0,0.0,0.0,-5.1733,-5.1412,0.0,0.0,0.0,-4.9364,-4.9293,0.0,0.0,0.0,0.0,-5.1494,-5.1687,-5.128,-5.0214,-4.9032,-4.6487,-4.2469,-4.1361,-4.1043,-4.1527,-4.2565,-4.3495,-4.4327,-4.4794,-4.4458,-4.3489,-4.2647,-4.1942,-4.1366,-4.1366,-4.1785,-4.2492,-4.2492,-4.2551,-4.2638,-4.2638,-4.2572,-4.2506,-4.236,-4.2235,0.0,0.0,0.0,-3.9458,-3.8017,-3.6619,-3.564,-3.6076,-3.7044,-3.8076,-3.8552,-3.9284,-3.9715,-3.9254,-3.8719,-3.8115,-3.7453,-3.6806,-3.6243,-3.6026,-3.5087,-3.4392,-3.4318,-3.2893,-3.2083,-3.2866,-3.2435,-3.2328,-3.3208,-3.3244,-3.2968,-3.239,-3.2265,-3.1788,-3.0783,-3.0708,-3.0482,-2.993,-2.9905,-2.9854,-2.9804,-2.9804,-2.9829,-2.9905,-2.9905,-2.993,-3.0005,-3.0482,-3.0984,-3.1512,-3.1913,-3.2139,-3.2215,-3.2064,-3.1738,-3.1235,-3.0708,-3.0758,-3.1085,-3.0156,-3.008,-3.0457,-3.0055,-2.9905,-3.0055,0.0,0.0,0.0,0.0,0.0,0.0,0.0,0.0,0.0,0.0,0.0,-5.069,0.0,0.0,0.0,-4.7986,0.0,0.0,0.0,0.0,0.0,-5.0352,-5.003,-4.9264,-4.7991,-4.6982,-4.4624,-4.0859,-4.0608,-4.0341,-4.006,-4.1244,-4.2446,-4.3637,-4.3609,-4.3231,-4.2525,-4.1694,-4.1263,-4.1154,-4.106,-4.1263,-4.1708,-4.2048,-4.2067,-4.1943,-4.2166,-4.2331,-4.236,-4.2331,-4.2506,-4.2548,-4.1457,0.0,0.0,0.0,-3.738,-3.655,-3.6802,-3.6967,-3.7405,-3.8678,-3.9584,-3.9967,-3.9285,-3.9252,-3.8906,-3.7314,-3.6601,-3.6225,-3.5775,-3.4891,-3.4248,-3.4248,-3.322,-3.2469,-3.2599,-3.25,-3.2389,-3.2173,-3.239,-3.2265,-3.1411,-3.1311,-3.0984,-3.0206,-3.0156,-3.0055,-2.9804,-2.9804,-2.9804,-2.9804,-2.9804,-2.9804,-2.9804,-2.9804,-2.9804,-2.9804,-3.003,-3.0432,-3.0959,-3.121,-3.1486,-3.1763,-3.2089,-3.1913,-3.1361,-3.1135,-3.1185,-3.1336,-3.0859,-3.0658,-3.0583,-3.0357,-3.0055,-2.9854,0.0,0.0,0.0,0.0,0.0,0.0,0.0,0.0,0.0,0.0,0.0,0.0,0.0,0.0,0.0,0.0,-4.6411,0.0,0.0,0.0,0.0,-4.8912,-4.8534,-4.7568,-4.6041,-4.5134,-4.3061,-3.9745,-3.9831,-3.9823,-3.9712,-4.0466,-4.1709,-4.3215,-4.3011,-4.2387,-4.1473,-4.0913,-4.0769,-4.0895,-4.0202,-4.0242,-4.0717,-4.0989,-4.103,-4.0922,-4.1252,-4.154,-4.1745,-4.1851,-4.2258,-4.2531,-4.1373,-4.0867,0.0,0.0,0.0,-3.7411,-3.6963,-3.6635,-3.6727,-3.8091,-3.9262,-3.9906,-3.9236,-3.9589,-3.942,-3.7274,-3.663,-3.6145,-3.5262,-3.4412,-3.3897,-3.3897,-3.3319,-3.2692,-3.2265,-3.2466,-3.239,-3.1687,-3.1838,-3.1687,-3.0884,-3.0683,-3.0382,-2.9829,-2.9804,-2.9804,-2.9804,-2.9804,-2.9804,-2.9804,-2.9804,-2.9804,-2.9804,-2.9804,-2.9804,-2.9804,-2.9804,-3.0005,-3.0407,-3.0557,-3.0758,-3.1035,-3.1863,-3.2064,-3.1813,-3.1662,-3.1687,-3.1788,-3.1486,-3.116,-3.0809,-3.0658,-3.0256,-2.9804,0.0,0.0,0.0,0.0,0.0,0.0,0.0,0.0,0.0,0.0,0.0,0.0,-4.7782,-4.7679,-4.7057,-4.5502,-4.5399,-4.5503,-4.5889,-4.716,0.0,-4.7889,-4.8252,0.0,-4.6041,-4.4772,-4.289,-4.0355,-3.9123,-3.9365,-4.0989,-4.0408,-4.1163,-4.3005,-4.3127,-4.1986,-3.9915,-3.9739,-3.9796,-3.9805,-3.7872,-3.7995,-3.9251,-3.8621,-3.8854,-3.9502,-3.9392,-3.9744,-4.024,-4.0642,-4.1181,-4.1545,-4.0799,-4.0423,-4.0105,0.0,0.0,0.0,-3.5987,-3.6263,-3.6847,-3.6457,-3.7576,-3.8876,-3.914,-3.9161,-3.8807,-3.7512,-3.6995,-3.6416,-3.5192,-3.4402,-3.3897,-3.3897,-3.2968,-3.224,-3.2215,-3.1788,-3.1637,-3.2114,-3.1738,-3.1411,-3.1361,-3.0909,-3.0382,-2.9829,-2.9804,-2.9804,-2.9804,-2.9804,-2.9804,-2.9804,-2.9804,-2.9804,-2.9804,-2.9804,-2.9804,-2.9804,-2.9804,-2.9804,-2.9854,-3.0382,-3.0357,-2.9955,-3.1537,-3.2516,-3.2943,-3.239,-3.2491,-3.2893,-3.1813,-3.1361,-3.1286,-3.0809,-3.0256,-2.9854,0.0,0.0,0.0,0.0,0.0,0.0,0.0,0.0,0.0,0.0,0.0,0.0,0.0,-4.6632,-4.6213,-4.5264,-4.5267,-4.5346,-4.5451,-4.6149,0.0,-4.6773,-4.7019,-4.6558,-4.5255,-4.4272,-4.2356,-3.9518,-3.8762,-3.8391,-3.8362,-3.9159,-3.9654,-3.9973,-4.1429,-4.1342,-4.0114,-3.8996,-3.8693,-3.8937,-3.7404,-3.7344,-3.8183,-3.8306,-3.8091,-3.7828,-3.8466,-3.9184,-3.9854,-4.0051,-4.1013,-4.1911,-4.0839,-4.0301,-3.9893,-3.8768,-3.8084,-3.7628,-3.7626,-3.715,-3.6831,-3.7487,-3.806,-3.8371,-3.8056,-3.8376,-3.8217,-3.6429,-3.5939,-3.553,-3.4607,-3.4728,-3.4861,-3.4477,-3.4056,-3.3342,-3.2054,-3.2066,-3.1789,-3.0788,-3.0809,-3.0758,-3.0407,-3.0206,-3.0005,-2.9804,-2.9804,-2.9804,-2.9804,-2.9804,-2.9804,-2.9804,-2.9804,-2.9804,-2.9804,-2.9804,-2.9804,-2.9804,-2.9804,-2.9804,-2.9804,-3.0005,-3.0181,-3.0357,-3.0934,-3.1311,-3.1537,-3.2014,-3.2114,-3.1989,-3.1938,-3.1486,-3.0859,-3.0683,-3.0256,-2.9829,0.0,0.0,0.0,0.0,0.0,0.0,0.0,0.0,0.0,-4.768,0.0,0.0,0.0,0.0,-4.5354,-4.4659,-4.4783,-4.4892,-4.4892,-4.5241,-4.5589,-4.5768,-4.587,-4.5468,-4.4578,-4.3436,-4.1791,-3.9501,-3.8551,-3.7795,-3.731,-3.8164,-3.8551,-3.858,-3.977,-4.0276,-4.0109,-3.8686,-3.8487,-3.8942,-3.7157,-3.6923,-3.7682,-3.7585,-3.7388,-3.7186,-3.7636,-3.8427,-3.9283,-3.9314,-4.0072,-4.0832,-4.0037,-3.9494,-3.8982,-3.8261,-3.7963,-3.7958,-3.827,-3.7559,-3.6953,-3.7934,-3.7914,-3.7579,-3.7379,-3.7641,-3.7456,-3.5733,-3.5532,-3.5415,-3.4668,-3.5262,-3.551,-3.4516,-3.4411,-3.3904,-3.2311,-3.2069,-3.1708,-3.0828,-3.064,-3.0532,-3.0357,-3.0156,-2.998,-2.9804,-2.9804,-2.9804,-2.9804,-2.9804,-2.9804,-2.9804,-2.9804,-2.9804,-2.9804,-2.9804,-2.9804,-2.9804,-2.9804,-2.9804,-2.9804,-2.9804,-2.998,-3.0331,-3.0331,-3.0557,-3.0934,-3.1637,-3.1712,-3.1436,-3.1788,-3.1386,-3.0608,-3.0608,-3.0256,-2.9804,0.0,0.0,0.0,0.0,0.0,0.0,0.0,0.0,-4.7139,-4.7868,0.0,0.0,0.0,0.0,0.0,-4.3698,-4.3927,-4.4102,-4.4097,-4.4569,-4.4865,-4.4865,0.0,0.0,-4.4026,-4.2365,-4.1161,-4.0514,-3.8399,-3.7651,-3.8232,-3.7542,-3.7912,-3.9073,-3.8463,-3.8748,-3.9643,-3.881,-3.9076,-3.9795,-3.7009,-3.6639,-3.7641,-3.6374,-3.6701,-3.7627,-3.689,-3.7405,-3.8513,-3.8415,-3.8345,-3.8277,-3.835,-3.7904,-3.7358,-3.7387,-3.7943,-3.8377,0.0,0.0,0.0,-3.7514,-3.6965,-3.6501,-3.7188,-3.704,-3.6476,-3.5549,-3.5857,-3.6083,-3.5508,-3.588,-3.5747,-3.4028,-3.3865,-3.3713,-3.3078,-3.1814,-3.1377,-3.2476,-3.1454,-3.0834,-3.1311,-3.0909,-3.0382,-2.9829,-2.9804,-2.9804,-2.9804,-2.9804,-2.9804,-2.9804,-2.9804,-2.9804,-2.9804,-2.9804,-2.9804,-2.9804,-2.9804,-2.9804,-2.9804,-2.9804,-2.9804,-2.9804,-2.9804,-3.0382,-3.1336,-3.1361,-3.1361,-3.1336,-3.1361,-3.106,-3.0583,-3.0583,-3.0256,-2.9804,0.0,0.0,0.0,0.0,0.0,0.0,-4.8001,-4.7371,-4.6974,0.0,0.0,0.0,-4.5052,-4.4821,-4.4622,-4.439,-4.448,-4.4311,-4.378,-4.4093,-4.4406,-4.4597,-4.4818,-4.4646,-4.4169,-4.2557,-4.1271,-4.0347,-3.7873,-3.6655,-3.6567,-3.6134,-3.6119,-3.6496,-3.7215,-3.7536,-3.7461,-3.7214,-3.7733,-3.8551,-3.6488,-3.6394,-3.7332,-3.6516,-3.6424,-3.6681,-3.647,-3.7248,-3.8413,-3.8409,-3.8948,-3.9432,-3.8388,-3.7362,-3.6569,-3.6662,-3.7027,-3.7411,-3.7655,0.0,0.0,0.0,0.0,0.0,-3.6292,-3.5967,-3.5577,-3.5129,-3.4976,-3.5038,-3.5334,-3.588,-3.6143,-3.5646,-3.5239,-3.4896,-3.4603,-3.3291,-3.2433,-3.2647,-3.18,-3.1085,-3.0859,-3.0708,-3.0382,-2.9829,-2.9804,-2.9804,-2.9804,-2.9804,-2.9804,-2.9804,-2.9804,-2.9804,-2.9804,-2.9804,-2.9804,-2.9804,-2.9804,-2.9804,-2.9804,-2.9804,-2.9804,-2.9804,-2.9804,-2.9955,-3.0256,-3.0658,-3.0583,-3.0281,-3.0683,-3.0507,-3.003,-3.003,-2.993,-2.9804,0.0,0.0,0.0,0.0,0.0,-4.7825,-4.7844,-4.7257,-4.6803,0.0,0.0,0.0,-4.4717,-4.5009,-4.5102,-4.4754,-4.4688,-4.439,-4.3631,-4.3776,-4.3981,-4.4121,-4.4378,-4.4231,-4.3768,-4.2603,-4.1473,-4.0361,-3.8028,-3.6598,-3.6102,-3.5322,-3.5131,-3.5421,-3.6206,-3.6503,-3.6458,-3.6231,-3.6633,-3.7441,-3.6341,-3.648,-3.7273,-3.6867,-3.6867,-3.707,-3.6809,-3.7389,-3.8256,-3.8056,-3.8383,-3.8781,-3.76,-3.6723,-3.6177,-3.6243,-3.6442,-3.6723,-3.7175,-3.6896,-3.6617,-3.7217,0.0,0.0,-3.5491,-3.5058,-3.4596,-3.4006,-3.3747,-3.3819,-3.4491,-3.4898,-3.5299,-3.5822,-3.5654,-3.5485,-3.5625,-3.464,-3.3793,-3.3567,-3.2812,-3.1996,-3.1351,-3.1085,-3.0708,-3.0181,-2.993,-2.9804,-2.9804,-2.9804,-2.9804,-2.9804,-2.9804,-2.9804,-2.9804,-2.9804,-2.9804,-2.9804,-2.9804,-2.9804,-2.9804,-2.9804,-2.9804,-2.9804,-2.9804,-2.9804,-2.9804,-3.0131,-3.008,-2.9854,-3.0407,-3.0281,-2.9829,-3.0055,-3.0131,-3.0131,0.0,0.0,0.0,-4.7864,-4.758,-4.7444,-4.7555,-4.7076,-4.6734,0.0,-4.566,-4.483,-4.4908,-4.5563,-4.5603,-4.4741,-4.4574,-4.4243,-4.3542,-4.3446,-4.3446,-4.3568,-4.3717,-4.3598,-4.3113,-4.2545,-4.1671,-4.0542,-3.8497,-3.7123,-3.6384,-3.5037,-3.4719,-3.5305,-3.5363,-3.5683,-3.6054,-3.5561,-3.5752,-3.6324,-3.6293,-3.6657,-3.7266,-3.7266,-3.7643,-3.8115,-3.7535,-3.768,-3.8115,-3.7593,-3.736,-3.7215,-3.6606,-3.6283,-3.6103,-3.6014,-3.6097,-3.6193,-3.6415,-3.6076,-3.5889,-3.6808,-3.6105,0.0,-3.491,-3.4474,-3.3849,-3.2937,-3.2786,-3.3051,-3.3569,-3.3777,-3.4185,-3.5409,-3.5636,-3.5834,-3.6344,-3.576,-3.5208,-3.4971,-3.4153,-3.3301,-3.2424,-3.1804,-3.1235,-3.0658,-3.0105,-2.9804,-2.9804,-2.9804,-2.9804,-2.9804,-2.9804,-2.9804,-2.9804,-2.9804,-2.9804,-2.9804,-2.9804,-2.9804,-2.9804,-2.9804,-2.9804,-2.9804,-2.9804,-2.9804,-2.9804,-2.9804,-2.9804,-2.9854,-3.0407,-3.0306,-2.9955,-3.0507,-3.0658,-3.0633,0.0,0.0,-4.7286,-4.7519,-4.7148,-4.7003,-4.7517,-4.7076,-4.6892,-4.736,-4.6654,-4.6344,-4.6945,-4.619,-4.5409,-4.4689,-4.3981,-4.3356,-4.2839,-4.249,-4.2647,-4.3419,-4.3295,-4.3204,-4.3113,-4.2334,-4.1526,-4.0753,-3.856,-3.7123,-3.6384,-3.5037,-3.4486,-3.4632,-3.516,-3.5189,-3.4772,-3.5045,-3.5021,-3.4898,-3.5739,-3.6439,-3.7082,-3.7082,-3.7531,-3.8115,-3.7535,-3.768,-3.8173,-3.8057,-3.7709,-3.7273,-3.7157,-3.6736,-3.6166,-3.5676,-3.5619,-3.5688,-3.5679,-3.5829,-3.6047,-3.5921,-3.583,0.0,-3.5155,-3.5034,-3.485,-3.4166,-3.4681,-3.5102,-3.4699,-3.5304,-3.6064,-3.6807,-3.7157,-3.7285,-3.7136,-3.6408,-3.6003,-3.6398,-3.513,-3.399,-3.329,-3.2504,-3.1662,-3.0683,-3.0105,-2.9804,-2.9804,-2.9804,-2.9804,-2.9804,-2.9804,-2.9804,-2.9804,-2.9804,-2.9804,-2.9804,-2.9804,-2.9804,-2.9804,-2.9804,-2.9804,-2.9804,-2.9804,-2.9804,-2.9804,-2.9804,-2.9804,-2.9854,-3.0407,-3.0557,-3.0507,-3.106,-3.0984,-3.0683,-4.7737,-4.7168,-4.6837,-4.7389,-4.6906,-4.6671,-4.7332,-4.6893,-4.6585,-4.6893,-4.633,-4.5948,-4.6191,-4.5408,-4.46,-4.3863,-4.3106,0.0,0.0,-4.156,-4.1788,-4.2585,-4.2553,-4.2648,-4.2836,-4.2152,-4.1376,-4.0545,-3.8746,-3.7312,-3.629,-3.5267,-3.4493,-3.3964,-3.4603,-3.4545,-3.3993,-3.4398,-3.4312,-3.3974,-3.5439,-3.6238,-3.6722,-3.7358,-3.7866,-3.8173,-3.7854,-3.7941,-3.8202,-3.8202,-3.7999,-3.7767,-3.7767,-3.7331,-3.6664,-3.6025,-3.5659,-3.5453,-3.5115,-3.5237,-3.5392,-3.5292,-3.5287,0.0,0.0,-3.4381,-3.4196,-3.3581,-3.3587,-3.3797,-3.4149,-3.4466,-3.5175,-3.6656,-3.7165,-3.746,-3.7789,-3.7157,-3.6731,-3.6866,-3.5888,-3.5022,-3.4593,-3.3543,-3.2215,-3.0708,-3.0105,-2.9804,-2.9804,-2.9804,-2.9804,-2.9804,-2.9804,-2.9804,-2.9804,-2.9804,-2.9804,-2.9804,-2.9804,-2.9804,-2.9804,-2.9804,-2.9804,-2.9804,-2.9804,-2.9804,-2.9804,-2.9804,-2.9804,-2.988,-3.0683,-3.1009,-3.106,-3.1612,-3.1637,-3.1461,-4.7638,-4.6963,-4.6542,-4.7038,-4.6528,-4.6243,-4.7006,0.0,-4.604,-4.5878,-4.5448,-4.5065,-4.482,-4.4273,-4.367,-4.2983,-4.2103,0.0,-4.091,-4.0755,-4.0868,-4.1369,-4.1692,-4.1981,-4.214,-4.181,-4.1195,-4.0212,-3.8745,-3.7406,-3.6164,-3.5397,-3.4541,-3.3641,-3.4196,-3.4105,-3.3574,-3.3926,-3.375,-3.3354,-3.4939,-3.5611,-3.5827,-3.706,-3.7548,-3.7586,-3.7843,-3.8052,-3.8202,-3.8202,-3.8202,-3.8202,-3.8202,-3.7883,-3.736,-3.6693,-3.6141,-3.5659,-3.5151,-3.5132,-3.5229,-3.507,-3.5062,-3.4873,0.0,0.0,0.0,-3.2928,-3.2528,-3.2591,-3.3427,-3.3606,-3.4198,-3.5987,-3.67,-3.7296,-3.8083,-3.7567,-3.7157,-3.7329,-3.6655,-3.6155,-3.6026,-3.442,-3.272,-3.1153,-3.0273,-2.9818,-2.9804,-2.9804,-2.9804,-2.9804,-2.9804,-2.9804,-2.9804,-2.9804,-2.9804,-2.9804,-2.9804,-2.9804,-2.9804,-2.9804,-2.9804,-2.9804,-2.9804,-2.9804,-2.9804,-2.9804,-2.9854,-3.003,-3.0909,-3.1235,-3.1311,-3.1863,-3.1989,-3.1938,-4.7208,-4.6442,-4.5693,-4.6146,-4.5785,0.0,0.0,0.0,-4.5132,-4.4359,-4.4549,-4.4761,-4.4714,-4.3589,-4.2801,-4.2733,-4.1071,-4.027,-4.077,-4.0152,-3.9791,-3.9955,-4.0849,-4.111,-4.0576,-4.096,-4.0795,-4.0028,-3.8184,0.0,0.0,0.0,-3.4337,-3.4013,-3.4269,-3.4201,-3.3865,-3.3888,-3.3577,-3.3079,-3.3732,-3.3762,-3.3577,-3.4744,-3.5182,-3.5327,-3.6609,-3.7529,-3.8202,-3.8202,-3.8202,-3.8202,-3.8202,-3.8144,-3.797,-3.7389,-3.7157,-3.6954,-3.6286,-3.6697,-3.6986,-3.5815,-3.5956,-3.6073,-3.4873,0.0,-3.4937,-3.3959,0.0,-3.5078,-3.405,0.0,0.0,-3.5462,-3.663,-3.7498,-3.7431,-3.6847,-3.7042,-3.8663,-3.7694,-3.7086,-3.7491,-3.4831,-3.287,-3.2489,-3.0958,-2.9972,-2.9804,-2.9804,-2.9804,-2.9804,-2.9804,-2.9804,-2.9804,-2.9804,-2.9804,-2.9804,-2.9804,-2.9804,-2.9804,-2.9804,-2.9804,-2.9804,-2.9804,-2.9804,-2.9804,-2.9804,-3.008,-3.0532,-3.0658,-3.0708,-3.0758,-3.1286,-3.1185,-3.0934,-4.6184,-4.4925,-4.3888,-4.4377,0.0,0.0,0.0,0.0,-4.5072,-4.4781,-4.4272,-4.4158,-4.4718,-4.3345,-4.2205,-4.1796,-4.0685,-3.9924,-3.9882,-3.9188,-3.9268,-4.0402,-4.0238,-4.0509,-4.1247,-4.0449,-3.9944,-3.9876,-3.7966,0.0,0.0,0.0,0.0,-3.4128,-3.4298,-3.3991,-3.3368,-3.3698,-3.3151,-3.2155,-3.2444,-3.2197,-3.1774,-3.3997,-3.4772,-3.485,-3.5118,-3.5447,-3.5911,-3.6694,-3.6987,-3.712,-3.7936,-3.8202,-3.8086,-3.7476,-3.7302,-3.7157,-3.6489,-3.659,-3.672,-3.6131,-3.5962,-3.5758,-3.5234,-3.4965,-3.4714,-3.4284,0.0,0.0,0.0,0.0,0.0,0.0,-3.6415,-3.6751,-3.7711,-3.6835,-3.6775,-3.8437,-3.7339,-3.6522,-3.6649,-3.4827,-3.3274,-3.2201,-3.1163,-3.0507,-3.0457,-3.0457,-3.0457,-3.0457,-3.0457,-3.0254,-2.9804,-2.9804,-2.9804,-2.9804,-2.9804,-2.9804,-2.9804,-2.9804,-2.9804,-2.9804,-2.9804,-2.9804,-2.9804,-2.9804,-2.993,-3.0131,-3.0131,-3.0507,-3.1135,-3.1662,-3.1738,-3.1662,-4.4402,-4.3412,-4.256,-4.2965,-4.2682,-4.2731,0.0,-4.3986,-4.4112,-4.4368,-4.3269,-4.2882,-4.3935,-4.2695,-4.1699,-4.1451,-4.0804,-4.0197,-3.9479,-3.8917,-3.899,-3.9955,-3.9512,-3.9757,-4.0905,-3.9893,-3.9469,0.0,0.0,0.0,0.0,0.0,0.0,0.0,-3.449,-3.4031,-3.3122,-3.3723,-3.311,-3.1782,-3.173,-3.119,-3.0688,-3.2817,-3.3884,-3.4161,-3.3769,-3.3799,-3.4148,-3.5187,-3.5627,-3.5927,-3.695,-3.7387,-3.7377,-3.6949,-3.6835,-3.6721,-3.6339,-3.6298,-3.6322,-3.6115,-3.5825,-3.5497,-3.5183,-3.4864,-3.4661,-3.4661,-3.4457,0.0,0.0,0.0,0.0,0.0,0.0,-3.616,-3.7253,-3.6309,-3.6222,-3.8028,-3.7402,-3.6763,-3.6409,-3.5216,-3.396,-3.2691,-3.1809,-3.1304,-3.123,-3.123,-3.1119,-3.0932,-3.0895,-3.0545,-2.9804,-2.9804,-2.9804,-2.9804,-2.9804,-2.9804,-2.9804,-2.9804,-2.9804,-2.9804,-2.9804,-2.9804,-2.9804,-2.9804,-2.9804,-2.9804,-2.9955,-3.0407,-3.1009,-3.1562,-3.1763,-3.1888,-4.1732,-4.2043,-4.2322,-4.2322,-4.238,-4.2542,-4.2961,-4.2187,-4.1676,-4.2038,-4.0958,-4.0578,-4.1877,-4.1426,-4.1383,-4.2181,-4.172,-4.0985,-4.0118,-3.9673,-3.8835,-3.7484,-3.8502,-3.8829,-3.824,-3.9161,-3.9699,-3.9699,0.0,0.0,0.0,0.0,0.0,0.0,-3.5008,-3.4524,-3.362,-3.4159,-3.3701,-3.2493,-3.1784,-3.1149,-3.0583,-3.0673,-3.1598,-3.2791,-3.2765,-3.3286,-3.4017,-3.4055,-3.4399,0.0,0.0,-3.5286,-3.5709,-3.5682,-3.5654,-3.5722,-3.5961,-3.6279,-3.6392,-3.5619,-3.5711,-3.569,-3.465,-3.4893,-3.5363,-3.5363,-3.5793,-3.6228,-3.6257,0.0,0.0,0.0,0.0,0.0,0.0,-3.479,-3.5276,-3.7812,-3.8526,-3.8557,-3.7903,-3.6287,-3.516,-3.4928,-3.333,-3.2245,-3.2074,-3.2037,-3.1709,-3.0932,-3.0895,-3.0545,-2.9804,-2.9804,-2.9804,-2.9804,-2.9804,-2.9804,-2.9804,-2.9804,-2.9804,-2.9804,-2.9804,-2.9804,-2.9804,-2.9804,-2.9804,-2.9854,-3.0382,-3.0281,-2.9905,-3.0457,-3.0658,-3.0809,-4.0248,-4.0142,-4.022,-4.0359,-4.0173,-4.0153,-4.0543,-4.1044,-4.1383,-4.1579,-4.0797,-4.0831,-4.2323,-4.1911,-4.1324,-4.0835,-4.1209,-4.0986,-3.9893,-3.9881,-4.008,-4.0466,-4.0023,-3.9862,-4.0003,-3.9505,-3.9234,-3.9157,-3.7763,0.0,0.0,0.0,0.0,0.0,-3.5245,-3.4553,-3.3639,-3.4174,-3.3262,-3.1436,-3.0843,-3.057,-3.0608,-3.0608,-3.0907,-3.1247,-3.093,-3.0971,0.0,-3.2287,-3.2718,-3.3034,-3.3989,-3.4387,-3.4512,-3.4512,-3.4811,-3.5071,0.0,0.0,-3.5876,-3.5645,-3.5405,-3.5155,-3.4928,-3.5039,-3.5253,-3.5357,-3.588,-3.6315,-3.6315,0.0,0.0,0.0,0.0,0.0,0.0,-3.543,-3.6042,-3.7178,-3.7954,-3.7997,-3.6877,-3.6247,-3.5331,-3.3902,-3.3283,0.0,-3.2826,-3.2826,-3.272,-3.2434,-3.2407,-3.1819,-3.0545,-3.0507,-3.0266,-2.9804,-2.9804,-2.9804,-2.9804,-2.9804,-2.9804,-2.9804,-2.9804,-2.9804,-2.9804,-2.9804,-2.9804,-2.9854,-3.0407,-3.0507,-3.0457,-3.1336,-3.1436,-3.1286,-3.9967,-3.9341,-3.9053,-3.9265,-3.9077,-3.9022,-3.935,-4.0054,-4.0733,-4.1187,-4.0518,-4.0589,-4.2221,-4.1818,-4.1066,-4.0164,-4.084,-4.0884,-3.9775,-3.9833,-4.0406,-4.1366,-4.0554,-4.0198,-4.038,-3.9912,-3.9546,-3.9247,-3.8297,-3.7912,0.0,0.0,0.0,0.0,-3.5784,-3.4949,-3.3798,-3.4401,-3.3542,-3.1798,-3.0916,-3.0576,-3.0583,-3.0407,-3.0432,-3.0532,0.0,-2.9804,-2.9945,-3.0855,-3.1306,-3.1591,-3.2474,-3.2932,-3.3091,-3.3091,-3.3291,-3.3635,-3.3953,-3.4233,0.0,-3.5008,-3.4992,0.0,-3.5074,-3.5523,-3.5912,-3.5948,-3.6512,-3.6983,-3.6983,0.0,0.0,0.0,0.0,0.0,0.0,-3.5542,-3.64,-3.6607,-3.7506,-3.765,-3.6507,-3.6029,-3.5248,-3.4002,-3.3528,-3.3397,0.0,-3.3851,-3.386,-3.355,-3.3578,-3.2944,-3.1633,-3.1149,-3.0658,-3.0177,-2.9934,-2.9804,-2.9804,-2.9804,-2.9804,-2.9804,-2.9804,-2.9804,-2.9804,-2.9804,-2.9905,-3.0131,-3.0683,-3.0884,-3.1009,-3.1888,-3.2114,-3.2089,-4.0703,-3.9558,-3.8922,-3.9032,-3.9086,-3.9188,-3.9304,-3.9222,-3.9546,-4.0634,-3.9833,-3.9774,-4.129,-4.0995,-4.0535,-4.0065,-4.0555,-4.0513,-3.9662,-3.9676,-3.9839,-4.0087,-4.0137,-3.9915,-3.9305,-4.04,-4.0644,-3.991,-3.9367,0.0,0.0,0.0,0.0,0.0,-3.6536,-3.5754,-3.4243,-3.4784,-3.4487,-3.3507,-3.1943,-3.106,-3.0583,-3.0005,-3.0131,-3.0532,-2.998,-2.9804,-2.9804,-2.9804,-3.0131,-3.0583,-3.0583,-3.0909,-3.1311,-3.1311,-3.1336,-3.1543,-3.2304,-3.2418,-3.2607,-3.3777,-3.4424,0.0,0.0,0.0,-3.7098,-3.6979,-3.7581,-3.8127,-3.8098,0.0,0.0,0.0,0.0,0.0,0.0,-3.5088,-3.6229,-3.6144,-3.7126,-3.7476,-3.6692,-3.5676,-3.5087,-3.5112,-3.4116,-3.379,-3.437,-3.5009,-3.5043,-3.4305,-3.4297,-3.3899,-3.3033,-3.1697,-3.0959,-3.0872,-3.0164,-2.9804,-2.9804,-2.9804,-2.9804,-2.9804,-2.9804,-2.9804,-2.9804,-2.9804,-3.0131,-3.0658,-3.1185,-3.1411,-3.1537,-3.2039,-3.2566,-3.3111,-4.0487,-3.9959,-3.9586,-3.8956,-3.9139,-3.9143,-3.864,-3.8644,-3.8812,-3.9272,-3.8897,-3.8836,-3.9499,-3.9498,-3.8989,-3.8018,-3.8752,-3.8965,-3.8317,-3.9605,-4.0379,-4.0491,-4.1213,-4.1279,-4.0641,-4.0916,-4.0754,-4.0059,-3.9466,0.0,-3.9354,0.0,0.0,0.0,-3.6773,-3.6248,-3.5488,-3.5142,-3.4076,-3.249,-3.1297,-3.0959,-3.1085,-3.0156,-3.0131,-3.0532,-2.998,-2.9804,-2.9804,-2.9804,-2.988,-3.0005,-3.0005,-3.0105,-3.0206,-3.0206,-3.0482,-3.0859,-3.1065,-3.1372,-3.1968,-3.3391,-3.3452,-3.3632,0.0,0.0,0.0,0.0,0.0,0.0,0.0,0.0,0.0,0.0,0.0,0.0,-3.4855,-3.5327,-3.589,-3.6595,-3.666,-3.6353,-3.5646,-3.5753,-3.535,-3.4058,-3.396,-3.409,-3.4366,-3.4906,-3.5148,-3.5113,-3.551,-3.5091,-3.3685,-3.2863,-3.1853,-3.0671,-3.0097,-2.9804,-2.9804,-2.9804,-2.9804,-2.9804,-2.9804,-2.9804,-2.9804,-2.9804,-3.0131,-3.0658,-3.1185,-3.1913,-3.2616,-3.2315,-3.2566,-3.3111,-4.0724,-3.9765,-3.9024,-3.8504,-3.8626,-3.8648,-3.8212,-3.8479,-3.8681,-3.846,-3.85,-3.8585,-3.8666,-3.8592,-3.814,-3.7262,-3.769,-3.7908,-3.7802,-3.881,-3.9738,-4.056,-4.1141,-4.1331,-4.1105,-4.1105,-4.0731,-4.0041,-3.9479,0.0,-3.9132,0.0,0.0,0.0,-3.7258,-3.6768,-3.592,-3.511,-3.3912,-3.2491,-3.1386,-3.1135,0.0,-3.0206,-2.998,-3.0206,-2.9905,-2.9804,-2.9804,-2.9804,-2.9804,-2.9804,-2.9804,-2.9804,-2.9804,-2.9804,-3.0005,-3.0306,-3.0557,-3.0658,-3.1052,-3.2435,-3.252,-3.2702,-3.4224,-3.4687,-3.4892,0.0,-3.6153,-3.6799,0.0,0.0,0.0,-3.5096,0.0,-3.4534,-3.4905,-3.5204,-3.5593,-3.6102,-3.5976,-3.5575,-3.4817,-3.51,-3.4676,-3.3187,-3.3545,0.0,0.0,-3.4987,-3.5623,-3.5658,-3.6367,-3.6286,-3.5405,-3.4053,-3.2787,-3.1629,-3.0634,-3.003,-2.9804,-2.9804,-2.9804,-2.9804,-2.9804,-2.9804,-2.9804,-2.9804,-3.0256,-3.1035,-3.1813,-3.2516,-3.3086,-3.2717,-3.2792,-3.3111,-4.111,-3.9438,-3.8121,-3.7933,-3.7986,-3.799,-3.783,-3.8417,-3.8668,-3.8056,-3.8319,-3.8477,-3.8258,-3.8037,-3.7688,-3.7136,-3.7086,-3.7242,-3.7572,-3.7704,-3.8541,-4.0173,-4.0475,-4.0759,-4.1018,-4.1094,-4.0802,-4.0127,-3.9516,0.0,0.0,0.0,0.0,0.0,-3.7708,-3.7109,-3.5784,-3.4913,-3.3968,-3.3036,-3.1938,-3.1461,-3.1286,-3.0281,-2.9854,-2.9804,-2.9804,-2.9804,-2.9804,-2.9804,-2.9804,-2.9804,-2.9804,-2.9804,-2.9804,-2.9804,-2.9804,-2.9905,-3.0382,-3.0156,-3.0073,-3.1292,-3.1691,-3.1947,-3.2568,-3.3603,-3.4386,-3.4297,-3.5456,-3.647,0.0,0.0,0.0,-3.4719,-3.4603,-3.4661,-3.4661,-3.5171,-3.5475,-3.535,-3.5386,0.0,-3.4278,-3.4214,-3.3782,-3.2719,-3.3206,-3.3487,0.0,0.0,-3.6143,-3.6036,-3.6968,-3.7345,-3.7271,-3.5093,-3.3664,-3.2928,-3.1357,-3.0331,-2.9804,-2.9804,-2.9804,-2.9804,-2.9804,-2.9829,-2.9905,-2.9905,-3.0532,-3.1612,-3.2667,-3.3111,-3.3111,-3.3111,-3.3111,-3.3136,-4.0924,-3.9922,-3.906,-3.799,-3.8069,-3.8044,-3.7356,-3.7565,-3.799,-3.8254,-3.7855,-3.7482,-3.7434,-3.7385,-3.7111,-3.6606,-3.6556,-3.6553,-3.664,-3.7361,-3.7933,-3.8296,-3.9782,-4.0632,-4.0718,-4.097,-4.1029,-4.0916,-3.9751,0.0,0.0,0.0,0.0,-3.7295,-3.7528,-3.6721,-3.5157,-3.5157,-3.435,-3.3061,-3.234,-3.1788,-3.1311,-3.0708,-3.0181,-2.9804,-2.9804,-2.9804,-2.9804,-2.9804,-2.9804,-2.9804,-2.9804,-2.9804,-2.9804,-2.9804,-2.9804,-2.9804,-2.9905,-2.9854,-2.9997,-3.0837,-3.1052,-3.1382,-3.2674,-3.2577,-3.237,-3.2935,-3.3608,-3.4166,-3.4376,0.0,0.0,-3.5363,-3.5648,-3.5967,-3.5967,-3.6073,-3.6113,-3.5963,-3.5599,-3.5091,-3.4275,-3.4303,-3.4064,-3.3387,-3.3638,-3.3916,0.0,0.0,-3.5993,0.0,-3.7382,-3.769,0.0,0.0,-3.4026,-3.2764,-3.1286,-3.0331,-2.9804,-2.9804,-2.9804,-2.9804,-2.9804,-3.0055,-3.0457,-3.0457,-3.111,-3.2139,-3.2817,-3.3111,-3.3111,-3.3111,-3.3111,-3.3144,-4.026,-3.9242,-3.8496,-3.8144,-3.8114,-3.8023,-3.7648,-3.768,-3.7655,-3.7169,-3.702,-3.6824,-3.6572,-3.6679,-3.6533,-3.5981,-3.5931,-3.5931,-3.5931,-3.6349,-3.6959,-3.775,-3.8675,-3.9607,-4.0603,-4.012,-4.0072,-4.0583,-3.9305,0.0,0.0,0.0,0.0,-3.6971,-3.6627,-3.5979,-3.5128,-3.48,-3.4079,-3.3061,-3.2441,-3.1888,-3.1336,-3.0809,-3.0281,-2.9804,-2.9804,-2.9804,-2.9804,-2.9804,-2.9804,-2.9804,-2.9804,-2.9804,-2.9804,-2.9804,-2.9804,-2.9804,-2.9804,-2.9804,-2.9895,-3.0228,-3.0343,-3.0496,-3.1173,-3.1229,-3.1226,-3.1547,-3.2394,-3.3397,-3.4403,-3.5096,0.0,0.0,-3.5983,-3.5948,-3.6722,-3.6519,-3.6306,-3.6201,-3.5735,-3.5263,-3.4857,-3.4597,-3.4022,-3.3035,-3.3609,-3.3945,0.0,0.0,-3.5993,0.0,0.0,0.0,-3.6883,0.0,-3.4499,-3.3131,-3.1705,-3.0733,-3.0206,-2.993,-2.9804,-2.9804,-3.0105,-3.0357,-3.0658,-3.121,-3.1738,-3.2265,-3.2842,-3.3111,-3.3111,-3.3111,-3.3269,-3.3545,-3.9659,-3.862,-3.7956,-3.826,-3.8163,-3.7965,-3.7839,-3.7839,-3.741,-3.6315,-3.6438,-3.6463,-3.6058,-3.6146,-3.6056,-3.5708,-3.5558,-3.5533,-3.5658,-3.5683,-3.6231,-3.7428,-3.7684,-3.8496,-4.0,-3.9089,-3.9012,-3.9812,-3.8649,0.0,0.0,0.0,0.0,0.0,-3.5759,-3.5234,0.0,0.0,-3.3709,-3.3061,-3.2441,-3.1888,-3.1336,-3.0809,-3.0281,-2.9804,-2.9804,-2.9804,-2.9804,-2.9804,-2.9804,-2.9804,-2.9804,-2.9804,-2.9804,-2.9804,-2.9804,-2.9804,-2.9804,-2.9804,-2.9804,-2.9804,-2.9804,-2.9804,-2.9804,-3.0131,-3.0432,-3.0432,-3.1652,-3.3118,-3.4396,-3.4956,0.0,0.0,0.0,-3.6375,-3.7527,-3.7244,-3.6838,-3.6548,-3.6083,-3.5712,-3.5421,-3.4922,-3.408,-3.2832,-3.3561,-3.3897,-3.3475,0.0,0.0,0.0,0.0,-3.7663,-3.6648,0.0,-3.4888,-3.3483,-3.2087,-3.111,-3.0608,-3.0156,-2.9955,-3.0005,-3.0557,-3.0834,-3.1035,-3.1989,-3.239,-3.2441,-3.2893,-3.3111,-3.3093,-3.3219,-3.352,-3.3922,-3.9717,-3.9194,-3.8617,-3.814,-3.8015,-3.7839,-3.7337,-3.7262,-3.7211,-3.7109,-3.6681,-3.638,-3.6329,-3.5881,-3.5805,-3.6279,-3.583,-3.5708,-3.6304,-3.6329,-3.6402,-3.6546,-3.7361,-3.7887,-3.8069,-3.8209,-3.8473,-3.8858,-3.797,-3.7416,0.0,0.0,0.0,0.0,0.0,0.0,0.0,-3.4131,-3.3709,-3.3061,-3.2441,-3.1888,-3.1336,-3.0809,-3.0281,-2.9804,-2.9804,-2.9804,-2.9804,-2.9804,-2.9804,-2.9804,-2.9804,-2.9804,-2.9804,-2.9804,-2.9804,-2.9804,-2.9804,-2.9804,-2.9804,-2.9804,-2.9804,-2.9804,-2.9804,-2.9829,-2.9854,-2.9854,-3.1369,-3.2725,-3.2843,-3.4956,-3.6743,0.0,0.0,-3.8832,-3.9015,-3.8957,-3.8492,-3.736,-3.7157,-3.6664,-3.5508,-3.5334,-3.4782,-3.3503,-3.3854,-3.4133,0.0,0.0,0.0,-3.52,-3.695,-3.7263,-3.584,-3.5675,-3.4888,-3.3483,-3.2087,-3.111,-3.0608,-3.0557,-3.0532,-3.0557,-3.1085,-3.1612,-3.2114,-3.2742,-3.2993,-3.2993,-3.3068,-3.3111,-3.3187,-3.3646,-3.3847,-3.4048,-3.9956,-3.9399,-3.8793,-3.8567,-3.8241,-3.7814,-3.7262,-3.7186,-3.7061,-3.6782,-3.6556,-3.6279,-3.5906,-3.5981,-3.5855,-3.5429,-3.5433,-3.5583,-3.5855,-3.5881,-3.6006,-3.638,-3.6781,-3.7222,-3.7821,-3.7535,-3.7584,-3.7923,-3.7537,-3.7071,0.0,0.0,0.0,0.0,0.0,-3.399,-3.4063,-3.3666,-3.3326,-3.3061,-3.2441,-3.1888,-3.1336,-3.0809,-3.0281,-2.9804,-2.9804,-2.9804,-2.9804,-2.9804,-2.9804,-2.9804,-2.9804,-2.9804,-2.9804,-2.9804,-2.9804,-2.9804,-2.9804,-2.9804,-2.9804,-2.9804,-2.9804,-2.9804,-2.9804,-2.9804,-2.9804,-2.9804,-3.0911,-3.2049,-3.2567,-3.3741,-3.5385,-3.7718,0.0,0.0,-3.9489,-3.9073,-3.8289,-3.7418,-3.6954,-3.6489,-3.5996,-3.5625,-3.5334,-3.5183,-3.4865,-3.4393,0.0,0.0,0.0,-3.5654,0.0,-3.73,-3.5632,-3.5613,-3.4832,-3.3266,-3.2306,-3.1763,-3.1562,-3.1235,-3.126,-3.1587,-3.2337,-3.2978,-3.356,-3.4282,-3.433,-3.3852,-3.3852,-3.3581,-3.3144,-3.3696,-3.4098,-3.45,-3.9525,-3.9171,-3.8818,-3.8642,-3.814,-3.7638,-3.7236,-3.7036,-3.6857,-3.6455,-3.6279,-3.6031,-3.5805,-3.5981,-3.5805,-3.4981,-3.5282,-3.5508,-3.5508,-3.5658,-3.5956,-3.638,-3.6405,-3.6734,-3.7361,-3.6948,-3.6757,-3.6994,-3.6893,0.0,0.0,0.0,0.0,0.0,-3.3581,-3.3367,-3.3793,-3.3283,-3.3111,-3.3061,-3.2265,-3.1738,-3.1311,-3.0633,-3.0131,-2.9804,-2.9804,-2.9804,-2.9804,-2.9804,-2.9804,-2.9804,-2.9804,-2.9804,-2.9804,-2.9804,-2.9804,-2.9804,-2.9804,-2.9804,-2.9804,-2.9804,-2.9804,-2.9804,-2.9804,-2.9804,-2.9804,-2.9804,-3.0532,-3.1413,-3.2183,-3.2794,-3.4211,-3.7346,0.0,0.0,0.0,-3.8513,-3.7796,-3.6917,-3.6649,-3.6447,-3.6208,-3.5838,-3.57,-3.5996,-3.5861,-3.527,0.0,0.0,0.0,0.0,0.0,0.0,-3.5663,-3.5627,-3.4924,-3.3471,-3.2617,-3.2215,-3.219,-3.1813,-3.1938,-3.2508,-3.311,-3.3757,-3.4439,-3.5006,-3.5047,-3.4744,-3.4744,-3.4204,-3.3573,-3.4241,-3.4597,-3.4781,-3.819,-3.8492,-3.8693,-3.8115,-3.7563,-3.7186,-3.7186,-3.6782,-3.6405,-3.6405,-3.5881,-3.5755,-3.6329,-3.5881,-3.5508,-3.5483,-3.5508,-3.5508,-3.5508,-3.6056,-3.6405,-3.6405,-3.6405,-3.6405,-3.6405,-3.6405,-3.6289,-3.6027,-3.5833,0.0,-3.5264,0.0,-3.4131,-3.4089,-3.3411,-3.3111,-3.3111,-3.3111,-3.3111,-3.3011,-3.1863,-3.1411,-3.126,-3.0206,-2.9804,-2.9804,-2.9804,-2.9804,-2.9804,-2.9804,-2.9804,-2.9804,-2.9804,-2.9804,-2.9804,-2.9804,-2.9804,-2.9804,-2.9804,-2.9804,-2.9804,-2.9804,-2.9804,-2.9804,-2.9804,-2.9804,-2.9804,-2.9804,-3.0231,-3.0783,-3.1326,-3.2551,-3.3916,-3.5152,0.0,0.0,0.0,-3.7368,-3.7332,-3.5896,-3.6466,-3.672,-3.6057,-3.6,-3.5812,-3.545,-3.6548,0.0,0.0,0.0,0.0,-3.6029,-3.723,0.0,-3.5718,-3.5675,-3.5277,-3.4356,-3.2886,-3.2215,-3.2215,-3.2215,-3.2516,-3.3111,-3.3111,-3.3598,-3.4397,-3.4397,-3.4883,-3.5588,-3.5588,-3.5087,-3.4486,-3.5609,-3.541,-3.4876,-3.8617,-3.8442,-3.8216,-3.804,-3.7563,-3.7061,-3.6732,-3.6531,-3.6405,-3.6405,-3.6207,-3.6182,-3.638,-3.5529,-3.4931,-3.4931,-3.5282,-3.5508,-3.5508,-3.5658,-3.5629,-3.5253,-3.5253,-3.5253,-3.5253,-3.5604,-3.5592,-3.5105,0.0,0.0,0.0,-3.4277,-3.3766,-3.3411,-3.3197,-3.3111,-3.3111,-3.3111,-3.2842,-3.2416,-3.1687,-3.1185,-3.0783,-3.0055,-2.9804,-2.9804,-2.9804,-2.9804,-2.9804,-2.9804,-2.9804,-2.9804,-2.9804,-2.9804,-2.9804,-2.9804,-2.9804,-2.9804,-2.9804,-2.9804,-2.9804,-2.9804,-2.9804,-2.9804,-2.9804,-2.9804,-2.9804,-2.9804,-3.0231,-3.0658,-3.0834,-3.1833,-3.3085,-3.4544,-3.4967,0.0,-3.6455,0.0,-3.5989,-3.5104,-3.5256,-3.5328,-3.5134,-3.5639,-3.5882,-3.5647,-3.6527,0.0,0.0,0.0,0.0,0.0,-3.6153,0.0,-3.4847,-3.4829,-3.4688,-3.4397,-3.3293,-3.2792,-3.2792,-3.2792,-3.3233,-3.4021,-3.4553,-3.5291,-3.6136,-3.6727,-3.6805,-3.652,-3.6976,-3.666,-3.596,-3.649,-3.6493,-3.6264,-3.8216,-3.8291,-3.814,-3.7487,-3.7287,-3.6985,-3.648,-3.6405,-3.6405,-3.6405,-3.6182,-3.6056,-3.6056,-3.5253,-3.468,-3.468,-3.4981,-3.5107,-3.4906,-3.5082,-3.5031,-3.468,-3.468,-3.468,-3.468,-3.5006,0.0,-3.4399,-3.4901,-3.4675,-3.3771,-3.3646,-3.3294,-3.2767,-3.2993,-3.2943,-3.2742,-3.2742,-3.2416,-3.1863,-3.1311,-3.0909,-3.0557,-3.0005,-2.9804,-2.9804,-2.9804,-2.9804,-2.9804,-2.9804,-2.9804,-2.9804,-2.9804,-2.9804,-2.9804,-2.9804,-2.9804,-2.9804,-2.9804,-2.9804,-2.9804,-2.9804,-2.9804,-2.9804,-2.9804,-2.9804,-2.9804,-2.9804,-3.0055,-3.0357,-3.0583,-3.1311,-3.2272,-3.3457,-3.3782,-3.4234,-3.5136,0.0,-3.4914,-3.4166,-3.4392,-3.459,0.0,-3.51,-3.5455,0.0,-3.6168,0.0,0.0,0.0,0.0,-3.5675,-3.5638,-3.5346,-3.4868,-3.4841,-3.4841,-3.4868,-3.4288,-3.4037,-3.4037,-3.3725,-3.4063,-3.4841,-3.5047,-3.5816,-3.6922,-3.7491,-3.7567,-3.7433,-3.8097,-3.7878,-3.714,-3.7779,-3.7555,-3.6992,-3.7287,-3.799,-3.8265,-3.6732,-3.6857,-3.7008,-3.648,-3.6405,-3.6405,-3.6405,-3.5906,-3.5558,-3.5558,-3.5056,-3.4776,-3.4776,0.0,0.0,-3.3997,-3.4399,-3.465,-3.46,-3.46,-3.46,-3.46,-3.465,-3.4424,-3.3947,-3.3395,-3.2867,-3.234,-3.2842,-3.2792,-3.229,-3.2792,-3.2717,-3.2215,-3.2164,-3.1838,-3.1286,-3.0809,-3.0583,-3.0507,-3.003,-2.9829,-2.9804,-2.988,-2.988,-2.9854,-2.9854,-2.9854,-2.9854,-2.9804,-2.9804,-2.9804,-2.9829,-2.9829,-2.9804,-2.988,-2.9854,-2.9804,-2.9854,-2.9829,-2.9804,-2.9854,-2.9829,-2.9804,-2.9854,-2.9829,-2.9955,-3.0457,-3.1009,-3.1562,-3.2064,-3.2641,-3.3061,-3.3061,-3.3716,-3.397,-3.3137,0.0,0.0,-3.4286,-3.4366,-3.47,0.0,0.0,0.0,0.0,0.0,-3.5503,-3.5521,-3.5467,-3.5427,-3.5427,-3.5427,-3.5427,-3.5427,-3.5548,-3.5548,-3.5427,-3.4688,-3.4797,-3.5521,-3.4839,-3.5453,-3.6968,-3.6989,-3.7519,-3.8347,-3.9015,-3.8781,-3.8251,-3.9339,-3.8699,-3.7314,-3.7136,-3.7109,-3.7008,-3.6985,-3.6807,-3.6556,-3.643,-3.6405,-3.6405,-3.6405,-3.6304,-3.6182,-3.6182,-3.568,-3.5307,-3.5307,-3.4931,-3.4675,-3.4525,-3.4248,-3.3897,-3.3495,-3.347,-3.347,-3.347,-3.3872,-3.4248,-3.4525,-3.3972,-3.3646,-3.3495,-3.3219,-3.2993,-3.2867,-3.2541,-3.234,-3.219,-3.1763,-3.1286,-3.0783,-3.0658,-3.0357,-3.003,-3.0306,-3.0156,-2.9905,-3.0708,-3.0758,-3.0407,-3.0407,-3.0407,-3.0357,-2.993,-2.9804,-2.988,-3.0306,-3.0131,-2.998,-3.0783,-3.0407,-2.9905,-3.0306,-3.0105,-2.9905,-3.0331,-3.0105,-2.9905,-3.0331,-3.008,-2.9829,-2.9955,-3.0758,-3.1436,-3.1562,-3.2064,-3.2416,-3.2416,-3.2584,-3.2659,0.0,-3.3013,-3.342,-3.342,-3.4022,-3.4222,0.0,0.0,-3.438,-3.3732,-3.3683,-3.4015,-3.4635,-3.4037,-3.3683,-3.3683,-3.3683,-3.3683,-3.3725,-3.4979,-3.4938,-3.3683,-3.3929,-3.4495,-3.5336,-3.5797,-3.6607,-3.7585,-3.7806,-3.8303,-3.9015,-3.9654,-4.0058,-4.0337,-4.0378,-4.0122,-3.9648,-3.7186,-3.7136,-3.7061,-3.6883,-3.6832,-3.6707,-3.6455,-3.6405,-3.6405,-3.6405,-3.6405,-3.6405,-3.6405,-3.6107,-3.5906,-3.5906,-3.4951,-3.4349,-3.4349,-3.3822,-3.3395,-3.3093,-3.3111,-3.3111,-3.3111,-3.337,-3.3671,-3.3972,-3.3671,-3.3395,-3.3119,-3.3093,-3.2835,-3.229,-3.224,-3.1938,-3.1461,-3.116,-3.0733,-3.0231,-3.0231,-3.0055,-2.9829,-3.0131,-3.0206,-3.0256,-3.0834,-3.1009,-3.0959,-3.0959,-3.0959,-3.0884,-3.0331,-3.0181,-3.0231,-3.0532,-3.0407,-3.0357,-3.116,-3.0959,-3.0608,-3.0884,-3.0758,-3.0608,-3.0909,-3.0733,-3.0608,-3.0909,-3.0733,-3.0457,-3.0206,-3.1035,-3.1612,-3.111,-3.1687,-3.2114,-3.1863,-3.2064,-3.2215,-3.2215,-3.2717,-3.3111,-3.3111,-3.3539,-3.3597,-3.3122,-3.3555,0.0,-3.3139,-3.3097,-3.3334,-3.381,-3.3368,-3.3111,-3.3111,-3.3496,-3.3894,-3.422,-3.5183,-3.5262,-3.4663,-3.4547,-3.5107,-3.6199,-3.6707,-3.7236,-3.7866,-3.8716,-3.9131,-3.9305,-4.0205,-4.0786,-4.1123,-4.1235,-4.0972,-4.0518,-3.7161,-3.7437,-3.7462,-3.6581,-3.6807,-3.6958,-3.648,-3.6405,-3.6405,-3.6405,-3.6405,-3.6405,-3.6405,-3.6405,-3.6405,-3.6405,-3.4926,-3.4022,-3.4022,-3.342,-3.3111,-3.3111,-3.3111,-3.3111,-3.3111,-3.3111,-3.3111,-3.3111,-3.3111,-3.2817,-3.2365,-3.2842,-3.2566,-3.1662,-3.2039,-3.1662,-3.0733,-3.0658,-3.0357,-2.9905,-2.9829,-2.9854,-2.9905,-2.9905,-3.0206,-3.0633,-3.0809,-3.1135,-3.1512,-3.1512,-3.1461,-3.1311,-3.0783,-3.0557,-3.0507,-3.0583,-3.0608,-3.0733,-3.1361,-3.1512,-3.1486,-3.1411,-3.1336,-3.1311,-3.1486,-3.1386,-3.1286,-3.1361,-3.1386,-3.1235,-3.0708,-3.1411,-3.1813,-3.0984,-3.1486,-3.1863,-3.1562,0.0,-3.2114,-3.2215,-3.2717,-3.3111,-3.3111,-3.3111,-3.3111,-3.3111,-3.3111,-3.3111,-3.3111,-3.3111,-3.3111,-3.3111,-3.3111,-3.3111,-3.3111,-3.4014,-3.4794,-3.5358,-3.548,-3.5831,-3.6261,-3.5457,-3.5858,-3.7107,-3.723,-3.7494,-3.7985,-3.9333,-3.9739,-3.9596,-4.067,-4.1163,-4.1308,-4.1889,-4.1577,-4.0817,-3.6556,-3.6606,-3.6606,-3.643,-3.648,-3.6505,-3.643,-3.6405,-3.6405,-3.6405,-3.6405,-3.6405,-3.6405,-3.6405,-3.6405,-3.6405,-3.5278,-3.46,-3.46,-3.3646,-3.3111,-3.3111,-3.3111,-3.3111,-3.3111,-3.3111,-3.3111,-3.3111,-3.3111,-3.3043,-3.2943,-3.3086,-3.3036,-3.2835,-3.239,-3.1863,-3.1235,-3.0809,-3.0557,-3.0457,-2.998,-3.008,-3.0482,-3.0482,-3.0532,-3.0733,-3.1637,-3.2014,-3.2089,-3.2089,-3.1763,-3.1311,-3.0783,-3.0306,-3.0005,-3.0482,-3.0608,-3.0834,-3.1813,-3.2089,-3.1964,-3.1512,-3.106,-3.0959,-3.1888,-3.1386,-3.0859,-3.1311,-3.1386,-3.1235,-3.0708,-3.111,-3.1612,-3.1913,-3.1336,-3.116,-3.1964,0.0,-3.1687,-3.2164,-3.2717,-3.3111,-3.3111,-3.3111,-3.3111,-3.3111,-3.3111,-3.3111,-3.3111,-3.3111,-3.3111,-3.3111,-3.3111,-3.3111,-3.3111,-3.4401,-3.4762,-3.4183,-3.4907,-3.5315,-3.5378,-3.497,-3.5314,-3.6201,-3.67,-3.7386,-3.8273,-3.874,-3.967,-4.0815,-4.1018,-4.1453,-4.1947,-4.2063,-4.2009,-4.1856,-3.6455,-3.6405,-3.6405,-3.6405,-3.6405,-3.6405,-3.6405,-3.6405,-3.6405,-3.6405,-3.6405,-3.6405,-3.6405,-3.6405,-3.6405,-3.6405,-3.5353,-3.468,-3.468,-3.3696,-3.3111,-3.3111,-3.3111,-3.3111,-3.3111,-3.3111,-3.3111,-3.3111,-3.3111,-3.3111,-3.3111,-3.3111,-3.2918,-3.2591,-3.234,-3.1913,-3.1361,-3.0834,-3.0783,-3.0959,-3.0131,-3.0281,-3.0959,-3.0382,-3.0708,-3.1512,-3.1712,-3.2164,-3.2641,-3.2315,-3.224,-3.2089,-3.0959,-3.0633,-3.0583,-3.0256,-3.0583,-3.1135,-3.1637,-3.1989,-3.2164,-3.1888,-3.1662,-3.1612,-3.2114,-3.1838,-3.1537,-3.1788,-3.2089,-3.2139,-3.1587,-3.1938,-3.219,-3.1838,-3.1361,0.0,-3.1712,-3.1562,-3.1587,-3.2139,-3.2717,-3.3111,-3.3111,-3.3111,-3.3111,-3.3111,-3.3111,-3.3111,-3.3111,-3.3111,-3.3111,-3.3111,-3.3111,-3.3111,-3.3111,-3.3725,-3.4005,-3.3897,-3.431,-3.4791,-3.5379,-3.5209,-3.5532,-3.6268,-3.7001,-3.74,-3.7616,-3.9142,-3.9969,-4.0453,-4.1278,-4.1831,-4.2092,-4.2092,-4.2092,-4.2067,-3.648,-3.6405,-3.6405,-3.6405,-3.6405,-3.6405,-3.6405,-3.6405,-3.6405,-3.6405,-3.6405,-3.6405,-3.6405,-3.6405,-3.6405,-3.6405,-3.5353,-3.468,-3.468,-3.3696,-3.3111,-3.3111,-3.3111,-3.3111,-3.3111,-3.3111,-3.3111,-3.3111,-3.3111,-3.3111,-3.3111,-3.3111,-3.2842,-3.2416,-3.2416,-3.2114,-3.1537,-3.1009,-3.111,-3.1486,-3.0407,-3.0633,-3.1486,-3.0532,-3.1009,-3.2164,-3.1738,-3.2215,-3.3061,-3.2566,-3.2616,-3.2667,-3.1386,-3.116,-3.121,-3.0256,-3.0482,-3.106,-3.1311,-3.1788,-3.219,-3.2064,-3.2114,-3.2215,-3.2215,-3.2215,-3.2215,-3.2215,-3.2667,-3.2893,-3.2315,-3.2566,-3.2641,-3.1888,0.0,-3.1486,-3.1738,-3.1662,-3.1788,-3.234,-3.2817,-3.3111,-3.3111,-3.3111,-3.3111,-3.3111,-3.3111,-3.3111,-3.3111,-3.3111,-3.3111,-3.3111,-3.3111,-3.3194,-3.3445,-3.3445,-3.3746,-3.4274,-3.4274,-3.4816,-3.5805,-3.5575,-3.5848,-3.6531,-3.7217,-3.7332,-3.7187,-3.9388,-4.0109,-4.0069,-4.1529,-4.2092,-4.2092,-4.1814,-4.1817,-4.1893,-3.6405,-3.6405,-3.6405,-3.6405,-3.6405,-3.6405,-3.6405,-3.6405,-3.6405,-3.6405,-3.6405,-3.6405,-3.6405,-3.6405,-3.6405,-3.6405,-3.5353,-3.468,-3.468,-3.3696,-3.3111,-3.3111,-3.3111,-3.3111,-3.3111,-3.3111,-3.3111,-3.3111,-3.3111,-3.3111,-3.3111,-3.3111,-3.3086,-3.3018,-3.3018,-3.2692,-3.2114,-3.1562,-3.1662,-3.2064,-3.0984,-3.1185,-3.2089,-3.1486,-3.1662,-3.2215,-3.2164,-3.2541,-3.3111,-3.3061,-3.2692,-3.2265,-3.2139,-3.1763,-3.1286,-3.0708,-3.0256,-3.0131,-3.111,-3.1788,-3.2089,-3.1587,-3.1838,-3.2215,-3.2215,-3.2215,-3.2215,-3.2215,-3.2667,-3.2893,-3.2315,-3.224,-3.2416,-3.2893,0.0,0.0,-3.286,-3.2491,-3.2365,-3.2943,-3.3043,-3.3111,-3.3111,-3.3111,-3.3111,-3.3111,-3.3111,-3.3111,-3.3111,-3.3111,-3.3111,-3.3111,-3.3111,-3.3571,-3.46,-3.46,-3.4831,-3.5382,-3.5382,-3.5841,-3.6709,-3.5897,-3.5943,-3.6741,-3.6574,-3.6964,-3.7789,-3.8872,-3.9798,-4.0632,-4.1702,-4.2092,-4.2009,-4.1057,-4.1083,-4.1415,-3.6405,-3.6405,-3.6405,-3.6405,-3.6405,-3.6405,-3.6405,-3.6405,-3.6405,-3.6405,-3.6405,-3.6405,-3.6405,-3.6405,-3.6405,-3.6405,-3.568,-3.5031,-3.4705,-3.3997,-3.3445,-3.3093,-3.3111,-3.3111,-3.3111,-3.3111,-3.3111,-3.3111,-3.3111,-3.3111,-3.3111,-3.3111,-3.3111,-3.3111,-3.3111,-3.2943,-3.2717,-3.2139,-3.224,-3.2641,-3.1537,-3.1763,-3.2641,-3.1738,-3.1964,-3.2692,-3.234,-3.2591,-3.3018,-3.2667,-3.2641,-3.2566,-3.1537,-3.1788,-3.239,-3.219,-3.1989,-3.1955,-3.2315,-3.2089,-3.1738,-3.1863,-3.2315,-3.2742,-3.2742,-3.3018,-3.3269,-3.3269,-3.3696,-3.3922,-3.337,-3.3269,-3.3219,-3.3093,0.0,-3.2164,-3.3011,-3.2566,-3.2416,-3.3061,-3.3111,-3.3111,-3.3111,-3.3111,-3.3111,-3.3111,-3.3111,-3.3111,-3.3111,-3.3111,-3.3395,-3.4073,-3.3771,-3.3796,-3.4198,-3.455,-3.4956,-3.5508,-3.5508,-3.5844,-3.6518,-3.6218,-3.6218,-3.6544,-3.6445,-3.6593,-3.6989,-3.7933,-3.8541,-3.9033,-4.0589,-4.0802,-4.0358,-4.0966,-4.0896,-4.0476,-3.6405,-3.6405,-3.6405,-3.6405,-3.6405,-3.6405,-3.6405,-3.6405,-3.6405,-3.6405,-3.6405,-3.6405,-3.6405,-3.6405,-3.6405,-3.6405,-3.5855,-3.5332,-3.4956,-3.4299,-3.3646,-3.3093,-3.3111,-3.3111,-3.3111,-3.3111,-3.3111,-3.3111,-3.3111,-3.3111,-3.3111,-3.3111,-3.3111,-3.3111,-3.3111,-3.3111,-3.3043,-3.2466,-3.2541,-3.3036,-3.2039,-3.2215,-3.2993,-3.2215,-3.239,-3.3061,-3.2616,-3.2742,-3.3061,-3.2616,-3.2867,-3.3144,-3.2014,-3.2416,-3.337,-3.3545,-3.3345,-3.3144,-3.3495,-3.2893,-3.2215,-3.2441,-3.3043,-3.3545,-3.337,-3.3771,-3.4148,-3.4148,-3.4449,-3.46,-3.4223,-3.4148,-3.3972,-3.342,-3.2993,-3.2817,-3.3086,-3.2742,-3.2641,-3.3043,-3.3111,-3.3111,-3.3111,-3.3111,-3.3111,-3.3111,-3.3244,-3.342,-3.3596,-3.342,-3.3771,-3.47,-3.4525,-3.4424,-3.4424,-3.4801,-3.5207,-3.5805,-3.5805,-3.6006,-3.6405,-3.6405,-3.6405,-3.6405,-3.6405,-3.6405,-3.6452,-3.7407,-3.7821,-3.7933,-3.9563,-3.9782,-3.9309,-4.0247,-4.026,-3.9741,-3.6405,-3.6405,-3.6405,-3.6405,-3.6405,-3.6405,-3.6405,-3.6405,-3.6405,-3.6405,-3.6405,-3.6405,-3.6405,-3.6405,-3.6405,-3.6405,-3.5855,-3.5508,-3.5483,-3.45,-3.3646,-3.3093,-3.3111,-3.3111,-3.3111,-3.3111,-3.3111,-3.3111,-3.3111,-3.3111,-3.3111,-3.3111,-3.3111,-3.3111,-3.3111,-3.3111,-3.3043,-3.2466,-3.2541,-3.3061,-3.2466,-3.2566,-3.3136,-3.3136,-3.3136,-3.3093,-3.3093,-3.3093,-3.3093,-3.3093,-3.3445,-3.3897,-3.3897,-3.3897,-3.4022,-3.4575,-3.3947,-3.3345,-3.4424,-3.4324,-3.3796,-3.3262,-3.3922,-3.4575,-3.4048,-3.4349,-3.4726,-3.4726,-3.4726,-3.4726,-3.4726,-3.4726,-3.455,-3.3997,-3.3897,-3.3721,-3.3212,-3.3136,-3.3136,-3.3136,-3.3111,-3.3111,-3.3136,-3.3136,-3.3136,-3.3093,-3.3596,-3.4148,-3.47,-3.4198,-3.4148,-3.468,-3.5207,-3.5508,-3.5508,-3.5508,-3.583,-3.6405,-3.6405,-3.6405,-3.6405,-3.6405,-3.6405,-3.6405,-3.6405,-3.6405,-3.6452,-3.7407,-3.7821,-3.7887,-3.881,-3.9166,-3.9158,-3.8774,-3.8929,-3.9228,-3.6405,-3.6405,-3.6405,-3.6405,-3.6405,-3.6405,-3.6405,-3.6405,-3.6405,-3.6405,-3.6405,-3.6405,-3.6405,-3.6405,-3.6405,-3.6405,-3.6254,-3.578,-3.4981,-3.4299,-3.3646,-3.3093,-3.3111,-3.3111,-3.3111,-3.3111,-3.3111,-3.3111,-3.3111,-3.3111,-3.3111,-3.3111,-3.3111,-3.3111,-3.3111,-3.3111,-3.3111,-3.2893,-3.2918,-3.3068,-3.2893,-3.3144,-3.3646,-3.3646,-3.3897,-3.4223,-3.4223,-3.4223,-3.4223,-3.4223,-3.4349,-3.455,-3.4881,-3.4731,-3.465,-3.5604,-3.5676,-3.55,-3.5827,-3.5801,-3.5403,-3.4474,-3.4731,-3.5207,-3.5056,-3.5479,-3.5881,-3.5881,-3.5881,-3.5755,-3.5332,-3.5257,-3.5082,-3.4575,-3.4474,-3.4424,-3.4248,-3.3897,-3.3646,-3.3646,-3.3319,-3.3262,-3.3621,-3.3646,-3.3822,-3.4198,-3.4374,-3.455,-3.468,-3.4575,-3.4726,-3.5232,-3.5408,-3.5683,-3.6107,-3.6107,-3.6207,-3.6405,-3.6405,-3.6405,-3.6405,-3.6405,-3.6405,-3.6405,-3.6405,-3.6405,-3.6405,-3.6687,-3.6803,-3.6896,-3.7841,-3.7795,-3.7371,-3.8678,-3.8626,-3.795,-3.6405,-3.6405,-3.6405,-3.6405,-3.6405,-3.6405,-3.6405,-3.6405,-3.6405,-3.6405,-3.6405,-3.6405,-3.6405,-3.6405,-3.6405,-3.6405,-3.6405,-3.5981,-3.5056,-3.468,-3.4299,-3.3746,-3.3721,-3.352,-3.3136,-3.3111,-3.3111,-3.3111,-3.3111,-3.3111,-3.3111,-3.3111,-3.3111,-3.3111,-3.3111,-3.3111,-3.3111,-3.3111,-3.3111,-3.3136,-3.3319,-3.347,-3.3596,-3.3822,-3.3972,-3.4073,-3.4073,-3.4073,-3.4098,-3.4324,-3.47,-3.5056,-3.5382,-3.5433,-3.5454,-3.5906,-3.6031,-3.6081,-3.6355,-3.6207,-3.5881,-3.5182,-3.5454,-3.5881,-3.5881,-3.6132,-3.6405,-3.6405,-3.6405,-3.6304,-3.5931,-3.5881,-3.568,-3.5082,-3.5006,-3.4931,-3.4705,-3.4424,-3.4148,-3.3922,-3.3796,-3.3771,-3.3897,-3.4098,-3.4449,-3.4956,-3.4806,-3.4901,-3.5353,-3.5177,-3.5257,-3.5855,-3.5881,-3.6031,-3.6405,-3.6405,-3.6405,-3.6405,-3.6405,-3.6405,-3.6405,-3.6405,-3.6405,-3.6405,-3.6405,-3.6405,-3.6405,-3.6405,-3.6405,-3.6452,-3.7036,-3.6896,-3.6553,-3.7986,-3.797,-3.7312,-3.6405,-3.6405,-3.6405,-3.6405,-3.6405,-3.6405,-3.6405,-3.6405,-3.6405,-3.6405,-3.6405,-3.6405,-3.6405,-3.6405,-3.6405,-3.6405,-3.6405,-3.6132,-3.5533,-3.5508,-3.5257,-3.4705,-3.468,-3.4248,-3.3244,-3.3219,-3.3212,-3.3111,-3.3162,-3.3162,-3.3111,-3.3111,-3.3111,-3.3111,-3.3111,-3.3111,-3.3111,-3.3111,-3.3111,-3.3162,-3.3621,-3.3545,-3.3194,-3.3696,-3.3621,-3.3219,-3.3219,-3.3219,-3.3294,-3.3796,-3.4675,-3.5508,-3.5508,-3.5906,-3.6304,-3.5755,-3.5583,-3.5683,-3.6279,-3.6006,-3.5583,-3.5583,-3.5981,-3.6405,-3.6355,-3.638,-3.6405,-3.6405,-3.6405,-3.6405,-3.6405,-3.6405,-3.6207,-3.5658,-3.5583,-3.5408,-3.4951,-3.4826,-3.46,-3.4098,-3.4449,-3.455,-3.4098,-3.455,-3.5031,-3.5533,-3.5152,-3.5303,-3.6355,-3.5881,-3.5855,-3.638,-3.6405,-3.6405,-3.6405,-3.6405,-3.6405,-3.6405,-3.6405,-3.6405,-3.6405,-3.6405,-3.6405,-3.6405,-3.6405,-3.6405,-3.6405,-3.6405,-3.6405,-3.6405,-3.6405,-3.6405,-3.648,-3.6985,-3.7186,-3.7262,-3.6405,-3.6405,-3.6405,-3.6405,-3.6405,-3.6405,-3.6405,-3.6405,-3.6405,-3.6405,-3.6405,-3.6405,-3.6405,-3.6405,-3.6405,-3.6405,-3.6405,-3.6132,-3.5533,-3.5508,-3.5257,-3.4705,-3.468,-3.46,-3.4374,-3.4374,-3.3947,-3.3111,-3.352,-3.3495,-3.3111,-3.3111,-3.3111,-3.3111,-3.3111,-3.3111,-3.3111,-3.3111,-3.3111,-3.3136,-3.3219,-3.3445,-3.3746,-3.3847,-3.4098,-3.4374,-3.4374,-3.4374,-3.4374,-3.45,-3.4956,-3.5508,-3.5508,-3.5906,-3.638,-3.6254,-3.6182,-3.6207,-3.638,-3.6329,-3.6182,-3.6182,-3.6329,-3.6304,-3.5805,-3.6056,-3.6405,-3.6405,-3.6405,-3.6405,-3.6405,-3.6405,-3.638,-3.6207,-3.6182,-3.6132,-3.6078,-3.5629,-3.5282,-3.5157,-3.4856,-3.4806,-3.5107,-3.568,-3.6103,-3.6229,-3.6128,-3.6153,-3.6405,-3.6304,-3.6279,-3.6405,-3.6405,-3.6405,-3.6405,-3.6405,-3.6405,-3.6405,-3.6405,-3.6405,-3.6405,-3.6405,-3.6405,-3.6405,-3.6405,-3.6405,-3.6405,-3.6405,-3.6405,-3.6405,-3.6405,-3.6405,-3.648,-3.6985,-3.7186,-3.7337,-3.6405,-3.6405,-3.6405,-3.6405,-3.6405,-3.6505,-3.6757,-3.6581,-3.6505,-3.6782,-3.6934,-3.6896,-3.6452,-3.6828,-3.6896,-3.6452,-3.6405,-3.6279,-3.5956,-3.5931,-3.5805,-3.5504,-3.5504,-3.5378,-3.5082,-3.5378,-3.4977,-3.3847,-3.3897,-3.3897,-3.3847,-3.3596,-3.347,-3.347,-3.347,-3.3319,-3.3111,-3.3111,-3.3111,-3.3093,-3.337,-3.3495,-3.3545,-3.3796,-3.3922,-3.3947,-3.3947,-3.4098,-3.4324,-3.4324,-3.4655,-3.5107,-3.5107,-3.5529,-3.5981,-3.5981,-3.5981,-3.6031,-3.6329,-3.6182,-3.5981,-3.5981,-3.6182,-3.6329,-3.6006,-3.6157,-3.6405,-3.6405,-3.6405,-3.6405,-3.6405,-3.6405,-3.6405,-3.6405,-3.6405,-3.6405,-3.6405,-3.6107,-3.583,-3.5533,-3.5529,-3.5604,-3.5906,-3.6182,-3.6405,-3.6405,-3.6405,-3.6405,-3.6405,-3.6405,-3.6405,-3.6405,-3.6405,-3.6405,-3.6405,-3.6405,-3.6405,-3.6405,-3.6405,-3.6405,-3.6405,-3.6405,-3.6405,-3.6405,-3.6405,-3.6405,-3.6405,-3.6405,-3.6405,-3.6405,-3.6405,-3.6405,-3.643,-3.6732,-3.7136,-3.7688,-3.6405,-3.6405,-3.6405,-3.6405,-3.6405,-3.6628,-3.7374,-3.7118,-3.7039,-3.7639,-3.7821,-3.765,-3.6734,-3.7176,-3.7268,-3.6452,-3.6405,-3.6405,-3.6405,-3.6405,-3.6405,-3.6405,-3.6405,-3.6157,-3.5633,-3.6132,-3.583,-3.468,-3.4349,-3.4374,-3.468,-3.4248,-3.4048,-3.4048,-3.4048,-3.3796,-3.3345,-3.3269,-3.3262,-3.3244,-3.3621,-3.3495,-3.3162,-3.3596,-3.347,-3.3111,-3.3111,-3.342,-3.3897,-3.3897,-3.4324,-3.4831,-3.4831,-3.5182,-3.5633,-3.5633,-3.5633,-3.578,-3.6279,-3.6031,-3.5633,-3.5633,-3.6031,-3.6405,-3.6405,-3.6405,-3.6405,-3.6405,-3.6405,-3.6405,-3.6405,-3.6405,-3.6405,-3.6405,-3.6405,-3.6405,-3.6405,-3.6405,-3.6182,-3.5683,-3.6081,-3.6405,-3.6405,-3.6405,-3.6405,-3.6405,-3.6405,-3.6405,-3.6405,-3.6405,-3.6405,-3.6405,-3.6405,-3.6455,-3.6556,-3.6455,-3.6455,-3.6556,-3.6455,-3.6405,-3.6405,-3.6405,-3.6405,-3.6405,-3.6405,-3.6405,-3.6405,-3.6405,-3.6405,-3.6405,-3.6405,-3.6455,-3.6581,-3.6757,-3.7362,-3.8241,-3.6405,-3.6405,-3.6405,-3.6405,-3.6405,-3.6912,-3.8345,-3.8512,-3.8786,-3.9677,-3.9064,-3.8318,-3.7664,-3.6989,-3.6546,-3.6405,-3.6405,-3.6405,-3.6405,-3.6405,-3.6405,-3.6405,-3.6405,-3.638,-3.6304,-3.638,-3.583,-3.468,-3.5082,-3.5082,-3.468,-3.465,-3.46,-3.46,-3.46,-3.4575,-3.4474,-3.3997,-3.3796,-3.3746,-3.3345,-3.3144,-3.3136,-3.3169,-3.3144,-3.3111,-3.3111,-3.342,-3.3897,-3.3897,-3.4575,-3.5382,-3.5382,-3.5805,-3.6304,-3.6304,-3.6304,-3.6329,-3.638,-3.6355,-3.6304,-3.6304,-3.6355,-3.6405,-3.6405,-3.6405,-3.6405,-3.6405,-3.6405,-3.6405,-3.6405,-3.6405,-3.6405,-3.6405,-3.6405,-3.6405,-3.6405,-3.6405,-3.638,-3.6304,-3.6355,-3.6405,-3.6405,-3.6405,-3.6405,-3.6405,-3.6405,-3.6405,-3.6405,-3.6405,-3.6405,-3.6405,-3.6405,-3.6631,-3.7061,-3.6656,-3.6656,-3.7061,-3.6631,-3.6405,-3.6405,-3.6405,-3.6405,-3.6405,-3.6405,-3.6405,-3.6405,-3.6405,-3.6405,-3.6405,-3.6405,-3.6707,-3.7186,-3.8215,-3.8668,-3.8894,-3.6405,-3.6405,-3.6505,-3.6807,-3.7308,-3.8157,-3.9468,-3.9926,-4.0226,-4.0575,-4.0459,-3.9861,-3.8711,-3.775,-3.7176,-3.7176,-3.6687,-3.6405,-3.6405,-3.6405,-3.6405,-3.6405,-3.6405,-3.6405,-3.6405,-3.6405,-3.6179,-3.5629,-3.5533,-3.5533,-3.5629,-3.5282,-3.5132,-3.5132,-3.5132,-3.4781,-3.4248,-3.3997,-3.3721,-3.342,-3.3212,-3.3111,-3.3111,-3.3111,-3.3111,-3.3111,-3.3111,-3.342,-3.3897,-3.3897,-3.4424,-3.5107,-3.5408,-3.5658,-3.5956,-3.6329,-3.6405,-3.6405,-3.6405,-3.6405,-3.6405,-3.6405,-3.6405,-3.6405,-3.6405,-3.6405,-3.6405,-3.6405,-3.6405,-3.6405,-3.6405,-3.6405,-3.6405,-3.6405,-3.6405,-3.6405,-3.6405,-3.6405,-3.6405,-3.6405,-3.6405,-3.6405,-3.6405,-3.6405,-3.6405,-3.6405,-3.6405,-3.6405,-3.6405,-3.6405,-3.6405,-3.6405,-3.6405,-3.6531,-3.6782,-3.6531,-3.6531,-3.6782,-3.6531,-3.6405,-3.6405,-3.6405,-3.6405,-3.6405,-3.6405,-3.6405,-3.6405,-3.6405,-3.6405,-3.6405,-3.6405,-3.6757,-3.7312,-3.8467,-3.8919,-3.8994]},{"header":{"parameterUnit":"m.s-1","parameterCategory":1,"la1":30.6,"la2":28.766,"lo1":-90.7593,"lo2":-88.6598,"dy":0.0162,"dx":0.0183,"nx":116,"ny":114,"refTime":"2024-03-13T18:00:00:Z","depth":0,"parameterNumber":3,"parameterNumberName":"V-component_of_WINDS"},"data":[0.0,0.0,0.0,0.0,0.0,0.0,0.0,0.0,0.0,0.0,0.0,0.0,0.0,0.0,0.0,0.0,0.0,0.0,0.0,0.0,0.0,0.0,0.0,0.0,0.0,0.0,0.0,0.0,0.0,0.0,0.0,0.0,0.0,0.0,0.0,0.0,0.0,0.0,0.0,0.0,0.0,0.0,0.0,0.0,0.0,0.0,0.0,0.0,0.0,0.0,0.0,0.0,0.0,0.0,0.0,0.0,0.0,0.0,0.0,0.0,0.0,0.0,0.0,0.0,0.0,0.0,0.0,0.0,0.0,0.0,0.0,0.0,0.0,0.0,0.0,0.0,0.0,0.0,0.0,0.0,0.0,0.0,0.0,0.0,0.0,0.0,0.0,0.0,0.0,0.0,0.0,0.0,0.0,0.0,0.0,0.0,0.0,0.0,0.0,0.0,0.0,0.0,0.0,0.0,0.0,0.0,0.0,0.0,0.0,0.0,0.0,0.0,0.0,0.0,0.0,0.0,0.0,0.0,0.0,0.0,0.0,0.0,0.0,0.0,0.0,0.0,0.0,0.0,0.0,0.0,0.0,0.0,0.0,0.0,0.0,0.0,0.0,0.0,0.0,0.0,0.0,0.0,0.0,0.0,0.0,0.0,0.0,0.0,0.0,0.0,0.0,0.0,0.0,0.0,0.0,0.0,0.0,0.0,0.0,0.0,0.0,0.0,0.0,0.0,0.0,0.0,0.0,0.0,0.0,0.0,0.0,0.0,0.0,0.0,0.0,0.0,0.0,0.0,0.0,0.0,0.0,0.0,0.0,0.0,0.0,0.0,0.0,0.0,0.0,0.0,0.0,0.0,0.0,0.0,0.0,0.0,0.0,0.0,0.0,0.0,0.0,0.0,0.0,0.0,0.0,0.0,0.0,0.0,0.0,0.0,0.0,0.0,0.0,0.0,0.0,0.0,0.0,0.0,0.0,0.0,0.0,0.0,0.0,0.0,0.0,0.0,0.0,0.0,0.0,0.0,0.0,0.0,0.0,0.0,0.0,0.0,0.0,0.0,0.0,0.0,0.0,0.0,0.0,0.0,0.0,0.0,0.0,0.0,0.0,0.0,0.0,0.0,0.0,0.0,0.0,0.0,0.0,0.0,0.0,0.0,0.0,0.0,0.0,0.0,0.0,0.0,0.0,0.0,0.0,0.0,0.0,0.0,0.0,0.0,0.0,0.0,0.0,0.0,0.0,0.0,0.0,0.0,0.0,0.0,0.0,0.0,0.0,0.0,0.0,0.0,0.0,0.0,0.0,0.0,0.0,0.0,0.0,0.0,0.0,0.0,0.0,0.0,0.0,0.0,0.0,0.0,0.0,0.0,0.0,0.0,0.0,0.0,0.0,0.0,0.0,0.0,0.0,0.0,0.0,0.0,0.0,0.0,0.0,0.0,0.0,0.0,0.0,0.0,0.0,0.0,0.0,0.0,0.0,0.0,0.0,0.0,0.0,0.0,0.0,0.0,0.0,0.0,0.0,0.0,0.0,0.0,0.0,0.0,0.0,0.0,0.0,0.0,0.0,0.0,0.0,0.0,0.0,0.0,0.0,0.0,0.0,0.0,0.0,0.0,0.0,0.0,0.0,0.0,0.0,0.0,0.0,0.0,0.0,0.0,0.0,0.0,0.0,0.0,0.0,0.0,0.0,0.0,0.0,0.0,0.0,0.0,0.0,0.0,0.0,0.0,0.0,0.0,0.0,0.0,0.0,0.0,0.0,0.0,0.0,0.0,0.0,0.0,0.0,0.0,0.0,0.0,0.0,0.0,0.0,0.0,0.0,0.0,0.0,0.0,0.0,0.0,0.0,0.0,0.0,0.0,0.0,0.0,0.0,0.0,0.0,0.0,0.0,0.0,0.0,0.0,0.0,0.0,0.0,0.0,0.0,0.0,0.0,0.0,0.0,0.0,0.0,0.0,0.0,0.0,0.0,0.0,0.0,0.0,0.0,0.0,0.0,0.0,0.0,0.0,0.0,0.0,0.0,0.0,0.0,0.0,0.0,0.0,0.0,0.0,0.0,0.0,0.0,0.0,0.0,0.0,0.0,0.0,0.0,0.0,0.0,0.0,0.0,0.0,0.0,0.0,0.0,0.0,0.0,0.0,0.0,0.0,0.0,0.0,0.0,0.0,0.0,0.0,0.0,0.0,0.0,0.0,0.0,0.0,0.0,0.0,0.0,0.0,0.0,0.0,0.0,0.0,0.0,0.0,0.0,0.0,0.0,0.0,0.0,0.0,0.0,0.0,0.0,0.0,0.0,0.0,0.0,0.0,0.0,0.0,0.0,0.0,0.0,0.0,0.0,0.0,0.0,0.0,0.0,0.0,0.0,0.0,0.0,0.0,0.0,0.0,0.0,0.0,0.0,0.0,0.0,0.0,0.0,0.0,0.0,0.0,0.0,0.0,0.0,0.0,0.0,0.0,0.0,0.0,0.0,0.0,0.0,0.0,0.0,0.0,0.0,0.0,0.0,0.0,0.0,0.0,0.0,0.0,0.0,0.0,0.0,0.0,0.0,0.0,0.0,0.0,0.0,0.0,0.0,0.0,0.0,0.0,0.0,0.0,0.0,0.0,0.0,0.0,0.0,0.0,0.0,0.0,0.0,0.0,0.0,0.0,0.0,0.0,0.0,0.0,0.0,0.0,0.0,0.0,0.0,0.0,0.0,0.0,0.0,0.0,0.0,0.0,0.0,0.0,0.0,0.0,0.0,0.0,0.0,0.0,0.0,0.0,0.0,0.0,0.0,0.0,0.0,0.0,0.0,0.0,0.0,0.0,0.0,0.0,0.0,0.0,0.0,0.0,0.0,0.0,0.0,0.0,0.0,0.0,0.0,0.0,0.0,0.0,0.0,0.0,0.0,0.0,0.0,0.0,0.0,0.0,0.0,0.0,0.0,0.0,0.0,0.0,0.0,0.0,0.0,0.0,0.0,0.0,0.0,0.0,0.0,0.0,0.0,0.0,0.0,0.0,0.0,0.0,0.0,0.0,0.0,0.0,0.0,0.0,0.0,0.0,0.0,0.0,0.0,0.0,0.0,0.0,0.0,0.0,0.0,0.0,0.0,0.0,0.0,0.0,0.0,0.0,0.0,0.0,0.0,0.0,0.0,0.0,0.0,0.0,0.0,0.0,0.0,0.0,0.0,0.0,0.0,0.0,0.0,0.0,0.0,0.0,0.0,0.0,0.0,0.0,0.0,0.0,0.0,0.0,0.0,0.0,0.0,0.0,0.0,0.0,0.0,0.0,0.0,0.0,0.0,0.0,0.0,0.0,0.0,0.0,0.0,0.0,0.0,0.0,0.0,0.0,0.0,0.0,0.0,0.0,0.0,0.0,0.0,0.0,0.0,0.0,0.0,0.0,0.0,0.0,0.0,0.0,0.0,0.0,0.0,0.0,0.0,0.0,0.0,0.0,0.0,0.0,0.0,0.0,0.0,0.0,0.0,0.0,0.0,0.0,0.0,0.0,0.0,0.0,0.0,0.0,0.0,0.0,0.0,0.0,0.0,0.0,0.0,0.0,0.0,0.0,0.0,0.0,0.0,0.0,0.0,0.0,0.0,0.0,0.0,0.0,0.0,0.0,0.0,0.0,0.0,0.0,0.0,0.0,0.0,0.0,0.0,0.0,0.0,0.0,0.0,0.0,0.0,0.0,0.0,0.0,0.0,0.0,0.0,0.0,0.0,0.0,0.0,0.0,0.0,0.0,0.0,0.0,0.0,0.0,0.0,0.0,0.0,0.0,0.0,0.0,0.0,0.0,0.0,0.0,0.0,0.0,0.0,0.0,0.0,0.0,0.0,0.0,0.0,0.0,0.0,0.0,0.0,0.0,0.0,0.0,0.0,0.0,0.0,0.0,0.0,0.0,0.0,0.0,0.0,0.0,0.0,0.0,0.0,0.0,0.0,0.0,0.0,0.0,0.0,0.0,0.0,0.0,0.0,0.0,0.0,0.0,0.0,0.0,0.0,0.0,0.0,0.0,0.0,0.0,0.0,0.0,0.0,0.0,0.0,0.0,0.0,0.0,0.0,0.0,0.0,0.0,0.0,0.0,0.0,0.0,0.0,0.0,0.0,0.0,0.0,0.0,0.0,0.0,0.0,0.0,0.0,0.0,0.0,0.0,0.0,0.0,0.0,0.0,0.0,0.0,0.0,0.0,0.0,0.0,0.0,0.0,0.0,0.0,0.0,0.0,0.0,0.0,0.0,0.0,0.0,0.0,0.0,0.0,0.0,0.0,0.0,0.0,0.0,0.0,0.0,0.0,0.0,0.0,0.0,0.0,0.0,0.0,0.0,0.0,0.0,0.0,0.0,0.0,0.0,0.0,0.0,0.0,0.0,0.0,0.0,0.0,0.0,0.0,0.0,0.0,0.0,0.0,0.0,0.0,0.0,0.0,0.0,0.0,0.0,0.0,0.0,0.0,0.0,0.0,0.0,0.0,0.0,0.0,0.0,0.0,0.0,0.0,0.0,0.0,0.0,0.0,0.0,0.0,0.0,0.0,0.0,0.0,0.0,0.0,0.0,0.0,0.0,0.0,0.0,0.0,0.0,0.0,0.0,0.0,0.0,0.0,0.0,0.0,0.0,0.0,0.0,0.0,0.0,0.0,0.0,0.0,0.0,0.0,0.0,0.0,0.0,0.0,0.0,0.0,0.0,0.0,0.0,0.0,0.0,0.0,0.0,0.0,0.0,0.0,0.0,0.0,0.0,0.0,0.0,0.0,0.0,0.0,0.0,0.0,0.0,0.0,0.0,0.0,0.0,0.0,0.0,0.0,0.0,0.0,0.0,0.0,0.0,0.0,0.0,0.0,0.0,0.0,0.0,0.0,0.0,0.0,0.0,0.0,0.0,0.0,0.0,0.0,0.0,0.0,0.0,0.0,0.0,0.0,0.0,0.0,0.0,0.0,0.0,0.0,0.0,0.0,0.0,0.0,0.0,0.0,0.0,0.0,0.0,0.0,0.0,0.0,0.0,0.0,0.0,0.0,0.0,0.0,0.0,0.0,0.0,0.0,0.0,0.0,0.0,0.0,0.0,0.0,0.0,0.0,0.0,0.0,0.0,0.0,0.0,0.0,0.0,0.0,0.0,0.0,0.0,0.0,0.0,0.0,0.0,0.0,0.0,0.0,0.0,0.0,0.0,0.0,0.0,0.0,0.0,0.0,0.0,0.0,0.0,0.0,0.0,0.0,0.0,0.0,0.0,0.0,0.0,0.0,0.0,0.0,0.0,0.0,0.0,0.0,0.0,0.0,0.0,0.0,0.0,0.0,0.0,0.0,0.0,0.0,0.0,0.0,0.0,0.0,0.0,0.0,0.0,0.0,0.0,0.0,0.0,0.0,0.0,0.0,0.0,0.0,0.0,0.0,0.0,0.0,0.0,0.0,0.0,0.0,0.0,0.0,0.0,0.0,0.0,0.0,0.0,0.0,0.0,0.0,0.0,0.0,0.0,0.0,0.0,0.0,0.0,0.0,0.0,0.0,0.0,0.0,0.0,0.0,0.0,0.0,0.0,0.0,0.0,0.0,0.0,0.0,0.0,0.0,0.0,0.0,0.0,0.0,0.0,0.0,0.0,0.0,0.0,0.0,0.0,0.0,0.0,0.0,0.0,0.0,0.0,0.0,0.0,0.0,0.0,0.0,0.0,0.0,0.0,0.0,0.0,0.0,0.0,0.0,0.0,0.0,0.0,0.0,0.0,0.0,0.0,0.0,0.0,0.0,0.0,0.0,0.0,0.0,0.0,0.0,0.0,0.0,0.0,0.0,0.0,0.0,0.0,0.0,0.0,0.0,0.0,0.0,0.0,0.0,0.0,0.0,0.0,0.0,0.0,0.0,0.0,0.0,0.0,0.0,0.0,0.0,0.0,0.0,0.0,0.0,0.0,0.0,0.0,0.0,0.0,0.0,0.0,0.0,0.0,0.0,0.0,0.0,0.0,0.0,0.0,0.0,0.0,0.0,0.0,0.0,0.0,0.0,0.0,0.0,0.0,0.0,0.0,0.0,0.0,0.0,0.0,0.0,0.0,0.0,0.0,0.0,0.0,0.0,0.0,0.0,0.0,0.0,3.9668,3.7919,0.0,0.0,0.0,0.0,0.0,0.0,0.0,0.0,0.0,0.0,0.0,0.0,0.0,0.0,0.0,0.0,0.0,0.0,0.0,0.0,0.0,0.0,0.0,0.0,0.0,0.0,2.6126,2.7305,2.787,2.8624,2.943,3.0234,2.9943,3.0465,3.2041,3.2578,3.3765,3.5553,3.5663,3.5858,3.6062,3.5728,3.4538,3.2597,0.0,0.0,0.0,0.0,0.0,0.0,0.0,0.0,0.0,0.0,0.0,0.0,0.0,0.0,0.0,0.0,0.0,0.0,0.0,0.0,0.0,0.0,0.0,0.0,0.0,0.0,0.0,0.0,0.0,0.0,0.0,0.0,0.0,0.0,0.0,0.0,0.0,0.0,0.0,0.0,0.0,0.0,0.0,0.0,0.0,0.0,0.0,0.0,0.0,0.0,0.0,0.0,0.0,0.0,0.0,0.0,0.0,0.0,0.0,0.0,0.0,0.0,0.0,0.0,0.0,0.0,0.0,0.0,0.0,0.0,4.3153,4.1231,0.0,0.0,0.0,0.0,0.0,0.0,0.0,0.0,0.0,0.0,0.0,0.0,0.0,0.0,0.0,0.0,0.0,0.0,0.0,0.0,0.0,0.0,0.0,2.5657,2.6072,2.597,2.7097,2.7985,2.8359,2.8691,2.9266,3.0256,3.0504,3.1414,3.3118,3.4735,3.6313,3.7869,3.7919,3.8375,3.9236,3.9772,3.856,3.6,3.4714,0.0,0.0,0.0,0.0,0.0,0.0,0.0,0.0,0.0,0.0,0.0,0.0,0.0,0.0,0.0,0.0,0.0,0.0,0.0,0.0,0.0,0.0,0.0,0.0,0.0,0.0,0.0,0.0,0.0,0.0,0.0,0.0,0.0,0.0,0.0,0.0,0.0,0.0,0.0,0.0,0.0,0.0,0.0,0.0,0.0,0.0,0.0,0.0,0.0,0.0,0.0,0.0,0.0,0.0,0.0,0.0,0.0,0.0,0.0,0.0,0.0,0.0,0.0,4.8718,4.9146,5.0129,4.9573,4.9278,4.9177,4.776,4.5923,4.38,4.2559,0.0,0.0,0.0,0.0,0.0,0.0,0.0,0.0,0.0,0.0,0.0,0.0,0.0,0.0,0.0,0.0,0.0,0.0,0.0,0.0,0.0,2.7301,2.8318,2.8101,2.9001,2.9425,2.9136,2.9273,2.9381,2.9558,3.0039,3.1437,3.3713,3.544,3.6614,3.7399,3.8658,4.0521,4.2996,4.3081,4.3358,4.3618,3.8812,3.6972,3.7208,0.0,0.0,0.0,0.0,0.0,0.0,0.0,0.0,0.0,0.0,0.0,0.0,0.0,0.0,0.0,0.0,0.0,0.0,0.0,0.0,0.0,0.0,0.0,0.0,0.0,0.0,0.0,0.0,0.0,0.0,0.0,0.0,0.0,0.0,0.0,0.0,0.0,0.0,0.0,0.0,0.0,4.0247,4.1195,0.0,0.0,0.0,0.0,0.0,0.0,0.0,0.0,0.0,0.0,0.0,0.0,0.0,4.8842,4.9281,5.1615,5.2557,5.2089,5.3745,5.4324,5.3886,5.382,5.3752,5.3718,5.3516,0.0,4.6191,4.5353,0.0,0.0,0.0,0.0,0.0,0.0,0.0,0.0,0.0,0.0,0.0,0.0,0.0,0.0,0.0,0.0,0.0,0.0,0.0,0.0,0.0,2.8205,2.9424,2.9714,3.0565,3.1072,3.104,3.0579,3.0385,3.0476,3.1151,3.2339,3.4012,3.6079,3.8255,4.0567,4.306,4.4803,4.5766,4.5743,4.6102,4.6655,4.3342,4.1323,4.0283,3.7979,0.0,0.0,0.0,0.0,0.0,0.0,0.0,0.0,0.0,0.0,0.0,0.0,0.0,0.0,0.0,0.0,0.0,0.0,0.0,0.0,0.0,0.0,0.0,0.0,0.0,0.0,0.0,0.0,0.0,0.0,0.0,0.0,0.0,0.0,0.0,0.0,0.0,0.0,0.0,4.0536,4.1861,4.1812,4.2334,4.2206,0.0,0.0,0.0,0.0,0.0,0.0,0.0,0.0,0.0,5.0881,5.1578,5.2485,5.3705,5.4923,5.577,5.6239,5.6691,5.6968,5.707,5.663,5.6224,5.5852,5.5852,5.4051,5.0989,4.9057,4.6974,4.4844,0.0,0.0,0.0,0.0,4.2382,4.2733,0.0,0.0,0.0,0.0,0.0,0.0,0.0,0.0,0.0,0.0,0.0,0.0,2.7484,2.9321,3.0858,3.1785,3.2577,3.3061,3.3073,3.1854,3.1133,3.1103,3.2113,3.3214,3.4239,3.718,4.0364,4.3723,4.6425,4.7892,4.8133,4.8235,4.8611,4.9139,4.7821,4.5829,4.3357,4.0942,3.8908,3.7222,0.0,0.0,0.0,0.0,0.0,0.0,0.0,0.0,0.0,0.0,0.0,0.0,0.0,0.0,0.0,0.0,0.0,0.0,0.0,0.0,0.0,0.0,0.0,0.0,0.0,0.0,0.0,0.0,0.0,0.0,0.0,0.0,0.0,0.0,0.0,0.0,0.0,4.2085,4.3386,4.2582,4.4531,4.4991,0.0,0.0,0.0,0.0,0.0,0.0,5.0502,5.1045,5.2389,5.4747,5.5219,5.6102,5.7645,5.7848,5.849,5.9607,5.8626,5.8558,5.9268,5.8321,5.7476,5.6799,5.6799,5.5953,5.4397,5.2068,4.9593,4.7078,4.5729,4.4772,4.4306,4.4865,4.5256,4.5715,0.0,0.0,0.0,0.0,0.0,0.0,0.0,0.0,0.0,0.0,0.0,2.6651,2.8705,3.1096,3.3214,3.4842,3.5538,3.562,3.4907,3.2659,3.1176,3.067,3.2324,3.3622,3.4375,3.9003,4.2738,4.5489,4.6515,4.8089,5.0094,5.0772,5.1584,5.2421,5.2095,4.9938,4.628,4.3195,4.1737,4.1396,3.9005,0.0,0.0,0.0,0.0,0.0,0.0,0.0,0.0,0.0,0.0,0.0,0.0,0.0,0.0,0.0,0.0,0.0,0.0,0.0,0.0,0.0,0.0,0.0,0.0,0.0,0.0,0.0,0.0,0.0,0.0,0.0,0.0,0.0,0.0,0.0,0.0,0.0,0.0,4.4458,4.7641,0.0,0.0,0.0,0.0,4.9235,5.0517,5.1994,5.3497,5.4759,5.6085,5.7642,5.9028,5.9806,5.9945,6.0689,6.1129,6.1163,5.9674,5.9336,6.0013,5.8558,5.7476,5.6799,5.6799,5.5953,5.4532,5.3687,5.2135,5.0193,4.914,4.8037,4.7058,4.7524,4.8149,4.8787,0.0,0.0,0.0,0.0,0.0,0.0,0.0,0.0,2.4049,2.5451,2.6967,2.8404,2.9761,3.245,3.4665,3.5987,3.6719,3.7237,3.7497,3.4657,3.3515,3.4615,3.424,3.5239,3.7866,4.1194,4.3963,4.622,4.7882,4.9609,5.1356,5.1133,5.1523,5.2461,5.2339,5.1567,5.0087,4.6808,4.4643,4.3284,4.0732,3.8916,0.0,0.0,0.0,0.0,0.0,0.0,0.0,0.0,0.0,0.0,0.0,0.0,0.0,0.0,0.0,0.0,0.0,0.0,0.0,0.0,0.0,0.0,0.0,0.0,0.0,0.0,0.0,0.0,0.0,0.0,0.0,0.0,0.0,0.0,0.0,0.0,0.0,4.8114,5.1869,0.0,5.0547,5.1688,5.2719,5.3009,5.3959,5.5478,5.7536,5.7943,5.882,6.0298,6.0993,6.134,6.134,6.1761,6.1772,6.1298,6.0216,5.9607,5.9336,5.7848,5.7036,5.6765,5.6325,5.5513,5.4566,5.4329,5.318,5.163,5.1254,5.058,4.9811,4.997,5.0202,5.0439,0.0,0.0,0.0,0.0,0.0,0.0,0.0,0.0,2.3906,2.5361,2.7229,2.8971,3.036,3.3247,3.5513,3.6498,3.7432,3.8296,3.8902,3.6125,3.5196,3.68,3.6046,3.7011,3.9918,4.2403,4.4375,4.5874,4.8055,4.9673,5.0713,5.0834,5.1325,5.2219,5.2595,5.2834,5.2707,5.0429,4.8072,4.5699,4.3655,4.2193,4.0984,0.0,0.0,0.0,0.0,0.0,0.0,0.0,0.0,0.0,0.0,0.0,0.0,0.0,0.0,0.0,0.0,0.0,0.0,0.0,0.0,0.0,0.0,0.0,0.0,0.0,0.0,0.0,0.0,0.0,0.0,0.0,0.0,0.0,0.0,4.8163,5.1047,5.1168,5.5384,5.7061,5.3967,5.5567,5.6806,5.6876,5.7816,5.9231,6.1065,6.0811,6.1167,6.2371,6.2065,6.2011,6.228,6.2048,6.1621,6.1148,6.0178,5.9336,5.8592,5.7374,5.6528,5.6021,5.5547,5.4905,5.4228,5.4228,5.3619,5.2706,5.2706,5.2232,5.1589,5.1589,5.1388,5.1117,0.0,0.0,0.0,0.0,0.0,0.0,0.0,2.1699,2.2603,2.4539,2.63,2.8233,3.0414,3.3377,3.5569,3.6485,3.7765,3.8663,3.8967,3.6885,3.5986,3.6797,3.7619,3.8765,4.0224,4.2525,4.3924,4.4381,4.6869,4.8125,4.8173,4.994,5.1175,5.1983,5.3133,5.3793,5.3976,5.3815,5.1869,4.8769,4.7896,4.7357,4.6661,0.0,0.0,0.0,0.0,0.0,0.0,0.0,0.0,0.0,0.0,0.0,0.0,0.0,0.0,0.0,0.0,0.0,0.0,0.0,0.0,0.0,0.0,0.0,0.0,0.0,0.0,0.0,0.0,0.0,0.0,0.0,0.0,0.0,4.6739,4.9947,5.2586,5.3531,5.8027,5.9651,5.5979,5.9378,6.1461,6.0765,6.2037,6.3141,6.3877,6.3208,6.3141,6.3835,6.2472,6.207,6.2773,6.1575,6.092,6.0852,5.9629,5.8626,5.7814,5.7103,5.5953,5.46,5.4566,5.416,5.3518,5.3518,5.3484,5.3484,5.3484,5.301,5.23,5.2266,5.1792,5.0881,0.0,0.0,0.0,0.0,0.0,0.0,0.0,2.1997,2.2811,2.3937,2.6343,2.8179,2.8823,3.184,3.4289,3.5554,3.6107,3.7156,3.8914,3.6507,3.5865,3.7689,3.8537,3.998,4.2164,4.3047,4.3647,4.3966,4.5185,4.6131,4.6846,4.7357,4.8655,5.0564,5.1865,5.2934,5.3836,5.4608,5.3912,5.2213,5.12,4.9678,4.7909,0.0,0.0,0.0,0.0,0.0,0.0,0.0,0.0,0.0,0.0,0.0,0.0,0.0,0.0,0.0,0.0,0.0,0.0,0.0,0.0,0.0,0.0,0.0,0.0,0.0,0.0,0.0,0.0,0.0,0.0,0.0,4.5253,4.7388,4.8273,5.2051,5.5328,5.6734,6.0567,6.2568,6.1121,6.2593,6.3472,6.2999,6.3124,6.3297,6.3624,6.333,6.3287,6.3487,6.2682,6.2366,6.2566,6.1964,6.1077,5.9879,5.9823,5.8788,5.6853,5.6288,5.548,5.4566,5.4025,5.3687,5.3518,5.3518,5.3179,5.2706,5.3281,5.301,5.2232,5.1725,5.0371,4.8649,0.0,0.0,0.0,0.0,0.0,0.0,0.0,2.1392,2.2262,2.3051,2.5484,2.7316,2.7773,3.02,3.2099,3.2929,3.3966,3.5121,3.6365,3.5968,3.6057,3.6855,3.8188,3.9472,4.0722,4.1315,4.1978,4.2659,4.3075,4.3832,4.4872,4.5152,4.639,4.8477,4.9854,5.1344,5.2878,5.3924,5.4052,5.3629,5.3418,5.2618,5.1429,5.0089,4.8894,4.7787,4.5811,4.4971,4.4512,4.2869,0.0,0.0,0.0,0.0,0.0,0.0,0.0,0.0,0.0,0.0,0.0,0.0,0.0,0.0,0.0,0.0,0.0,0.0,0.0,0.0,0.0,0.0,0.0,0.0,4.728,4.9398,5.1518,5.4329,5.6948,5.8828,6.1912,6.3649,6.3042,6.4075,6.4586,6.4148,6.4132,6.421,6.4341,6.3989,6.3868,6.4167,6.3003,6.2565,6.2949,6.1528,6.0376,5.946,5.8867,5.7698,5.6039,5.5476,5.4837,5.4126,5.3687,5.3518,5.3484,5.3145,5.2739,0.0,0.0,0.0,0.0,0.0,4.9289,4.777,0.0,0.0,0.0,0.0,0.0,0.0,0.0,2.0268,2.1075,2.169,2.3922,2.5787,2.6553,2.8264,2.9357,2.9562,3.1446,3.2695,3.2925,3.5337,3.6332,3.5519,3.7266,3.8109,3.7771,3.8699,3.9721,4.0775,4.0697,4.1288,4.258,4.3051,4.4235,4.6153,4.751,4.9267,5.1294,5.2308,5.3059,5.3577,5.4648,5.5291,5.5304,5.2511,5.2392,5.3219,4.9661,4.7546,4.6312,4.5572,0.0,0.0,0.0,0.0,0.0,0.0,0.0,0.0,0.0,0.0,0.0,0.0,0.0,0.0,0.0,0.0,0.0,0.0,0.0,0.0,0.0,0.0,0.0,0.0,4.9359,5.1737,5.517,5.6326,5.7638,5.9852,6.2173,6.3305,6.2614,6.4185,6.4982,6.4399,6.5017,6.5425,6.547,6.4873,0.0,0.0,0.0,6.278,6.3657,6.075,5.9364,5.946,5.7506,5.6135,5.5329,5.4799,5.416,5.3484,5.3484,5.3416,5.3315,5.2604,5.2198,5.2063,5.2063,5.1183,4.9864,4.9154,4.8376,4.7564,0.0,0.0,0.0,0.0,0.0,0.0,0.0,1.8955,1.9212,1.8714,2.1143,2.2871,2.2809,2.4701,2.6553,2.7956,2.8673,3.0217,3.3099,3.4812,3.6106,3.7074,3.7816,3.8424,3.8859,3.9066,3.9091,3.8909,3.8544,3.9169,4.0711,4.0465,4.1684,4.4297,4.6025,4.7608,4.9057,5.1029,5.2317,5.3139,5.4311,5.4166,5.3307,5.3804,5.307,5.1706,5.1476,5.1169,5.0777,4.9536,4.8265,4.681,4.4732,4.2634,0.0,0.0,0.0,0.0,0.0,0.0,0.0,0.0,0.0,0.0,0.0,0.0,0.0,0.0,0.0,0.0,0.0,0.0,0.0,4.8741,5.1099,5.3271,5.506,5.6314,5.7698,5.9498,6.0637,6.1274,6.1099,6.3004,6.4142,6.4012,6.4877,6.5514,6.5692,6.5603,6.569,6.5965,6.4257,6.3491,6.3835,6.1373,5.9825,5.9225,0.0,0.0,5.4898,5.4379,5.3816,5.3247,5.3247,5.2977,5.2536,5.2367,5.1589,5.0507,5.0507,4.9999,4.912,4.8376,4.7293,4.6109,0.0,0.0,0.0,0.0,0.0,0.0,0.0,1.7864,1.8163,1.7881,1.9576,2.0929,2.1234,2.2543,2.394,2.5361,2.6968,2.9393,3.274,3.4186,3.5531,3.6818,3.7258,3.7299,3.6935,3.6723,3.6774,3.7122,3.6404,3.7199,3.9251,3.8515,3.955,4.2004,4.2954,4.4802,4.7366,4.894,5.0388,5.1773,5.249,5.2383,5.2109,5.3975,5.4189,5.3381,5.2858,5.2486,5.2067,5.105,5.0041,4.8919,4.6962,4.5036,4.305,0.0,0.0,0.0,0.0,0.0,0.0,0.0,0.0,0.0,0.0,0.0,0.0,0.0,0.0,4.3823,4.5424,0.0,4.8802,5.0979,5.2654,5.4162,5.5478,5.6496,5.7543,5.8698,5.994,6.0701,6.0701,6.2632,6.3894,6.3894,6.4852,6.547,6.5603,6.5736,6.5824,6.5955,6.4519,6.3835,6.412,6.1334,5.971,5.9309,5.7218,5.5706,5.4789,5.387,5.3342,5.3179,5.3179,5.2842,5.2232,5.1488,5.0541,4.956,4.956,4.9086,4.8376,4.7631,4.665,4.5703,0.0,0.0,0.0,0.0,0.0,0.0,0.0,1.6601,1.7001,1.7163,1.817,1.9236,2.017,2.0958,2.193,2.3228,2.5937,2.8781,3.1741,3.3236,3.4431,3.5517,3.6022,3.5639,3.4324,3.3996,3.4269,3.4989,3.4203,3.4995,3.7228,3.6588,3.7368,3.9336,4.0134,4.2319,4.547,4.6693,4.8301,5.0086,5.0076,5.0412,5.1006,5.2631,5.3861,5.463,5.323,5.2066,5.1143,5.0828,5.002,4.8949,4.7999,4.6755,4.5229,4.3007,4.2193,0.0,0.0,0.0,0.0,0.0,0.0,0.0,0.0,4.1462,4.2364,4.4482,4.5926,4.7272,4.8799,4.9719,5.0936,5.3073,5.3952,5.485,5.6166,5.6675,5.7214,5.8022,5.9205,5.9992,5.9992,6.2053,6.3385,6.3385,6.4617,6.5425,6.547,6.5692,6.5757,6.5667,6.4495,6.3827,6.3799,6.0912,5.9287,5.8992,5.6315,5.4868,5.4482,5.333,5.2903,5.3076,5.2842,5.2505,5.1961,5.0473,4.9526,4.8984,4.868,4.8206,4.7631,4.7022,4.6244,4.55,0.0,0.0,0.0,0.0,0.0,0.0,0.0,0.0,1.4933,1.4636,1.6131,1.746,1.8229,1.9541,2.1228,2.3305,2.5172,2.727,2.9852,3.1304,3.2588,3.3674,3.4117,3.4006,3.3132,3.3077,3.2758,3.2236,3.1792,3.2106,3.3089,3.3834,3.4822,3.6143,3.9443,4.149,4.2639,4.4751,4.68,4.8596,4.7892,4.8424,4.9464,4.8358,4.9494,5.1635,5.115,4.9512,4.7717,4.8676,4.7268,4.5573,4.8267,4.7983,4.6528,4.5951,4.4899,4.3467,4.1116,3.939,3.8964,4.1861,4.1855,4.2128,0.0,4.6803,4.6844,4.7873,4.9128,5.0231,5.0813,5.1965,5.3073,5.3952,5.464,5.5538,5.6825,5.6585,5.6735,5.7992,5.7738,5.7513,5.7513,5.9961,6.1582,6.1582,6.3969,6.5514,6.5736,6.578,6.5567,6.5115,6.4143,6.3108,6.2018,6.0138,5.8591,5.7258,5.5625,5.4383,5.3536,5.281,5.2551,5.2627,5.1665,5.1257,5.1217,4.9729,4.9086,4.8883,4.7564,4.6989,4.6921,4.6819,4.5906,4.4716,0.0,0.0,0.0,0.0,0.0,0.0,0.0,0.0,0.0,1.4235,1.5056,1.6103,1.7356,1.9294,2.1154,2.2683,2.448,2.6743,2.958,3.0671,3.2072,3.4137,3.4226,3.3621,3.2368,3.221,3.1823,3.1211,3.0825,3.1271,3.2375,3.2289,3.292,3.4044,3.5991,3.8278,4.0875,4.2664,4.4994,4.7355,4.7074,4.7212,4.7553,4.7051,4.6744,4.6662,4.753,4.6936,0.0,0.0,4.5441,4.4954,4.6114,4.6111,4.5504,4.5024,4.4312,4.3349,4.1581,4.162,4.2321,4.3106,4.4148,4.5614,4.7978,4.8635,4.8996,4.983,5.1287,5.2459,5.236,5.3443,5.4461,5.473,5.5329,5.5957,5.6466,5.6346,5.6376,5.6915,5.6406,5.6436,5.7573,5.9482,6.1009,6.1831,6.3323,6.4575,6.5526,6.5292,6.5057,6.481,6.4118,6.3133,6.1709,6.0117,5.8569,5.6954,5.5488,5.4313,5.34,5.2705,5.2248,5.1924,5.1262,5.082,5.0313,4.8923,4.8612,4.8849,4.7361,4.6786,4.6684,4.5867,4.5122,4.4615,0.0,0.0,0.0,0.0,0.0,0.0,0.0,0.0,0.0,0.0,1.4321,1.5131,1.6765,1.9,2.0737,2.1615,2.3352,2.5577,2.8209,2.924,3.0761,3.2874,3.3173,3.265,3.1231,3.1237,3.0943,3.0206,3.0079,3.0446,3.1258,3.1025,3.1356,3.2233,3.3265,3.5627,3.8839,4.0129,4.2503,4.5393,4.5129,4.5173,4.5235,4.4579,4.3351,4.2156,4.4153,4.3963,0.0,4.2669,4.2519,4.2553,4.3223,4.345,4.3472,4.3271,4.2966,4.2572,4.2054,4.3166,4.4469,4.4411,4.6049,4.7978,4.9057,4.9698,5.033,5.0875,5.2322,5.336,5.3008,5.4012,5.491,5.491,5.5478,5.5957,5.6188,5.5867,5.5688,5.5867,5.5149,5.5329,5.7154,5.8646,6.0152,6.1673,6.2639,6.3837,6.5315,6.5105,6.4627,6.4029,6.3633,6.2549,6.0645,5.9415,5.8007,5.6387,5.5088,5.405,5.3175,5.2442,5.1883,5.1458,5.086,5.0353,4.9813,4.8655,4.8545,4.8883,4.7597,4.709,4.6921,4.5432,4.4784,4.4615,0.0,0.0,0.0,0.0,0.0,0.0,0.0,0.0,0.0,0.0,0.0,0.0,0.0,1.8268,1.9553,2.0012,2.1597,2.3203,2.4655,2.6373,2.7631,2.8403,2.994,3.0328,2.9227,3.0221,3.0046,2.8794,2.9122,2.8971,2.8355,2.9696,3.0378,3.0479,3.273,3.4509,3.5977,3.6928,3.9221,4.2062,4.1207,4.1619,4.2435,3.9626,3.8567,3.8974,4.1592,0.0,3.7538,3.8823,3.7888,3.6734,3.9823,4.0534,4.0414,4.1409,4.1387,4.139,4.2743,4.3213,4.3854,4.6417,4.7513,4.8311,4.9878,5.0645,5.0954,5.097,5.1878,5.255,5.2294,5.3324,5.4251,5.4251,5.479,5.5448,5.6077,5.5059,5.4491,5.5149,5.4042,5.3773,5.5149,5.6774,5.847,6.0202,6.1956,6.3669,6.5315,6.5392,6.4432,6.2354,6.2255,6.0862,5.7978,5.7376,5.6321,5.4855,5.4089,5.3356,5.2589,5.175,5.1385,5.1425,5.0192,4.9719,4.9846,4.9227,4.8984,4.8917,4.8173,4.7872,4.7669,4.621,4.5196,4.4615,0.0,0.0,0.0,0.0,0.0,0.0,0.0,0.0,0.0,0.0,0.0,0.0,0.0,0.0,0.0,0.0,2.1077,2.243,2.4461,2.5124,2.6064,2.7509,2.8511,2.8765,2.816,2.8964,2.9054,2.8289,2.8434,2.8526,2.8562,2.8764,2.8943,2.8959,3.0696,3.1862,3.2785,3.425,3.6207,3.8309,3.7668,3.8008,3.8742,3.7778,3.6448,3.5426,0.0,0.0,3.5858,3.598,3.5804,3.568,3.6634,3.7236,3.7808,3.8842,4.0329,4.1769,4.2584,4.3771,4.5344,4.7552,4.8568,4.9458,5.1045,5.0968,5.0364,4.9855,4.9981,5.0017,4.9387,5.0894,5.2366,5.2815,5.3803,5.491,5.6068,5.5777,5.5598,5.5807,5.5499,5.5179,5.5179,5.5902,5.7428,6.0028,6.0546,6.1881,6.4586,6.3802,6.314,6.2951,6.198,6.0291,5.7806,5.7122,5.5833,5.3838,5.3177,5.2447,5.175,5.1415,5.0821,5.0026,4.9724,4.9417,4.9104,4.7977,4.7834,4.8173,4.6921,4.6447,4.638,4.5872,4.5229,4.4513,0.0,0.0,0.0,0.0,0.0,0.0,0.0,0.0,0.0,0.0,0.0,0.0,0.0,0.0,0.0,0.0,0.0,2.1704,2.3273,2.3989,2.4842,2.5847,2.6839,2.7231,2.6756,2.736,2.7614,2.7384,2.7492,2.7755,2.8146,2.7418,2.7024,2.7076,2.7214,2.8075,2.9548,3.048,3.2309,3.4641,3.4482,3.4845,3.5466,3.4811,3.3805,0.0,0.0,3.3284,3.3736,3.3873,3.4188,3.4457,3.4084,3.4889,3.6151,3.7535,3.9684,4.1881,4.3305,4.4961,4.6738,4.8397,4.9239,4.9922,5.1036,5.0176,4.8982,4.8373,4.7833,4.7445,4.716,4.842,4.9862,5.0973,5.2067,5.3414,5.5209,5.5059,5.5029,5.5748,5.5598,5.5388,5.5209,5.5719,5.6946,5.9302,5.9444,6.068,6.3461,6.2984,6.2453,6.2113,6.1185,5.9529,5.7044,5.6282,5.4957,5.3036,5.2378,5.1814,5.1282,5.075,5.0023,4.9194,4.9158,4.8919,4.8606,4.7514,4.7571,4.8173,4.6684,4.6244,4.6447,4.5906,4.5399,4.4857,0.0,0.0,0.0,0.0,0.0,0.0,0.0,0.0,0.0,0.0,0.0,0.0,0.0,0.0,0.0,0.0,0.0,0.0,2.1102,2.2928,2.3822,2.3444,2.5009,2.5593,2.4948,2.5593,2.5909,2.5974,2.6269,2.6662,2.692,2.5473,2.482,2.4778,2.2802,2.3525,2.6191,2.5814,2.7695,3.0988,3.1381,3.1996,3.2479,3.0919,3.0764,0.0,2.9466,2.9837,3.1241,3.241,3.2982,3.3142,3.2636,3.379,3.5778,3.7679,3.961,4.185,4.4869,4.6617,4.7869,4.9015,4.9422,4.9572,4.9795,4.835,4.6862,4.6449,4.5486,4.4864,4.5457,4.5975,4.6978,4.894,4.9853,5.1212,5.3892,5.3174,5.3084,5.497,5.47,5.4581,5.528,5.6176,5.7132,5.8148,5.8841,6.0128,6.2127,6.2884,6.2212,6.0125,5.9993,5.8568,5.5681,5.4821,5.3765,5.2409,5.1787,5.1421,5.1216,4.9756,4.9027,4.8928,4.843,4.8258,4.8349,4.7768,4.8057,4.8717,4.7293,4.7158,4.7567,4.621,4.5669,4.5534,0.0,0.0,0.0,0.0,0.0,0.0,0.0,0.0,0.0,0.0,0.0,0.0,0.0,0.0,0.0,0.0,0.0,0.0,2.1,2.1962,2.2492,2.2384,2.3779,2.4234,2.3591,2.4257,2.4479,2.4238,2.3499,2.3391,2.3991,2.2942,2.26,2.2836,2.2524,2.2539,2.2842,2.3779,2.486,2.5916,2.6865,2.7917,2.8971,2.9261,2.915,2.8947,2.9883,3.0457,3.0927,3.2155,3.3677,3.5152,3.5861,3.7074,3.8596,4.0334,4.2179,4.4208,4.6455,4.7212,4.7716,4.9163,4.8796,4.8037,4.7869,4.6516,4.4914,4.3737,4.2463,4.1535,4.1483,4.3342,4.5695,4.8148,5.0331,5.2456,5.464,5.5059,5.5179,5.5179,5.5867,5.6555,5.7045,5.774,5.8712,5.9903,5.9685,6.0509,6.2898,6.2146,6.1417,6.0854,5.9761,5.8303,5.6448,5.4626,5.3268,5.2409,5.1682,5.1052,5.0452,4.9525,4.8265,4.6913,4.7835,4.7701,4.6911,4.6843,4.6948,4.7046,4.6254,4.5771,4.5466,4.5635,4.5365,4.4852,0.0,0.0,0.0,0.0,0.0,0.0,0.0,0.0,0.0,0.0,0.0,0.0,0.0,0.0,0.0,0.0,0.0,0.0,0.0,2.1186,2.1604,2.1712,2.2467,2.2671,2.2184,2.2549,2.2824,2.2932,2.1925,2.1811,2.2573,2.0943,2.023,2.0393,1.9804,1.9772,2.018,2.1296,2.2309,0.0,0.0,2.5619,2.6761,2.748,2.7814,2.8072,2.9249,3.061,3.2123,3.4082,3.5223,3.5992,3.7121,3.8713,4.0494,4.2199,4.373,4.5226,4.7066,4.7035,4.6695,4.7808,4.7182,4.6131,4.5574,4.4146,4.2457,4.0646,3.9572,3.8913,3.8824,4.0965,4.3624,4.6533,4.8999,5.1468,5.4371,5.482,5.5059,5.5568,5.6256,5.6783,5.702,5.7745,5.8865,6.038,6.0238,6.0772,6.2236,6.1251,6.049,6.0158,5.9032,5.7541,5.5752,5.3897,5.2605,5.1912,5.1148,5.0419,4.9656,4.8592,4.7501,4.6415,4.6872,4.6772,4.6149,4.5892,4.607,4.6391,4.5442,4.5071,4.5094,4.5162,4.4959,4.4615,0.0,0.0,0.0,0.0,0.0,0.0,0.0,0.0,0.0,0.0,0.0,0.0,0.0,0.0,0.0,0.0,0.0,0.0,0.0,0.0,2.1107,2.1317,2.1365,2.1291,2.0944,2.0975,2.1217,2.1861,2.0808,2.0816,2.1656,1.915,1.795,1.7937,1.6406,1.6592,1.8105,1.884,2.0145,2.1822,2.3174,2.4271,2.5176,0.0,0.0,2.7804,2.8319,3.0501,3.3571,3.6551,3.7069,3.6694,3.7989,3.9942,4.2064,4.3709,4.4662,4.556,4.7084,4.6472,4.5493,4.5916,4.531,4.428,4.3203,4.1743,4.0002,3.7954,3.716,3.6926,3.7193,3.8952,4.1484,4.4877,4.705,4.9673,5.3653,5.3683,5.3982,5.5888,5.6188,5.6269,5.6393,5.7231,5.8452,6.0155,6.0463,6.0739,6.1077,6.039,5.9562,5.8634,5.7873,5.6481,5.4357,5.3036,5.2045,5.1282,5.0452,4.9655,4.8893,4.7427,4.6625,4.6354,4.6024,4.5814,4.5698,4.5339,4.57,4.6285,4.4972,4.4855,4.5438,4.4795,4.4587,4.4615,0.0,0.0,0.0,0.0,0.0,0.0,0.0,0.0,0.0,0.0,1.5044,1.5565,0.0,0.0,0.0,0.0,0.0,0.0,0.0,0.0,0.0,2.0968,2.1238,2.1186,2.0695,2.0643,2.0598,2.0506,1.8721,1.8144,1.8723,1.6854,1.6089,1.6296,1.5986,1.6278,1.708,1.8317,1.9179,1.978,2.1655,2.2661,2.3224,0.0,0.0,0.0,2.8917,3.0592,3.2224,3.5958,3.8207,3.9828,4.1989,4.3221,4.4178,4.5308,4.5709,4.6022,4.6869,4.6497,4.5846,4.5637,4.5037,4.3922,4.1719,4.0235,3.8893,3.7481,3.6419,3.59,3.6674,3.8371,4.0925,4.4789,4.705,4.9673,5.3653,5.4102,5.4371,5.5269,5.5837,5.6545,5.7358,5.8097,5.9086,6.0522,6.0081,6.0142,6.1077,6.039,5.9098,5.7144,5.6382,5.5222,5.3632,5.2804,5.2045,5.1282,4.9922,4.8889,4.8107,4.7186,4.5812,4.4159,4.5876,0.0,4.4989,4.6225,4.6472,4.6034,4.5343,4.4817,4.4524,4.4389,4.4468,4.4615,0.0,0.0,0.0,0.0,0.0,0.0,0.0,1.4912,1.5059,1.566,1.649,1.7292,1.7918,1.8046,1.856,0.0,0.0,0.0,0.0,0.0,0.0,0.0,0.0,0.0,2.0554,2.0724,2.0764,2.0643,0.0,1.8473,1.842,1.7066,1.6205,1.5885,1.5885,1.6365,1.7265,1.8356,1.931,2.0147,2.1541,2.2611,0.0,0.0,0.0,0.0,2.9105,3.0574,3.1798,3.461,3.6832,3.8955,4.2001,4.3483,4.4357,4.5408,4.5503,4.5448,4.6436,4.5567,4.4411,4.4246,4.3506,4.2259,4.0118,3.872,3.7378,3.5762,3.4995,3.4666,3.4805,3.6839,3.9532,4.2415,4.5095,4.803,5.1631,5.2426,5.3025,5.4042,5.473,5.532,5.5808,5.6161,5.6831,5.8024,5.7873,5.8561,6.0407,5.9463,5.8005,5.6183,5.5421,5.449,5.3434,5.234,5.1446,5.0717,4.9624,4.8694,4.7929,4.6746,4.5651,4.4679,4.488,4.4818,4.4653,4.5479,4.5897,4.5925,4.5272,4.4909,4.472,4.4347,4.427,4.4327,0.0,0.0,0.0,0.0,0.0,0.0,0.0,1.5349,1.5574,1.6506,1.7863,1.8789,1.8791,1.8929,1.943,0.0,0.0,0.0,0.0,0.0,0.0,0.0,0.0,0.0,0.0,0.0,0.0,2.0903,2.0046,0.0,0.0,0.0,0.0,0.0,1.6258,1.6842,1.8003,1.867,1.9709,0.0,0.0,2.2669,0.0,0.0,0.0,0.0,0.0,2.9964,3.1067,3.3125,3.4619,3.6254,3.9589,4.1799,4.3355,4.4357,4.4519,4.4573,4.56,4.4625,4.3363,4.3232,4.2343,4.0979,3.9111,3.7626,3.6113,3.4414,3.3908,3.3664,3.3522,3.5466,3.7793,4.0028,4.2647,4.561,4.9264,5.0339,5.1387,5.2995,5.3773,5.4162,5.4012,5.4132,5.4484,5.5175,5.5485,5.6787,5.9381,5.827,5.6879,5.5383,5.4787,5.4096,5.3202,5.191,5.0916,5.0187,4.9458,4.8597,4.7704,4.648,4.5841,4.5624,4.4358,4.4243,4.5011,4.5061,4.5514,4.6127,4.5551,4.526,4.5076,4.4507,4.4302,4.4332,0.0,0.0,0.0,0.0,0.0,0.0,0.0,1.544,1.6054,1.741,1.8072,1.8634,1.9095,2.0029,2.0601,0.0,0.0,0.0,0.0,0.0,0.0,0.0,0.0,0.0,0.0,0.0,0.0,2.056,1.9732,0.0,0.0,0.0,0.0,0.0,0.0,1.7845,1.9168,1.9465,0.0,0.0,0.0,0.0,0.0,0.0,0.0,0.0,0.0,2.8395,2.9058,3.1621,3.2277,3.2435,3.4878,3.8156,4.1214,4.1799,4.2697,4.3597,4.3993,4.4359,4.446,4.3938,4.2944,4.1631,3.9747,3.7599,3.5755,3.4912,3.3892,3.3457,3.4489,3.4947,3.614,3.9213,4.0402,4.2707,4.7753,4.9022,5.033,5.2916,5.3773,5.3952,5.3324,5.3832,5.4074,5.3807,5.419,5.5505,5.7866,5.7243,5.6117,5.4659,5.456,5.3864,5.2542,5.1713,5.0916,5.0187,4.9458,4.8329,4.6896,4.6759,4.634,4.5697,4.5551,4.5913,0.0,4.6592,4.668,4.681,4.6742,4.5974,4.493,4.4863,4.4953,4.5102,0.0,0.0,0.0,0.0,0.0,0.0,1.5791,1.5838,1.6323,1.7755,1.8857,1.9578,1.9802,2.112,2.1619,2.0748,0.0,0.0,0.0,0.0,0.0,0.0,0.0,0.0,0.0,0.0,2.1034,2.1034,2.0975,0.0,0.0,0.0,0.0,0.0,0.0,1.8632,1.9776,1.9879,0.0,0.0,0.0,0.0,0.0,0.0,0.0,0.0,0.0,0.0,2.8344,2.9559,3.017,3.0707,3.1893,3.3787,3.6058,3.8962,4.1013,4.252,4.3625,4.4278,4.4591,4.4016,4.2654,4.0992,3.9714,3.742,3.5331,3.4426,3.3647,3.3142,3.3213,3.3547,3.4451,3.6454,3.7569,3.9601,4.3591,4.5067,4.686,4.9897,5.1528,5.2456,5.2576,5.3204,5.3278,5.2455,5.2566,5.3164,5.4229,5.499,5.4924,5.3897,5.3864,5.3367,5.2407,5.1214,5.0485,5.0187,4.8995,4.8101,4.7538,4.6999,4.6655,4.634,4.5913,4.6127,0.0,4.6828,4.7106,4.7504,4.7073,4.6575,4.6074,4.5609,4.5474,4.5532,0.0,0.0,0.0,0.0,0.0,1.5793,1.6046,1.6011,1.6504,1.7809,1.9015,1.9826,1.9879,2.1385,2.1978,2.0989,2.1375,0.0,0.0,0.0,0.0,0.0,0.0,0.0,0.0,0.0,2.1602,2.1714,2.2007,2.178,0.0,0.0,2.0006,1.9604,0.0,0.0,0.0,0.0,0.0,0.0,0.0,0.0,0.0,0.0,0.0,0.0,0.0,0.0,0.0,0.0,0.0,2.9212,2.9645,3.0481,3.2116,3.6289,3.8977,4.0903,4.2524,4.3703,4.433,4.3755,4.2233,4.0535,3.9608,3.732,3.5157,3.4329,3.3729,3.3213,3.2779,3.2925,3.351,0.0,3.5598,3.7389,4.092,4.2391,4.4334,4.7611,4.9404,5.0601,5.1259,5.2097,5.2201,5.1255,5.123,5.1277,5.1267,5.2455,5.3072,5.3033,5.3254,5.3069,5.2409,5.1148,5.0419,5.0187,4.8928,4.8199,4.7968,4.7404,4.7135,4.7101,4.6375,4.6445,0.0,4.6896,4.727,4.7968,4.7438,4.7073,4.6841,4.6311,4.6113,4.6044,0.0,0.0,0.0,0.0,0.0,0.0,1.5579,1.5855,1.6439,1.7572,1.8328,1.8901,1.9209,2.0516,2.1444,2.1416,2.1769,0.0,0.0,0.0,0.0,0.0,0.0,0.0,0.0,0.0,2.2047,2.2371,2.2371,2.228,2.1957,2.0758,2.0605,2.1328,0.0,0.0,0.0,0.0,0.0,0.0,0.0,0.0,0.0,0.0,0.0,0.0,0.0,0.0,0.0,0.0,0.0,0.0,0.0,2.8783,3.0429,3.399,3.6522,3.8519,4.0342,4.2338,4.3755,4.318,4.1867,4.0535,3.9608,3.732,3.5265,3.4871,3.4314,3.3908,3.388,3.3457,3.3495,3.4624,3.4802,3.6368,4.0853,4.2023,4.3646,4.694,4.7908,4.8566,4.9269,5.0481,5.096,5.0301,5.0404,5.0211,4.9578,4.9734,5.0586,5.2177,5.2963,5.3069,5.2409,5.168,5.0916,5.0187,4.9458,4.873,4.8001,4.8001,4.8001,4.7935,4.7135,4.7236,0.0,4.7101,4.727,4.8001,4.8001,4.7537,4.6908,4.6874,4.6874,4.6775,0.0,0.0,0.0,0.0,0.0,0.0,0.0,1.566,1.5785,1.6646,1.729,1.7868,1.8549,1.952,2.0442,2.1307,2.1957,0.0,0.0,0.0,0.0,0.0,0.0,0.0,0.0,0.0,2.2885,2.3464,2.3487,2.3432,2.336,2.2506,2.2112,2.2132,2.1227,2.1013,0.0,0.0,0.0,0.0,0.0,0.0,2.448,0.0,0.0,0.0,0.0,0.0,0.0,0.0,0.0,0.0,0.0,0.0,0.0,3.0604,3.3698,3.6774,3.7598,3.9516,4.1138,4.0187,3.9396,3.8612,3.7454,3.6354,3.5318,3.4395,3.4368,3.426,3.3485,3.3224,3.3495,3.4585,3.4802,3.6053,3.9617,4.105,4.2936,4.6211,4.8805,5.0541,5.1199,5.1229,5.075,4.9673,4.9614,4.9189,4.8071,4.8194,4.9269,5.1388,5.1722,5.1765,5.168,5.0916,5.0187,4.9425,4.8199,4.7736,4.7968,4.7471,4.7537,4.8001,4.7737,4.777,4.7968,4.7737,4.777,4.8001,4.8001,4.7868,4.7636,4.7636,4.7636,4.7471,0.0,0.0,0.0,0.0,0.0,0.0,0.0,1.5636,1.5332,1.6089,1.6602,1.7195,1.8205,1.89,1.9855,2.1279,2.1888,0.0,0.0,0.0,0.0,0.0,0.0,0.0,2.2727,2.3149,2.3761,2.4561,2.4909,2.4845,2.4379,2.3866,2.3262,2.2656,2.21,2.1767,0.0,0.0,0.0,0.0,0.0,0.0,2.4873,0.0,0.0,0.0,0.0,0.0,0.0,0.0,0.0,0.0,0.0,0.0,0.0,0.0,3.1365,3.399,3.4831,3.6819,3.8463,3.7565,3.7307,3.6962,3.6082,3.5427,3.4802,3.4043,3.4368,3.4461,3.3305,3.3305,3.3647,3.4341,3.4683,3.5942,3.9048,4.0596,4.2648,4.5926,4.8566,5.0361,5.102,5.093,5.0421,4.9389,4.909,4.8446,4.7369,4.6929,4.7543,4.9356,4.9737,4.9928,5.0037,4.9323,4.873,4.8266,4.7338,4.7139,4.757,4.7404,4.757,4.8001,4.8001,4.8001,0.0,4.8001,4.8001,4.7968,4.7703,4.7769,4.7934,4.7371,4.7338,4.7371,0.0,0.0,0.0,0.0,0.0,0.0,0.0,1.5749,1.5191,1.5847,1.6267,1.6868,1.7828,1.8494,1.9489,2.1141,0.0,0.0,0.0,0.0,0.0,0.0,0.0,0.0,2.3485,2.4029,2.478,2.571,2.6464,2.6306,2.524,2.4903,2.4118,2.3038,2.2704,2.2339,2.2011,2.2226,2.2297,2.2249,2.3083,2.4213,0.0,0.0,0.0,0.0,0.0,0.0,0.0,0.0,0.0,0.0,0.0,0.0,0.0,0.0,0.0,0.0,0.0,3.4193,3.5782,3.5362,3.5519,3.5633,3.5183,3.4482,0.0,3.3853,3.4341,3.445,3.3387,3.3685,3.4093,3.4043,3.4682,3.6202,3.9167,4.0855,4.2935,4.61,4.7578,4.864,4.9239,4.9823,4.9883,4.9209,4.8566,4.7908,4.7189,4.5933,4.5595,4.6339,4.712,4.7596,4.7734,4.7144,4.6842,4.6808,4.6808,4.6841,4.6908,4.7603,4.7934,4.7934,4.7968,4.7934,4.7835,4.7901,4.7934,4.7835,4.7106,4.7272,4.7736,4.6311,4.6212,4.6609,0.0,0.0,0.0,0.0,0.0,0.0,0.0,0.0,0.0,0.0,1.5953,1.6587,1.6594,1.7327,1.855,0.0,0.0,0.0,0.0,0.0,0.0,0.0,0.0,0.0,2.4751,2.4885,2.5911,2.786,2.7405,2.7094,2.6905,2.6139,2.5076,2.3747,2.3381,2.2799,2.1995,2.174,2.2094,2.286,2.274,2.3909,0.0,0.0,0.0,0.0,2.7117,2.7395,0.0,0.0,0.0,0.0,0.0,0.0,0.0,0.0,2.9318,2.9692,3.0104,0.0,3.343,3.3061,3.3692,3.4104,0.0,3.3409,3.3772,3.3349,3.4109,3.4558,3.3853,3.4602,3.5372,3.5301,3.6677,3.8307,3.9979,4.306,4.5878,4.7826,4.8669,4.9194,4.9494,4.9539,4.9015,4.7848,4.7608,4.701,4.5813,4.4975,4.4398,4.4157,4.387,4.4555,4.6279,4.6123,4.6061,4.6046,4.6046,4.6344,4.6908,4.7073,4.7139,4.7173,4.7769,4.7371,4.6344,4.6941,4.7139,4.7073,4.6344,4.651,4.704,4.6146,4.5914,4.5914,0.0,0.0,0.0,0.0,0.0,0.0,0.0,0.0,0.0,0.0,0.0,0.0,0.0,0.0,0.0,0.0,0.0,0.0,0.0,0.0,0.0,0.0,0.0,2.3223,2.4942,2.5504,2.6774,2.8861,2.8397,2.8066,2.7966,2.6862,2.5631,2.4275,2.355,2.2895,2.225,2.218,2.2376,2.2755,2.2928,0.0,0.0,0.0,0.0,0.0,2.7218,2.7454,0.0,2.8719,2.9081,2.9286,0.0,0.0,0.0,0.0,2.9656,2.9819,2.9935,3.1035,3.2136,3.2027,3.2713,3.3263,3.2725,3.2861,3.305,3.2762,3.3376,3.3995,3.3943,3.4723,3.5673,3.6459,3.7727,3.9325,4.1463,4.4075,4.6394,4.7842,4.8235,4.8685,4.9374,4.8805,4.8087,4.7369,4.6741,4.6052,4.5334,4.4107,4.3269,4.294,4.201,4.2238,4.3746,4.412,4.4494,4.4847,4.5438,4.6157,4.6908,4.7239,4.7404,4.7438,4.7835,4.7537,4.6841,4.7239,4.7404,4.7273,4.5894,4.5991,4.6677,4.4973,4.4739,4.5185,0.0,0.0,0.0,0.0,0.0,0.0,0.0,0.0,0.0,0.0,0.0,0.0,0.0,0.0,0.0,0.0,0.0,0.0,0.0,0.0,0.0,0.0,2.2711,2.3506,2.5127,2.6148,2.7611,2.9565,2.947,2.9204,2.8742,2.7696,2.6326,2.473,2.3655,2.2942,2.2577,2.2831,2.2715,2.2454,2.3231,0.0,0.0,0.0,0.0,0.0,0.0,0.0,0.0,2.8567,2.8791,2.9014,2.9906,0.0,0.0,0.0,0.0,0.0,3.0799,3.1408,3.1928,3.1885,3.2368,3.2863,3.2942,3.2572,3.2218,3.2218,3.2836,3.3522,3.4046,3.4938,3.6099,3.7577,3.858,4.0233,4.3329,4.4736,4.5903,4.7203,4.7309,4.7728,4.8954,4.7878,4.71,4.701,4.5843,4.5065,4.4855,4.3309,4.2321,4.2111,4.1085,4.0788,4.1219,4.1956,4.2768,4.3654,4.4945,4.596,4.6747,4.7473,4.7836,4.7835,4.7968,0.0,4.7338,4.7438,4.7438,4.7108,4.4984,4.5048,4.6089,4.3421,4.3252,4.4301,0.0,0.0,0.0,0.0,0.0,0.0,0.0,0.0,0.0,0.0,0.0,0.0,0.0,0.0,0.0,0.0,0.0,0.0,0.0,0.0,0.0,2.3335,2.4033,2.5276,2.7123,2.7676,2.8957,3.1078,3.0963,3.0451,2.9602,2.9672,2.8191,2.5416,2.4391,2.353,2.2927,2.2672,2.2634,2.2732,2.3045,0.0,0.0,0.0,0.0,0.0,0.0,0.0,0.0,2.8299,2.8768,2.9123,2.8916,0.0,0.0,0.0,0.0,0.0,3.2069,3.3114,3.3724,3.2448,3.2624,3.2942,3.2463,3.2273,3.2218,3.2218,3.3496,3.4641,3.4752,3.6968,3.8707,3.8484,4.034,4.2765,4.5448,4.601,4.6484,4.7448,4.7396,4.7456,4.7839,4.7006,4.6232,4.5633,4.4885,4.3988,4.292,4.256,4.1901,4.0726,4.1055,4.104,4.0581,4.125,4.2237,4.3556,4.4348,4.5147,4.5893,4.664,4.7043,4.7106,0.0,4.6576,4.4327,4.4953,4.4854,4.4067,4.1983,4.2418,4.4008,4.2354,4.2255,4.2997,0.0,0.0,0.0,0.0,0.0,0.0,0.0,0.0,0.0,0.0,0.0,0.0,0.0,0.0,0.0,0.0,0.0,0.0,0.0,0.0,2.3214,2.3764,2.5237,2.6589,2.7604,2.8652,3.0269,3.2457,3.217,3.1997,3.2044,3.0112,2.814,2.6081,2.4463,2.3495,2.3006,2.2847,2.2743,2.2678,0.0,0.0,0.0,0.0,0.0,0.0,0.0,0.0,0.0,0.0,2.8053,2.856,2.8195,0.0,0.0,0.0,0.0,0.0,3.1803,3.276,3.3603,3.3716,3.4266,3.4783,3.4481,3.4279,3.4136,3.4136,3.4804,3.5605,3.6249,3.8086,4.0011,4.1429,4.2935,4.4377,4.5592,4.5753,4.6065,4.6809,4.6484,4.6394,4.6869,4.5885,4.5095,4.4796,4.4167,4.3359,4.244,4.2081,4.1602,4.0935,4.0876,4.1055,4.1482,4.1428,4.2102,4.3505,4.4226,4.475,4.5179,4.5498,4.5913,4.629,0.0,4.5927,4.5384,4.5317,4.5086,4.4596,4.2459,4.2462,4.3556,4.2519,4.2574,4.3174,0.0,0.0,0.0,0.0,0.0,0.0,0.0,0.0,0.0,0.0,0.0,0.0,0.0,0.0,0.0,0.0,0.0,0.0,0.0,0.0,2.3246,2.3877,2.5951,2.74,2.8146,2.9892,3.1763,3.3651,3.3555,3.3676,3.4084,3.0499,2.8241,2.7158,2.5057,2.39,2.34,2.3191,2.2871,2.2537,0.0,0.0,0.0,0.0,0.0,0.0,0.0,0.0,0.0,0.0,0.0,0.0,0.0,0.0,0.0,2.9373,2.9866,3.0675,3.1558,3.2348,3.3214,3.4534,3.536,3.597,3.671,3.6448,3.62,3.663,3.6819,3.7221,3.8157,3.9517,4.137,4.4086,4.5095,4.5574,4.5753,4.5633,4.5723,4.6219,4.5723,4.5514,4.6022,4.5005,4.4317,4.4317,4.3678,4.306,4.244,4.1931,4.1572,4.1422,4.0876,4.1115,4.2171,4.1662,4.2025,4.3264,4.3631,4.392,4.4189,4.4189,4.4516,4.5074,4.4885,4.5147,4.5626,4.5388,4.5092,4.4611,4.2621,4.2233,4.2687,4.243,4.2772,4.3386,0.0,0.0,0.0,0.0,0.0,0.0,0.0,0.0,0.0,0.0,0.0,0.0,0.0,0.0,0.0,0.0,0.0,0.0,0.0,0.0,2.3151,2.3505,2.5587,2.7693,2.9753,3.1913,3.3461,3.4505,3.5346,3.5334,3.4497,3.1645,2.9939,2.9124,2.7022,2.5543,2.4612,2.3809,2.3094,2.2537,2.3086,0.0,0.0,0.0,0.0,0.0,0.0,0.0,0.0,0.0,0.0,0.0,0.0,0.0,2.9371,2.9756,3.0403,3.1267,3.2167,3.2848,3.3446,3.431,3.4403,3.5029,3.7872,3.7681,3.7391,3.9071,3.9867,4.0285,4.0382,4.1902,4.3589,4.5005,4.5813,4.6471,4.707,4.6621,4.6262,4.6279,4.5723,4.5304,4.5364,4.4736,4.4317,4.4317,4.3678,4.306,4.244,4.2351,4.2051,4.1414,4.1324,4.1354,4.1444,4.1414,4.1752,4.2458,4.1888,4.197,4.2654,4.2654,4.2739,4.2995,4.4266,4.375,4.2057,4.3257,4.3005,4.1646,4.0228,3.9719,3.9946,4.114,4.2045,4.2772,0.0,0.0,0.0,0.0,0.0,0.0,0.0,0.0,0.0,0.0,0.0,0.0,0.0,0.0,0.0,0.0,0.0,0.0,0.0,2.3022,2.3174,2.3511,2.5252,2.7115,2.9042,3.215,3.4313,3.552,3.6456,3.6306,3.5021,3.2629,3.0954,2.9834,2.766,2.6352,2.579,2.4944,2.4322,2.3911,2.3983,2.4289,0.0,0.0,0.0,0.0,0.0,0.0,0.0,0.0,2.6911,2.739,2.699,2.775,2.8796,2.9108,2.9234,2.958,3.0839,3.1622,3.2368,3.3728,3.4455,3.5571,3.8364,3.9373,4.006,4.1135,4.1853,4.2387,4.2842,4.3111,4.3928,4.5663,4.5783,4.5933,4.6591,4.6112,4.5544,4.5125,4.4855,4.4526,4.4107,4.3798,4.3678,4.3678,4.3439,4.288,4.1841,4.1782,4.1265,4.0187,4.0157,4.0157,4.0157,3.9738,3.9649,3.9888,4.0905,4.1333,4.1206,4.1206,4.149,4.1991,4.1635,4.1781,4.2205,4.1819,4.1596,4.1406,4.0438,4.0099,4.0208,4.0693,4.1591,4.2585,0.0,0.0,0.0,0.0,0.0,0.0,0.0,0.0,0.0,0.0,0.0,0.0,0.0,0.0,0.0,0.0,0.0,0.0,2.3022,2.3022,2.3117,2.3314,2.4828,2.6336,2.7691,3.1407,3.4144,3.5687,3.6453,3.6287,3.519,3.3231,3.1931,3.116,2.8752,2.763,2.7397,2.61,2.5357,2.5084,2.4761,2.4845,0.0,0.0,0.0,0.0,0.0,0.0,0.0,0.0,2.6693,2.7105,2.695,2.7428,2.8208,2.9025,2.8992,2.8969,3.0105,3.0887,3.1723,3.3156,3.4646,3.6456,3.9068,4.0695,4.2043,4.3329,4.3778,4.4098,4.4579,4.4088,4.4158,4.5785,4.562,4.5454,4.5933,4.5244,4.4496,4.4047,4.3838,4.3449,4.2791,4.291,4.294,4.2731,4.2701,4.2312,4.1482,4.1422,4.0876,3.9768,3.9493,3.932,3.911,3.8422,3.8093,3.8093,3.9469,4.0008,3.9768,3.9559,3.9883,4.0572,3.9825,4.0324,4.1574,4.105,4.0952,4.1127,4.0409,4.013,4.0196,4.0409,4.1093,4.1884,0.0,0.0,0.0,0.0,0.0,0.0,0.0,0.0,0.0,0.0,0.0,0.0,0.0,0.0,0.0,0.0,0.0,0.0,2.3006,2.3006,2.3006,2.3006,2.4291,2.5326,2.6048,2.9768,3.2714,3.4816,3.519,3.519,3.4774,3.3368,3.2954,3.3265,3.0636,2.947,2.9434,2.727,2.6106,2.577,2.5316,2.5563,2.619,0.0,0.0,0.0,0.0,0.0,0.0,0.0,2.6303,2.6189,2.7833,0.0,0.0,2.9618,3.0024,2.9975,3.0314,3.0997,3.178,3.2596,3.482,3.744,3.9993,4.1507,4.308,4.5783,4.5783,4.5382,4.5493,4.4849,4.4569,4.537,4.5395,4.5274,4.5274,4.4167,4.329,4.329,4.2761,4.2141,4.1482,4.2021,4.2141,4.1482,4.1422,4.1384,4.1354,4.1392,4.1055,4.0397,3.9738,3.905,3.8392,3.7734,3.7404,3.7404,3.7404,3.7734,3.8362,3.7704,3.7764,3.8427,3.9157,3.9496,3.9591,4.0945,4.1093,4.0409,3.9696,3.9373,3.9481,4.02,4.0478,4.0581,0.0,0.0,0.0,0.0,0.0,0.0,0.0,0.0,0.0,0.0,0.0,0.0,0.0,0.0,0.0,0.0,0.0,0.0,2.2656,2.2641,2.2641,2.2641,2.3255,2.4271,2.5793,2.9104,3.2333,3.542,3.5123,3.4689,3.4077,3.2784,3.2147,3.194,3.0853,2.9962,2.9294,2.8035,2.7162,2.6563,2.6243,2.599,2.596,0.0,0.0,0.0,0.0,0.0,0.0,0.0,0.0,0.0,2.6582,0.0,2.7929,2.8709,2.9092,2.9376,3.0025,3.0377,3.095,3.2645,3.465,3.6997,4.0274,4.2041,4.3818,4.6641,4.7163,4.7114,4.7049,4.6528,4.5949,4.5565,4.5078,4.4725,4.4608,4.3479,4.2641,4.2641,4.253,4.2141,4.1482,4.2021,4.2141,4.1482,4.1422,4.0965,4.0038,4.0008,3.929,3.7704,3.7464,3.7255,3.7045,3.6387,3.6297,3.6746,3.6297,3.6656,3.7704,3.7494,3.7524,3.7704,3.7944,3.8016,3.8077,3.8983,3.946,3.9702,3.9481,3.9373,3.9409,3.9661,4.0056,4.0443,0.0,0.0,0.0,0.0,0.0,0.0,0.0,0.0,0.0,0.0,2.1888,2.1831,0.0,0.0,0.0,0.0,0.0,0.0,0.0,2.2482,2.2482,2.2482,2.2688,2.3917,2.6371,2.8911,3.1692,3.461,3.4017,3.3422,3.2809,3.2265,3.2002,3.1899,3.1422,3.0822,3.0045,2.9001,2.8035,2.7302,2.6943,2.6656,2.6418,0.0,0.0,0.0,0.0,0.0,0.0,0.0,0.0,0.0,2.6042,2.6581,2.7377,2.8397,2.8818,2.91,2.9899,3.0514,3.14,3.343,3.5394,3.7831,4.1584,4.3515,4.5101,4.7109,4.7441,4.7428,4.7707,4.6993,4.6197,4.5662,4.4949,4.4381,4.3992,4.3046,4.241,4.241,4.2171,4.1752,4.1055,4.1392,4.1362,4.0666,4.0606,4.0127,3.908,3.902,3.8242,3.6537,3.6477,3.6477,3.6477,3.6088,3.6207,3.6836,3.6447,3.6656,3.7404,3.7165,3.7165,3.7404,3.7404,3.7404,3.7434,3.7853,3.8242,3.8631,3.8631,3.8631,3.8661,3.8901,3.9274,3.9656,0.0,0.0,2.3022,2.3022,0.0,0.0,0.0,0.0,0.0,0.0,2.1945,2.1888,0.0,0.0,0.0,0.0,0.0,0.0,0.0,0.0,2.2482,2.2482,2.2711,2.4365,2.7586,2.9106,3.0872,3.2938,3.2338,3.1857,3.1646,3.1933,3.2315,3.2752,3.2182,3.1705,3.1146,2.9798,2.8669,2.7821,2.7475,2.7309,2.7309,2.7309,0.0,0.0,0.0,0.0,0.0,0.0,0.0,0.0,2.6045,2.6151,2.6373,2.848,2.8956,2.9008,2.9991,3.1112,3.249,3.4602,3.6936,3.9664,4.3426,4.5304,4.6413,4.7252,4.6973,4.6842,4.7566,4.661,4.5659,4.5516,4.4881,4.4148,4.3346,4.266,4.2308,4.2291,4.1722,4.1055,4.0457,4.0397,4.0098,3.9379,3.932,3.899,3.8272,3.8212,3.7644,3.6447,3.6387,3.6417,3.6477,3.6417,3.6716,3.7315,3.7315,3.7315,3.7315,3.6806,3.6866,3.7404,3.7345,3.7345,3.7404,3.7345,3.7375,3.7404,3.7404,3.7404,3.7494,3.8093,3.8302,3.8392,0.0,0.0,2.3022,2.3022,0.0,0.0,0.0,0.0,0.0,0.0,0.0,0.0,0.0,2.2513,0.0,0.0,0.0,0.0,0.0,0.0,2.2482,2.2482,2.4406,2.6305,2.7996,2.9404,3.0829,3.238,3.215,3.2621,3.3576,3.2831,3.2768,3.3203,3.2105,3.1095,3.0046,2.8969,2.8098,2.7434,2.7351,2.7309,2.7309,2.7309,2.7309,0.0,0.0,0.0,0.0,0.0,0.0,0.0,2.5935,2.6174,2.6705,2.7964,2.8522,2.9116,3.0945,3.1339,3.2,3.5197,3.8878,4.2141,4.3883,4.4945,4.5763,4.6628,4.7224,4.7486,4.7088,4.6353,4.5372,4.4174,4.3881,4.3318,4.2047,4.1717,4.1602,4.1648,4.0995,4.0546,4.0397,4.0397,3.9888,3.8691,3.8601,3.8123,3.6956,3.6896,3.6537,3.5729,3.5729,3.5968,3.6477,3.5968,3.6028,3.6686,3.6686,3.6686,3.6686,3.7045,3.7285,3.7375,3.6896,3.6956,3.7375,3.6896,3.6956,3.7404,3.7404,3.7404,3.7434,3.7554,3.7614,3.7704,0.0,0.0,0.0,0.0,0.0,0.0,0.0,0.0,0.0,0.0,0.0,0.0,0.0,2.2432,0.0,0.0,2.2458,0.0,0.0,0.0,2.2307,2.2482,2.5044,2.6809,2.7414,2.9166,3.073,3.2076,3.1912,3.2495,3.3671,3.3224,3.3282,3.3734,3.2573,3.137,3.0242,2.9112,2.8126,2.7309,2.7309,2.7309,2.7309,2.7309,2.7309,2.7268,2.704,0.0,0.0,0.0,0.0,0.0,0.0,0.0,2.6431,2.7236,2.7988,2.8895,3.0367,3.1293,3.2607,3.6019,3.935,4.2095,4.3228,4.3742,4.427,4.5162,4.6088,4.6642,4.6324,4.5737,4.4898,4.3742,4.327,4.2678,4.1541,4.1407,4.1382,4.14,4.0816,4.0277,3.9948,3.9619,3.902,3.8003,3.7913,3.7494,3.6537,3.6477,3.6178,3.5519,3.5519,3.5818,3.6477,3.6148,3.6297,3.6926,3.6926,3.7105,3.7404,3.7404,3.7584,3.7823,3.6896,3.6656,3.6926,3.6267,3.6207,3.6507,3.6507,3.6507,3.6537,3.6836,3.6956,3.7045,0.0,0.0,0.0,0.0,0.0,0.0,0.0,0.0,0.0,0.0,0.0,0.0,0.0,0.0,2.2065,0.0,0.0,0.0,0.0,0.0,0.0,2.2561,2.5061,2.661,2.6824,2.872,3.0558,3.2174,3.1779,3.2344,3.3768,3.3738,3.3939,3.4357,3.3147,3.1927,3.068,2.9323,2.8187,2.7176,2.7176,2.7217,2.7232,2.7232,2.7185,2.7185,2.7185,2.6936,2.6625,2.6671,0.0,0.0,0.0,0.0,2.6066,2.664,2.7348,2.817,2.9227,3.1043,3.3433,3.671,3.9004,4.0785,4.1981,4.2351,4.2618,4.3296,4.4338,4.5149,4.5241,4.4637,4.3952,4.3322,4.2621,4.1925,4.1163,4.1152,4.1175,4.1063,4.0576,3.9978,3.932,3.8721,3.8063,3.7315,3.7255,3.6985,3.6357,3.6327,3.6058,3.5519,3.5519,3.5759,3.6297,3.6327,3.6567,3.7075,3.7195,3.7584,3.8212,3.7764,3.7883,3.8332,3.7285,3.6746,3.6596,3.5938,3.5729,3.5818,3.5579,3.5579,3.5729,3.6148,3.6327,3.6417,0.0,0.0,0.0,0.0,0.0,0.0,0.0,0.0,0.0,0.0,2.2965,2.2823,0.0,0.0,0.0,2.2043,2.2011,0.0,0.0,0.0,0.0,2.2927,2.4653,2.627,2.7691,2.8666,3.0333,3.2883,3.1953,3.3236,3.6418,3.5322,3.4987,3.526,3.3373,3.1712,3.017,2.8563,2.7433,2.6671,2.6671,2.6813,2.694,2.694,2.6847,2.6708,2.6708,2.6667,2.6625,2.6857,2.6907,0.0,0.0,0.0,2.6303,2.6681,2.6422,2.6372,2.8249,3.0537,3.3245,3.6665,3.8102,3.9113,4.056,4.134,4.1686,4.1232,4.2434,4.3578,4.3606,4.2658,4.1814,4.1723,4.1168,4.0515,3.9781,4.0233,4.037,3.9751,3.9619,3.929,3.8601,3.8452,3.7883,3.6686,3.6596,3.6327,3.5669,3.5639,3.5579,3.5519,3.5519,3.5549,3.5639,3.5639,3.5669,3.5759,3.6327,3.6926,3.7554,3.8033,3.8302,3.8392,3.8212,3.7823,3.7225,3.6596,3.6656,3.7045,3.5938,3.5848,3.6297,3.5818,3.5639,3.5818,0.0,0.0,0.0,0.0,0.0,0.0,0.0,0.0,0.0,0.0,0.0,2.3839,0.0,0.0,0.0,2.1679,0.0,0.0,0.0,0.0,0.0,2.2418,2.3863,2.5237,2.6465,2.7606,2.9327,3.1708,3.1584,3.3107,3.607,3.609,3.6493,3.7023,3.4844,3.3173,3.1972,2.933,2.8029,2.7563,2.6856,2.6542,2.6571,2.6982,2.6735,2.6273,2.6798,2.6903,2.6857,2.6903,2.721,2.7433,2.6602,0.0,0.0,0.0,2.6296,2.7046,2.9471,3.0813,3.223,3.5442,3.6592,3.727,3.8437,3.9081,3.9591,3.9927,4.0739,4.1489,4.198,4.1398,4.0816,4.0816,4.0299,3.9652,3.8936,3.9425,3.9466,3.8427,3.8601,3.8452,3.7434,3.7315,3.6926,3.5998,3.5938,3.5818,3.5519,3.5519,3.5519,3.5519,3.5519,3.5519,3.5519,3.5519,3.5519,3.5519,3.5789,3.6267,3.6896,3.7195,3.7524,3.7853,3.8242,3.8033,3.7375,3.7105,3.7165,3.7345,3.6776,3.6537,3.6447,3.6178,3.5818,3.5579,0.0,0.0,0.0,0.0,0.0,0.0,0.0,0.0,0.0,0.0,0.0,0.0,0.0,0.0,0.0,0.0,2.2013,0.0,0.0,0.0,0.0,2.2097,2.3279,2.4434,2.539,2.6586,2.8434,3.0913,3.112,3.2754,3.5757,3.6436,3.7391,3.8402,3.6251,3.4555,3.3137,3.0343,2.908,2.8768,2.7437,2.6889,2.695,2.7388,2.6901,2.6133,2.6918,2.6977,2.6659,2.6855,2.7377,2.7818,2.6804,2.6793,0.0,0.0,0.0,2.6994,2.927,2.9865,3.0613,3.3405,3.4736,3.5539,3.6508,3.716,3.7736,3.8346,3.8854,3.9359,3.9682,4.0114,4.0397,4.0397,3.9709,3.896,3.8452,3.8691,3.8601,3.7764,3.7943,3.7764,3.6806,3.6567,3.6207,3.5549,3.5519,3.5519,3.5519,3.5519,3.5519,3.5519,3.5519,3.5519,3.5519,3.5519,3.5519,3.5519,3.5519,3.5759,3.6237,3.6417,3.6656,3.6985,3.7973,3.8212,3.7913,3.7734,3.7764,3.7883,3.7524,3.7135,3.6716,3.6537,3.6058,3.5519,0.0,0.0,0.0,0.0,0.0,0.0,0.0,0.0,0.0,0.0,0.0,0.0,2.5206,2.5151,2.4823,2.4003,2.3949,2.375,2.3256,2.2621,0.0,2.2267,2.3144,0.0,2.539,2.6045,2.8053,3.1529,3.0567,3.245,3.6907,3.6384,3.7063,3.8637,3.7079,3.4919,3.2394,3.1048,3.0399,3.0064,2.841,2.8179,2.878,2.8318,2.7459,2.6519,2.6821,2.6368,2.5821,2.6709,2.7451,2.7891,2.739,2.7459,2.7371,0.0,0.0,0.0,2.5492,2.6711,2.8274,3.0388,3.2449,3.4169,3.5165,3.6359,3.6907,3.5831,3.6754,3.7382,3.6284,3.846,4.0397,4.0397,3.929,3.8422,3.8392,3.7883,3.7704,3.8272,3.7823,3.7434,3.7375,3.6836,3.6207,3.5549,3.5519,3.5519,3.5519,3.5519,3.5519,3.5519,3.5519,3.5519,3.5519,3.5519,3.5519,3.5519,3.5519,3.5519,3.5579,3.6207,3.6178,3.5699,3.7584,3.8751,3.926,3.8601,3.8721,3.92,3.7913,3.7375,3.7285,3.6716,3.6058,3.5579,0.0,0.0,0.0,0.0,0.0,0.0,0.0,0.0,0.0,0.0,0.0,0.0,0.0,2.5451,2.5157,2.4449,2.4196,2.4048,2.385,2.3261,0.0,2.2435,2.2553,2.3404,2.4956,2.5112,2.6789,3.0119,3.0013,3.1297,3.3866,3.5027,3.5704,3.5992,3.6412,3.5859,3.4412,3.179,3.0985,3.118,2.8896,2.8397,2.9035,2.9261,2.8509,2.7483,2.8528,2.8208,2.7391,2.7655,2.8187,2.8536,2.7611,2.7569,2.761,2.6211,2.5267,2.4964,2.6285,2.6621,2.7192,2.9552,3.1514,3.2844,3.2791,3.4027,3.502,3.4419,3.4706,3.5068,3.5217,3.6836,3.8045,3.7708,3.7247,3.6787,3.647,3.6564,3.665,3.6529,3.6716,3.6656,3.6237,3.5998,3.5759,3.5519,3.5519,3.5519,3.5519,3.5519,3.5519,3.5519,3.5519,3.5519,3.5519,3.5519,3.5519,3.5519,3.5519,3.5519,3.5519,3.5759,3.5968,3.6178,3.6866,3.7315,3.7584,3.8153,3.8272,3.8123,3.8063,3.7524,3.6776,3.6567,3.6058,3.5549,0.0,0.0,0.0,0.0,0.0,0.0,0.0,0.0,0.0,2.8649,0.0,0.0,0.0,0.0,2.6053,2.546,2.508,2.4884,2.4884,2.4245,2.3669,2.332,2.312,2.3732,2.5285,2.5078,2.6368,2.9363,2.9648,3.0606,3.222,3.3913,3.4711,3.4737,3.5574,3.5711,3.5252,3.2895,3.2223,3.2531,3.0089,2.9633,3.031,3.0368,2.974,2.8922,2.9803,2.9553,2.8803,2.8826,2.9114,2.9395,2.8492,2.7976,2.755,2.6604,2.5727,2.5243,2.6179,2.6177,2.6358,2.8327,2.9956,3.1116,3.1295,3.2434,3.3357,3.3104,3.3206,3.3388,3.3772,3.4728,3.5587,3.5742,3.5789,3.5571,3.503,3.5305,3.5682,3.5777,3.6194,3.6387,3.6178,3.5938,3.5729,3.5519,3.5519,3.5519,3.5519,3.5519,3.5519,3.5519,3.5519,3.5519,3.5519,3.5519,3.5519,3.5519,3.5519,3.5519,3.5519,3.5519,3.5729,3.6148,3.6148,3.6417,3.6866,3.7704,3.7793,3.7464,3.7883,3.7404,3.6477,3.6477,3.6058,3.5519,0.0,0.0,0.0,0.0,0.0,0.0,0.0,0.0,2.9456,2.9911,0.0,0.0,0.0,0.0,0.0,2.7372,2.6853,2.6564,2.6496,2.5538,2.4933,2.4933,0.0,0.0,2.6388,2.5962,2.6986,2.9435,2.9332,3.0286,3.2223,3.3142,3.4136,3.5182,3.4633,3.4432,3.4538,3.4185,3.4118,3.4063,3.203,3.192,3.2793,3.1689,3.1069,3.0811,3.0478,3.0155,2.9888,3.0013,3.0229,3.0379,3.0097,2.8757,2.7267,2.7226,2.6445,2.5461,0.0,0.0,0.0,2.6513,2.7666,2.9034,3.0792,3.1635,3.1988,3.1798,3.2215,3.2489,3.1902,3.2306,3.3262,3.4855,3.5068,3.4834,3.4253,3.4266,3.4772,3.6148,3.6423,3.6746,3.7315,3.6836,3.6207,3.5549,3.5519,3.5519,3.5519,3.5519,3.5519,3.5519,3.5519,3.5519,3.5519,3.5519,3.5519,3.5519,3.5519,3.5519,3.5519,3.5519,3.5519,3.5519,3.5519,3.6207,3.7345,3.7375,3.7375,3.7345,3.7375,3.7015,3.6447,3.6447,3.6058,3.5519,0.0,0.0,0.0,0.0,0.0,0.0,2.9994,2.9601,2.9352,0.0,0.0,0.0,2.8152,2.8007,2.7883,2.7738,2.7592,2.7421,2.7092,2.6428,2.5897,2.5489,2.5099,2.5324,2.6147,2.5571,2.6166,2.812,2.8474,2.9092,3.001,3.1549,3.245,3.2789,3.3509,3.3502,3.2998,3.2924,3.3457,3.4182,3.2211,3.2199,3.332,3.2592,3.2225,3.2169,3.2054,3.1813,3.1455,3.1521,3.154,3.1436,3.0741,2.952,2.8315,2.8131,2.7649,2.6994,2.6244,0.0,0.0,0.0,0.0,0.0,2.829,2.9386,3.052,3.074,3.1149,3.1548,3.1745,3.2306,3.283,3.3313,3.3005,3.297,3.3782,3.41,3.4704,3.6099,3.6744,3.7045,3.6776,3.6596,3.6207,3.5549,3.5519,3.5519,3.5519,3.5519,3.5519,3.5519,3.5519,3.5519,3.5519,3.5519,3.5519,3.5519,3.5519,3.5519,3.5519,3.5519,3.5519,3.5519,3.5519,3.5699,3.6058,3.6537,3.6447,3.6088,3.6567,3.6357,3.5789,3.5789,3.5669,3.5519,0.0,0.0,0.0,0.0,0.0,3.1355,3.1893,3.1576,3.1272,0.0,0.0,0.0,2.897,2.8951,2.8733,2.7966,2.7924,2.7738,2.733,2.7023,2.6688,2.638,2.5945,2.6119,2.6887,2.6171,2.6358,2.7481,2.8332,2.8787,2.8846,3.0637,3.1562,3.1823,3.2528,3.2723,3.254,3.2266,3.2696,3.3491,3.2436,3.2632,3.3561,3.3195,3.3195,3.3378,3.3143,3.3079,3.3037,3.2791,3.271,3.2541,3.176,3.0678,2.9623,2.948,2.8858,2.8051,2.7383,2.7301,2.7219,2.612,0.0,0.0,2.7729,2.8708,2.9744,2.9888,3.0121,3.0451,3.0988,3.1354,3.1784,3.2254,3.2032,3.2161,3.3221,3.3745,3.4538,3.5996,3.6843,3.7297,3.728,3.7045,3.6596,3.5968,3.5669,3.5519,3.5519,3.5519,3.5519,3.5519,3.5519,3.5519,3.5519,3.5519,3.5519,3.5519,3.5519,3.5519,3.5519,3.5519,3.5519,3.5519,3.5519,3.5519,3.5519,3.5908,3.5848,3.5579,3.6237,3.6088,3.5549,3.5818,3.5908,3.5908,0.0,0.0,0.0,3.2285,3.2701,3.3375,3.463,3.436,3.4032,0.0,3.325,3.2199,3.0865,3.0805,3.0255,2.8572,2.8397,2.8118,2.7473,2.7478,2.7478,2.7357,2.7119,2.7309,2.7998,2.7366,2.7062,2.7282,2.8552,2.8939,2.8426,3.019,3.1261,3.1719,3.1771,3.2058,3.2463,3.2019,3.198,3.2278,3.2607,3.3078,3.3628,3.3628,3.3968,3.4319,3.3796,3.3927,3.4319,3.3849,3.3639,3.3509,3.296,3.203,3.1108,3.1032,3.0088,2.8983,2.845,2.8059,2.7726,2.7485,2.783,0.0,2.8333,2.8863,2.9295,2.9269,2.9262,2.9434,3.0027,3.0147,3.0511,3.1603,3.1876,3.2124,3.2725,3.342,3.4448,3.5899,3.6785,3.7558,3.8216,3.7819,3.7225,3.6537,3.5878,3.5519,3.5519,3.5519,3.5519,3.5519,3.5519,3.5519,3.5519,3.5519,3.5519,3.5519,3.5519,3.5519,3.5519,3.5519,3.5519,3.5519,3.5519,3.5519,3.5519,3.5519,3.5519,3.5579,3.6237,3.6118,3.5699,3.6357,3.6537,3.6507,0.0,0.0,3.1745,3.2583,3.3321,3.3994,3.4682,3.436,3.4147,3.4567,3.4208,3.3903,3.3874,3.3252,3.2464,3.1656,3.1371,3.0429,2.8556,2.8795,2.8563,2.7594,2.7715,2.7857,2.7998,2.769,2.7355,2.7038,2.8468,2.8939,2.8426,3.019,3.1052,3.1182,3.1588,3.1615,3.1377,3.1832,3.1742,3.1354,3.2463,3.3317,3.3831,3.3831,3.4091,3.4319,3.3796,3.3927,3.4371,3.4267,3.3953,3.3561,3.3456,3.2932,3.228,3.1772,3.1306,3.0751,2.9674,2.9799,2.9781,2.7876,2.8183,0.0,2.8278,2.8118,2.8221,2.8924,2.9101,2.9389,3.0163,3.042,3.0733,3.1367,3.2158,3.2843,3.3364,3.4099,3.492,3.569,3.71,3.7833,3.7463,3.789,3.7734,3.6567,3.5878,3.5519,3.5519,3.5519,3.5519,3.5519,3.5519,3.5519,3.5519,3.5519,3.5519,3.5519,3.5519,3.5519,3.5519,3.5519,3.5519,3.5519,3.5519,3.5519,3.5519,3.5519,3.5519,3.5579,3.6237,3.6417,3.6357,3.7015,3.6926,3.6567,3.0339,3.1146,3.2265,3.3724,3.4788,3.5812,3.7063,3.6802,3.656,3.6802,3.6442,3.598,3.5604,3.4764,3.3761,3.2531,3.2043,0.0,0.0,2.9988,2.967,2.8724,2.8702,2.8631,2.842,2.7966,2.7581,2.7348,2.828,2.8695,2.8609,2.9922,3.0517,3.0581,3.1156,3.1104,3.0607,3.1382,3.1649,3.1612,3.2616,3.3133,3.3356,3.3933,3.4245,3.4371,3.4084,3.4162,3.4397,3.4397,3.4214,3.4005,3.4005,3.3613,3.3012,3.2437,3.1967,3.1435,3.0458,3.0497,3.0496,2.9222,2.9413,0.0,0.0,2.8913,2.8949,2.9127,2.8941,2.9057,3.008,2.9895,2.9909,3.0758,3.1185,3.1502,3.1779,3.3164,3.4553,3.5601,3.6203,3.6664,3.7016,3.7499,3.7469,3.6596,3.5878,3.5519,3.5519,3.5519,3.5519,3.5519,3.5519,3.5519,3.5519,3.5519,3.5519,3.5519,3.5519,3.5519,3.5519,3.5519,3.5519,3.5519,3.5519,3.5519,3.5519,3.5519,3.5519,3.5609,3.6567,3.6956,3.7015,3.7674,3.7704,3.7494,3.0422,3.1454,3.2893,3.4806,3.6189,3.7614,3.9268,0.0,3.8718,3.8667,3.839,3.7814,3.6947,3.6012,3.4893,3.3431,3.2526,0.0,3.1321,3.1202,3.0796,2.9919,2.9738,2.9396,2.8962,2.8267,2.7852,2.7766,2.8215,2.8573,2.8831,2.9767,3.0225,3.0357,3.079,3.0775,3.043,3.1088,3.168,3.2209,3.2867,3.3063,3.3118,3.4258,3.4709,3.4668,3.4677,3.4564,3.4397,3.4397,3.4397,3.4397,3.4397,3.411,3.3639,3.3038,3.2542,3.1967,3.1305,3.115,3.1099,3.0688,3.0816,3.0853,0.0,0.0,0.0,2.9454,2.8905,2.8834,2.9835,2.9277,2.8887,2.9731,2.9785,2.9667,2.9487,3.1313,3.3164,3.4658,3.4406,3.4763,3.6341,3.675,3.6821,3.6476,3.5839,3.5457,3.5519,3.5519,3.5519,3.5519,3.5519,3.5519,3.5519,3.5519,3.5519,3.5519,3.5519,3.5519,3.5519,3.5519,3.5519,3.5519,3.5519,3.5519,3.5519,3.5519,3.5579,3.5789,3.6836,3.7225,3.7315,3.7973,3.8123,3.8063,3.0657,3.2218,3.3734,3.4695,3.6501,0.0,0.0,0.0,3.8038,3.7802,3.8301,3.8653,3.8528,3.7559,3.6798,3.6578,3.5156,3.3866,3.3015,3.266,3.1864,3.0383,3.0365,3.0143,2.9616,2.8947,2.8366,2.7963,2.8905,0.0,0.0,0.0,3.0985,3.1167,3.106,3.1134,3.1442,3.1532,3.1863,3.2436,3.322,3.3689,3.4093,3.5356,3.5802,3.5714,3.5585,3.5073,3.4397,3.4397,3.4397,3.4397,3.4397,3.4345,3.4188,3.3666,3.3456,3.3273,3.2672,3.2682,3.2651,3.1617,3.1811,3.1914,3.0853,0.0,2.9707,2.9585,0.0,2.9174,2.9599,0.0,0.0,2.8082,2.8619,2.8773,2.776,2.853,2.9796,3.1519,3.177,3.2596,3.4656,3.5599,3.6108,3.6241,3.5613,3.5326,3.5519,3.5519,3.5519,3.5519,3.5519,3.5519,3.5519,3.5519,3.5519,3.5519,3.5519,3.5519,3.5519,3.5519,3.5519,3.5519,3.5519,3.5519,3.5519,3.5519,3.5848,3.6387,3.6537,3.6596,3.6656,3.7285,3.7165,3.6866,3.0932,3.2267,3.36,3.4438,0.0,0.0,0.0,0.0,3.841,3.8928,3.874,3.881,3.9651,3.8433,3.7422,3.7059,3.6074,3.5166,3.4441,3.399,3.3538,3.3157,3.2367,3.1649,3.0941,2.9591,2.869,2.8247,2.8415,0.0,0.0,0.0,0.0,3.1272,3.1086,3.1421,3.2082,3.2471,3.2863,3.3297,3.4264,3.4603,3.4675,3.5591,3.5929,3.5853,3.5426,3.4986,3.4679,3.4594,3.4566,3.4539,3.4459,3.4397,3.4293,3.3744,3.3587,3.3456,3.2855,3.2802,3.2774,3.2319,3.2098,3.1915,3.1447,3.0867,3.0443,3.0399,0.0,0.0,0.0,0.0,0.0,0.0,2.8386,2.7756,2.6775,2.6456,2.7399,3.0302,3.0237,3.0918,3.3436,3.4001,3.4607,3.5607,3.5069,3.471,3.4806,3.4806,3.4806,3.4806,3.4806,3.5034,3.5519,3.5519,3.5519,3.5519,3.5519,3.5519,3.5519,3.5519,3.5519,3.5519,3.5519,3.5519,3.5519,3.5519,3.5669,3.5908,3.5908,3.6357,3.7105,3.7734,3.7823,3.7734,3.1453,3.2417,3.3401,3.4023,3.4873,3.5855,0.0,3.7817,3.8685,3.934,3.9045,3.9122,4.0171,3.9037,3.8043,3.7734,3.682,3.6035,3.5547,3.4888,3.4571,3.4656,3.3672,3.2773,3.203,3.0336,2.9339,0.0,0.0,0.0,0.0,0.0,0.0,0.0,3.1397,3.1665,3.2336,3.3285,3.384,3.4082,3.5085,3.5409,3.5381,3.5892,3.602,3.592,3.543,3.5077,3.4901,3.4805,3.4858,3.4998,3.4835,3.494,3.5007,3.4607,3.45,3.4393,3.3887,3.3701,3.3503,3.3093,3.2541,3.2031,3.1679,3.1392,3.1209,3.1209,3.1026,0.0,0.0,0.0,0.0,0.0,0.0,2.7372,2.6206,2.5306,2.5837,2.8787,2.909,2.977,3.165,3.234,3.3155,3.4299,3.4111,3.3939,3.4007,3.4007,3.4109,3.4279,3.4312,3.4677,3.5519,3.5519,3.5519,3.5519,3.5519,3.5519,3.5519,3.5519,3.5519,3.5519,3.5519,3.5519,3.5519,3.5519,3.5519,3.5519,3.5699,3.6237,3.6956,3.7614,3.7853,3.8003,3.2239,3.2921,3.3514,3.3514,3.4626,3.5776,3.6611,3.7736,3.8357,3.8018,3.9123,3.9963,3.9914,3.9311,3.9015,3.9421,3.773,3.6501,3.6123,3.5332,3.451,3.3677,3.3469,3.309,3.2516,3.115,3.0462,3.0462,0.0,0.0,0.0,0.0,0.0,0.0,3.222,3.2053,3.2044,3.3788,3.4519,3.4541,3.5299,3.5912,3.6447,3.6473,3.635,3.6179,3.615,3.5617,3.492,3.4883,3.5311,0.0,0.0,3.6301,3.6816,3.6788,3.676,3.6749,3.6515,3.62,3.5529,3.4024,3.3301,3.2632,3.1337,3.1418,3.1771,3.1771,3.2228,3.262,3.2646,0.0,0.0,0.0,0.0,0.0,0.0,2.5218,2.5279,2.6292,2.8184,2.9253,2.8887,3.0651,3.1937,3.2076,3.2682,3.3101,3.3213,3.3248,3.3561,3.4279,3.4312,3.4677,3.5519,3.5519,3.5519,3.5519,3.5519,3.5519,3.5519,3.5519,3.5519,3.5519,3.5519,3.5519,3.5519,3.5519,3.5519,3.5579,3.6207,3.6088,3.5639,3.6297,3.6537,3.6716,3.2665,3.3165,3.3377,3.327,3.3859,3.4904,3.6585,3.7775,3.9015,4.0504,4.0797,4.1369,4.2694,4.2278,4.1595,4.0924,3.9708,3.864,3.7692,3.6384,3.5931,3.6436,3.5643,3.4881,3.4241,3.3075,3.2055,3.1217,3.1199,0.0,0.0,0.0,0.0,0.0,3.2366,3.2934,3.4306,3.5311,3.5747,3.561,3.5402,3.5792,3.6477,3.6477,3.6428,3.6344,3.5895,3.555,0.0,3.5158,3.5239,3.5425,3.5273,3.5377,3.5583,3.5583,3.5891,3.6238,0.0,0.0,3.627,3.4952,3.419,3.3434,3.2076,3.1897,3.1951,3.1836,3.2306,3.2698,3.2698,0.0,0.0,0.0,0.0,0.0,0.0,2.6457,2.5887,2.5972,2.7575,2.8698,2.8747,3.0213,3.1396,3.2031,3.2282,0.0,3.247,3.247,3.2577,3.2861,3.2834,3.3457,3.4677,3.471,3.4971,3.5519,3.5519,3.5519,3.5519,3.5519,3.5519,3.5519,3.5519,3.5519,3.5519,3.5519,3.5519,3.5579,3.6237,3.6357,3.6297,3.7345,3.7464,3.7285,3.3314,3.3452,3.3428,3.324,3.382,3.4829,3.6614,3.826,4.0028,4.2004,4.2326,4.2959,4.4588,4.4163,4.3369,4.2232,4.1469,4.0265,3.8494,3.7471,3.7025,3.7246,3.6515,3.5799,3.5179,3.4466,3.333,3.1853,3.2206,3.2237,0.0,0.0,0.0,0.0,3.2934,3.3311,3.4094,3.6015,3.6445,3.5862,3.5959,3.6197,3.6447,3.6237,3.6267,3.6387,0.0,3.5519,3.5451,3.5339,3.5463,3.5629,3.5517,3.5626,3.5798,3.5798,3.6093,3.6466,3.665,3.671,0.0,3.5315,3.4612,0.0,3.2493,3.2409,3.262,3.2581,3.2947,3.33,3.33,0.0,0.0,0.0,0.0,0.0,0.0,2.7088,2.6325,2.6172,2.7062,2.7923,2.8522,2.9372,3.0305,3.1294,3.1402,3.1485,0.0,3.1914,3.2132,3.2399,3.2426,3.3016,3.422,3.4293,3.4576,3.51,3.5359,3.5519,3.5519,3.5519,3.5519,3.5519,3.5519,3.5519,3.5519,3.5519,3.5639,3.5908,3.6567,3.6806,3.6956,3.8003,3.8272,3.8242,3.4079,3.386,3.376,3.3632,3.458,3.5752,3.6893,3.9222,4.131,4.254,4.3661,4.4661,4.5557,4.5033,4.4237,4.3342,4.283,4.1407,3.8722,3.8483,3.7806,3.6332,3.6219,3.594,3.5391,3.5274,3.4331,3.2463,3.3179,0.0,0.0,0.0,0.0,0.0,3.3847,3.3196,3.1724,3.5863,3.6741,3.5463,3.6827,3.7015,3.6447,3.5759,3.5908,3.6387,3.5729,3.5519,3.5519,3.5519,3.5908,3.6447,3.6447,3.6836,3.7315,3.7315,3.7345,3.7425,3.7907,3.7293,3.6293,3.5207,3.4574,0.0,0.0,0.0,3.3697,3.3885,3.4211,3.4481,3.4454,0.0,0.0,0.0,0.0,0.0,0.0,2.7229,2.6625,2.6806,2.6788,2.7103,2.8091,2.8251,2.8795,2.9923,3.0117,3.0424,3.0947,3.1522,3.2181,3.2911,3.2976,3.3385,3.4133,3.4215,3.4308,3.4438,3.5162,3.5519,3.5519,3.5519,3.5519,3.5519,3.5519,3.5519,3.5519,3.5519,3.5908,3.6537,3.7165,3.7434,3.7584,3.8182,3.8811,3.9373,3.4275,3.4889,3.5721,3.6407,3.6497,3.7064,3.8809,4.028,4.1894,4.3905,4.4549,4.5171,4.6043,4.5941,4.5348,4.4122,4.3322,4.2337,4.118,3.9778,3.8824,3.8424,3.7764,3.7168,3.6593,3.6519,3.6056,3.5131,3.4917,0.0,3.4513,0.0,0.0,0.0,3.3993,3.4098,3.4047,3.6549,3.7597,3.7541,3.6969,3.6896,3.7045,3.5938,3.5908,3.6387,3.5729,3.5519,3.5519,3.5519,3.5609,3.5759,3.5759,3.5878,3.5998,3.5998,3.6327,3.6776,3.6858,3.7058,3.6856,3.5573,3.4868,3.4149,0.0,0.0,0.0,0.0,0.0,0.0,0.0,0.0,0.0,0.0,0.0,0.0,2.9441,2.9057,2.8548,2.7639,2.794,2.8148,2.7975,2.9277,3.0125,3.0065,3.0644,3.0966,3.1011,3.1637,3.2067,3.2105,3.2539,3.3446,3.4806,3.4405,3.4761,3.5911,3.563,3.5519,3.5519,3.5519,3.5519,3.5519,3.5519,3.5519,3.5519,3.5519,3.5908,3.6537,3.7165,3.8033,3.8871,3.8512,3.8811,3.9373,3.5557,3.6279,3.7358,3.8504,3.8879,3.9242,3.9829,4.1083,4.2491,4.4049,4.4583,4.5077,4.5675,4.5789,4.5454,4.4407,4.3838,4.3131,4.2075,4.0986,4.0087,3.9254,3.8702,3.8039,3.7011,3.7011,3.6434,3.527,3.5314,0.0,3.4469,0.0,0.0,0.0,3.4216,3.4286,3.4161,3.6199,3.7746,3.8721,3.7404,3.7105,0.0,3.5998,3.5729,3.5998,3.5639,3.5519,3.5519,3.5519,3.5519,3.5519,3.5519,3.5519,3.5519,3.5519,3.5759,3.6118,3.6417,3.6537,3.6357,3.5552,3.5103,3.4612,3.3779,3.431,3.5045,0.0,3.5605,3.5614,0.0,0.0,0.0,3.1601,0.0,3.0823,3.0343,2.9935,2.9471,2.8846,2.9003,2.9001,2.851,2.9453,3.0011,2.9751,3.0404,0.0,0.0,3.178,3.2358,3.2319,3.2817,3.3542,3.4415,3.4502,3.4854,3.5438,3.5789,3.5789,3.5519,3.5519,3.5519,3.5519,3.5519,3.5519,3.5519,3.5519,3.6058,3.6985,3.7913,3.8751,3.9343,3.899,3.908,3.9373,3.7588,3.8168,3.9047,4.0148,4.1274,4.1641,4.0567,4.1833,4.3135,4.3779,4.4275,4.4655,4.4894,4.503,4.4915,4.4257,4.4197,4.3604,4.2281,4.2058,4.1239,3.9651,3.9343,3.8595,3.734,3.7082,3.6178,3.4576,3.5038,0.0,0.0,0.0,0.0,0.0,3.4477,3.4378,3.3736,3.5683,3.7643,3.9284,3.8063,3.7494,3.7285,3.6088,3.5579,3.5519,3.5519,3.5519,3.5519,3.5519,3.5519,3.5519,3.5519,3.5519,3.5519,3.5519,3.5519,3.5639,3.6207,3.5938,3.5446,3.5215,3.512,3.494,3.447,3.5102,3.5921,3.6221,3.608,3.5839,0.0,0.0,0.0,3.1261,3.1156,3.1209,3.1209,3.0573,3.0099,3.0125,3.0023,0.0,2.9276,2.9351,2.9431,2.9396,2.9964,3.0351,0.0,0.0,3.283,3.2948,3.3433,3.3773,3.3855,3.4788,3.4936,3.4397,3.5835,3.6148,3.5519,3.5519,3.5519,3.5519,3.5519,3.5549,3.5639,3.5639,3.6387,3.7674,3.8931,3.9373,3.9373,3.9373,3.9373,3.9403,4.0392,4.0892,4.1341,4.1641,4.2466,4.2906,4.2316,4.3119,4.3992,4.4691,4.4519,4.4374,4.4415,4.4456,4.4227,4.3529,4.3469,4.3369,4.309,4.2415,4.1852,4.1519,4.0043,3.9067,3.8809,3.7624,3.6862,3.6519,3.5713,0.0,0.0,0.0,0.0,3.3654,3.4615,3.5694,3.6805,3.6967,3.7982,3.9313,3.8542,3.7883,3.7315,3.6596,3.5968,3.5519,3.5519,3.5519,3.5519,3.5519,3.5519,3.5519,3.5519,3.5519,3.5519,3.5519,3.5519,3.5519,3.5639,3.5579,3.5356,3.4626,3.4486,3.4398,3.4207,3.4783,3.5559,3.6101,3.6597,3.6559,3.5442,0.0,0.0,3.1771,3.2097,3.2385,3.2385,3.2267,3.181,3.0851,3.1151,3.0842,2.9339,3.0083,3.047,2.9996,3.0824,3.1214,0.0,0.0,3.3053,0.0,3.3732,3.4612,0.0,0.0,3.5778,3.5834,3.631,3.6148,3.5519,3.5519,3.5519,3.5519,3.5519,3.5818,3.6297,3.6297,3.7075,3.8302,3.911,3.9373,3.9373,3.9373,3.9373,3.9499,4.2518,4.2825,4.3131,4.3495,4.4039,4.4324,4.408,4.4411,4.4381,4.3615,4.3537,4.3498,4.32,4.3519,4.3539,4.288,4.2821,4.2821,4.2821,4.2466,4.2144,4.2017,4.1113,4.0216,3.921,3.7906,3.7042,3.6541,3.5391,0.0,0.0,0.0,0.0,3.3952,3.4834,3.6057,3.7424,3.7729,3.8435,3.9313,3.8661,3.8003,3.7345,3.6716,3.6088,3.5519,3.5519,3.5519,3.5519,3.5519,3.5519,3.5519,3.5519,3.5519,3.5519,3.5519,3.5519,3.5519,3.5519,3.5519,3.5392,3.5004,3.4905,3.4927,3.485,3.5375,3.6001,3.6291,3.6535,3.6207,3.4705,3.3892,0.0,0.0,3.2542,3.2581,3.3064,3.2881,3.2475,3.1887,3.1824,3.1473,3.0636,3.0811,3.0634,2.9745,3.0797,3.1241,0.0,0.0,3.3053,0.0,0.0,0.0,3.5696,0.0,3.6514,3.6715,3.6877,3.6626,3.5998,3.5669,3.5519,3.5519,3.5878,3.6178,3.6537,3.7195,3.7823,3.8452,3.914,3.9373,3.9373,3.9373,3.9649,3.9978,4.424,4.4428,4.4638,4.4995,4.518,4.5244,4.5095,4.5095,4.4485,4.2803,4.2852,4.2882,4.2406,4.2792,4.297,4.265,4.247,4.244,4.259,4.262,4.2515,4.2304,4.2129,4.1281,3.9826,3.8581,3.7427,3.6401,3.5416,0.0,0.0,0.0,0.0,0.0,3.5448,3.6406,0.0,0.0,3.8863,3.9313,3.8661,3.8003,3.7345,3.6716,3.6088,3.5519,3.5519,3.5519,3.5519,3.5519,3.5519,3.5519,3.5519,3.5519,3.5519,3.5519,3.5519,3.5519,3.5519,3.5519,3.5519,3.5519,3.5519,3.5519,3.5519,3.5908,3.6267,3.6267,3.6251,3.5827,3.4547,3.4426,0.0,0.0,0.0,3.304,3.3863,3.3535,3.3169,3.2908,3.2489,3.2084,3.1823,3.1444,3.0686,2.9562,3.0619,3.1061,3.054,0.0,0.0,0.0,0.0,3.4815,3.5546,0.0,3.7006,3.7186,3.7321,3.7075,3.6477,3.5938,3.5699,3.5759,3.6417,3.6746,3.6985,3.8123,3.8601,3.8661,3.92,3.9373,3.9439,3.9589,3.9948,4.0427,4.5389,4.5789,4.592,4.5352,4.5304,4.5095,4.4496,4.4407,4.4347,4.4127,4.3618,4.326,4.32,4.2761,4.2671,4.314,4.2701,4.265,4.317,4.32,4.319,4.317,4.2415,4.1893,4.1728,4.0264,3.881,3.7362,3.6988,3.5818,0.0,0.0,0.0,0.0,0.0,0.0,0.0,3.8493,3.8863,3.9313,3.8661,3.8003,3.7345,3.6716,3.6088,3.5519,3.5519,3.5519,3.5519,3.5519,3.5519,3.5519,3.5519,3.5519,3.5519,3.5519,3.5519,3.5519,3.5519,3.5519,3.5519,3.5519,3.5519,3.5519,3.5519,3.5549,3.5579,3.5579,3.5928,3.6186,3.6079,3.5805,3.556,0.0,0.0,3.5041,3.5129,3.5077,3.4659,3.3639,3.3456,3.3012,3.1902,3.1745,3.1249,3.01,3.0819,3.1209,0.0,0.0,0.0,3.2184,3.3859,3.4901,3.5143,3.6303,3.7006,3.7186,3.7321,3.7075,3.6477,3.6417,3.6387,3.6417,3.7045,3.7674,3.8272,3.902,3.932,3.932,3.9409,3.9373,3.9463,4.0098,4.0337,4.0576,4.6371,4.6334,4.6232,4.5963,4.5574,4.5065,4.4407,4.4317,4.4167,4.3738,4.3469,4.314,4.2791,4.288,4.2731,4.2222,4.2321,4.25,4.2731,4.2761,4.291,4.326,4.297,4.2537,4.2005,4.1052,3.9779,3.8256,3.8198,3.756,0.0,0.0,0.0,0.0,0.0,3.7833,3.8501,3.89,3.9192,3.9313,3.8661,3.8003,3.7345,3.6716,3.6088,3.5519,3.5519,3.5519,3.5519,3.5519,3.5519,3.5519,3.5519,3.5519,3.5519,3.5519,3.5519,3.5519,3.5519,3.5519,3.5519,3.5519,3.5519,3.5519,3.5519,3.5519,3.5519,3.5519,3.6272,3.6787,3.6328,3.6581,3.6803,3.6743,0.0,0.0,3.5712,3.5182,3.4476,3.3692,3.3273,3.2855,3.2411,3.2006,3.1745,3.1679,3.1739,3.1446,0.0,0.0,0.0,3.2671,0.0,3.5089,3.6181,3.6637,3.7434,3.8523,3.8162,3.7853,3.7614,3.7225,3.7255,3.7644,3.7364,3.7687,3.8267,3.7991,3.8211,3.8686,3.8686,3.8973,3.9499,4.0157,4.0636,4.1115,4.6483,4.6373,4.6262,4.6052,4.5454,4.4855,4.4377,4.4137,4.3828,4.3349,4.314,4.294,4.2671,4.288,4.2671,4.1782,4.2141,4.241,4.241,4.259,4.2851,4.326,4.329,4.301,4.2415,4.1946,4.0913,3.9155,3.9304,0.0,0.0,0.0,0.0,0.0,3.804,3.8384,3.8789,3.9228,3.9373,3.9313,3.8452,3.7823,3.7315,3.6507,3.5908,3.5519,3.5519,3.5519,3.5519,3.5519,3.5519,3.5519,3.5519,3.5519,3.5519,3.5519,3.5519,3.5519,3.5519,3.5519,3.5519,3.5519,3.5519,3.5519,3.5519,3.5519,3.5519,3.5519,3.6387,3.7024,3.6617,3.7067,3.7581,3.7838,0.0,0.0,0.0,3.5679,3.4786,3.4126,3.3436,3.2961,3.2817,3.2411,3.2215,3.2411,3.2502,3.2107,0.0,0.0,0.0,0.0,0.0,0.0,3.637,3.6732,3.7615,3.9017,3.8615,3.8392,3.8362,3.7913,3.8063,3.8656,3.8089,3.7989,3.8165,3.7539,3.7501,3.7834,3.7834,3.8323,3.9135,4.0003,4.0777,4.1542,4.5412,4.5873,4.6112,4.5424,4.4766,4.4317,4.4317,4.3738,4.329,4.329,4.2761,4.2611,4.32,4.2761,4.241,4.2381,4.241,4.241,4.241,4.297,4.329,4.329,4.329,4.329,4.329,4.329,4.2209,4.0099,4.0324,0.0,3.7242,0.0,3.8493,3.853,3.9119,3.9373,3.9373,3.9373,3.9373,3.9254,3.7973,3.7434,3.7255,3.5998,3.5519,3.5519,3.5519,3.5519,3.5519,3.5519,3.5519,3.5519,3.5519,3.5519,3.5519,3.5519,3.5519,3.5519,3.5519,3.5519,3.5519,3.5519,3.5519,3.5519,3.5519,3.5519,3.5519,3.5519,3.6028,3.6686,3.7251,3.7281,3.7585,3.8784,0.0,0.0,0.0,3.7043,3.613,3.5198,3.4379,3.3647,3.3041,3.2988,3.2672,3.185,3.2908,0.0,0.0,0.0,0.0,3.3014,3.419,0.0,3.51,3.6303,3.7337,3.824,3.8335,3.8392,3.8392,3.8392,3.8751,3.9373,3.9373,3.8907,3.8202,3.8202,3.7653,3.6933,3.6933,3.7462,3.8385,3.9634,4.0645,4.1564,4.592,4.5813,4.5544,4.5334,4.4766,4.4167,4.3678,4.3439,4.329,4.329,4.315,4.312,4.326,4.2342,4.1722,4.1722,4.2141,4.241,4.241,4.259,4.2462,4.2013,4.2013,4.2013,4.2013,4.2432,4.2136,4.1012,0.0,0.0,0.0,3.9869,3.9535,3.9119,3.9301,3.9373,3.9373,3.9373,3.914,3.8631,3.7764,3.7165,3.6686,3.5818,3.5519,3.5519,3.5519,3.5519,3.5519,3.5519,3.5519,3.5519,3.5519,3.5519,3.5519,3.5519,3.5519,3.5519,3.5519,3.5519,3.5519,3.5519,3.5519,3.5519,3.5519,3.5519,3.5519,3.5519,3.6028,3.6537,3.6746,3.7436,3.806,3.8281,3.816,0.0,3.7833,0.0,3.6543,3.5878,3.5565,3.5328,3.5134,3.4566,3.42,3.405,3.3914,0.0,0.0,0.0,0.0,0.0,3.5605,0.0,3.7206,3.7596,3.7938,3.8202,3.8809,3.908,3.908,3.908,3.8911,3.8538,3.7956,3.7271,3.6452,3.5856,3.5776,3.6123,3.6495,3.7143,3.8143,3.9996,4.0887,4.1351,4.5544,4.5633,4.5454,4.4676,4.4436,4.4077,4.3379,4.329,4.329,4.329,4.312,4.297,4.297,4.2013,4.1422,4.1422,4.1782,4.1931,4.1692,4.1901,4.1841,4.1422,4.1422,4.1422,4.1422,4.1811,0.0,4.0995,4.1594,4.1324,4.0247,4.0098,3.9679,3.905,3.932,3.926,3.902,3.902,3.8631,3.7973,3.7315,3.6836,3.6417,3.5759,3.5519,3.5519,3.5519,3.5519,3.5519,3.5519,3.5519,3.5519,3.5519,3.5519,3.5519,3.5519,3.5519,3.5519,3.5519,3.5519,3.5519,3.5519,3.5519,3.5519,3.5519,3.5519,3.5519,3.5519,3.5818,3.6178,3.6447,3.7315,3.8037,3.815,3.8436,3.861,3.8429,0.0,3.7196,3.6719,3.64,3.6212,0.0,3.5718,3.5532,0.0,3.5311,0.0,0.0,0.0,0.0,3.5753,3.6504,3.7165,3.772,3.7691,3.7691,3.772,3.8248,3.8472,3.8472,3.8797,3.8501,3.7691,3.7501,3.6766,3.5655,3.5114,3.5032,3.529,3.5838,3.6578,3.7547,3.9378,4.0449,4.1175,4.4436,4.5274,4.5502,4.3678,4.3828,4.4007,4.3379,4.329,4.329,4.329,4.2791,4.247,4.247,4.1871,4.1444,4.1444,0.0,0.0,4.0516,4.0995,4.1294,4.1235,4.1235,4.1235,4.1235,4.1294,4.1025,4.0457,3.9798,3.917,3.8542,3.914,3.908,3.8482,3.908,3.899,3.8392,3.8332,3.7943,3.7285,3.6716,3.6447,3.6357,3.5789,3.5549,3.5519,3.5609,3.5609,3.5579,3.5579,3.5579,3.5579,3.5519,3.5519,3.5519,3.5549,3.5549,3.5519,3.5609,3.5579,3.5519,3.5579,3.5549,3.5519,3.5579,3.5549,3.5519,3.5579,3.5549,3.5699,3.6297,3.6956,3.7614,3.8212,3.8901,3.9313,3.9313,3.8701,3.806,3.7703,0.0,0.0,3.6607,3.6532,3.6647,0.0,0.0,0.0,0.0,0.0,3.5814,3.6944,3.7049,3.7088,3.7088,3.7088,3.7088,3.7088,3.6972,3.6972,3.7088,3.7938,3.7891,3.7106,3.7853,3.7278,3.5777,3.5642,3.5141,3.4528,3.5129,3.5849,3.6697,3.7989,3.9466,4.0989,4.4257,4.4127,4.4007,4.4077,4.3768,4.3469,4.3319,4.329,4.329,4.329,4.317,4.312,4.312,4.2521,4.2171,4.2171,4.1722,4.1324,4.1145,4.0816,4.0397,3.9918,3.9888,3.9888,3.9888,4.0367,4.0816,4.1145,4.0487,4.0098,3.9918,3.9589,3.932,3.917,3.8781,3.8542,3.8362,3.7853,3.7285,3.6686,3.6537,3.6178,3.5789,3.6118,3.5938,3.5639,3.6596,3.6656,3.6237,3.6237,3.6237,3.6178,3.5669,3.5519,3.5609,3.6118,3.5908,3.5729,3.6686,3.6237,3.5639,3.6118,3.5878,3.5639,3.6148,3.5878,3.5639,3.6148,3.5848,3.5549,3.5699,3.6656,3.7464,3.7614,3.8212,3.8631,3.8631,3.8489,3.8323,0.0,3.8483,3.87,3.87,3.8119,3.7676,0.0,0.0,3.6787,3.7382,3.7163,3.7284,3.7881,3.8472,3.8833,3.8833,3.8833,3.8833,3.8797,3.751,3.7548,3.8833,3.955,3.9421,3.8563,3.8136,3.7414,3.6375,3.5178,3.4868,3.5129,3.5704,3.6306,3.7043,3.8485,3.9256,3.9735,4.4317,4.4257,4.4167,4.3858,4.3798,4.3648,4.3349,4.329,4.329,4.329,4.329,4.329,4.329,4.303,4.2791,4.2791,4.1654,4.0935,4.0935,4.0307,3.9798,3.9439,3.9373,3.9373,3.9373,3.9768,4.0127,4.0487,4.0127,3.9798,3.9469,3.9439,3.9044,3.8482,3.8422,3.8063,3.7494,3.7135,3.6626,3.6028,3.6028,3.5818,3.5549,3.5908,3.5998,3.6058,3.6746,3.6956,3.6896,3.6896,3.6896,3.6806,3.6148,3.5968,3.6028,3.6387,3.6237,3.6178,3.7135,3.6896,3.6477,3.6806,3.6656,3.6477,3.6836,3.6626,3.6477,3.6836,3.6626,3.6297,3.5998,3.6985,3.7674,3.7075,3.7764,3.8272,3.7973,3.8212,3.8392,3.8392,3.899,3.9373,3.9373,3.901,3.8649,3.844,3.8011,0.0,3.8375,3.8411,3.8516,3.8723,3.9156,3.9373,3.9373,3.9046,3.8649,3.8256,3.7319,3.7567,3.8751,3.948,3.9507,3.8989,3.8512,3.7727,3.6646,3.5632,3.5234,3.5391,3.6201,3.6724,3.7108,3.8201,3.8881,3.9299,4.4287,4.4616,4.4646,4.3499,4.3768,4.3947,4.3379,4.329,4.329,4.329,4.329,4.329,4.329,4.329,4.329,4.329,4.1624,4.0546,4.0546,3.9828,3.9373,3.9373,3.9373,3.9373,3.9373,3.9373,3.9373,3.9373,3.9373,3.911,3.8571,3.914,3.8811,3.7734,3.8182,3.7734,3.6626,3.6537,3.6178,3.5639,3.5549,3.5579,3.5639,3.5639,3.5998,3.6507,3.6716,3.7105,3.7554,3.7554,3.7494,3.7315,3.6686,3.6417,3.6357,3.6447,3.6477,3.6626,3.7375,3.7554,3.7524,3.7434,3.7345,3.7315,3.7524,3.7404,3.7285,3.7375,3.7404,3.7225,3.6596,3.7434,3.7913,3.6926,3.7524,3.7973,3.7614,0.0,3.8272,3.8392,3.899,3.9373,3.9373,3.9373,3.9373,3.9373,3.9373,3.9373,3.9373,3.9373,3.9373,3.9373,3.9373,3.9373,3.9373,3.87,3.8054,3.7423,3.7307,3.7512,3.8128,3.9035,3.9304,3.9102,3.9147,3.8404,3.7084,3.6518,3.6018,3.5652,3.6619,3.7063,3.7194,3.7717,3.8349,3.8988,4.3469,4.3529,4.3529,4.3319,4.3379,4.3409,4.3319,4.329,4.329,4.329,4.329,4.329,4.329,4.329,4.329,4.329,4.2043,4.1235,4.1235,4.0098,3.9373,3.9373,3.9373,3.9373,3.9373,3.9373,3.9373,3.9373,3.9373,3.9379,3.926,3.9343,3.9284,3.9044,3.8601,3.7973,3.7225,3.6716,3.6417,3.6297,3.5729,3.5848,3.6327,3.6327,3.6387,3.6626,3.7704,3.8153,3.8242,3.8242,3.7853,3.7315,3.6686,3.6118,3.5759,3.6327,3.6477,3.6746,3.7913,3.8242,3.8093,3.7554,3.7015,3.6896,3.8003,3.7404,3.6776,3.7315,3.7404,3.7225,3.6596,3.7075,3.7674,3.8033,3.7345,3.7135,3.8093,0.0,3.7764,3.8332,3.899,3.9373,3.9373,3.9373,3.9373,3.9373,3.9373,3.9373,3.9373,3.9373,3.9373,3.9373,3.9373,3.9373,3.9373,3.914,3.9291,3.9847,3.911,3.8794,3.8948,4.0406,4.0625,3.9942,4.0492,4.0179,3.9117,3.7821,3.7074,3.675,3.6933,3.7325,3.7769,3.7874,3.7992,3.8103,4.3349,4.329,4.329,4.329,4.329,4.329,4.329,4.329,4.329,4.329,4.329,4.329,4.329,4.329,4.329,4.329,4.2132,4.1422,4.1422,4.0157,3.9373,3.9373,3.9373,3.9373,3.9373,3.9373,3.9373,3.9373,3.9373,3.9373,3.9373,3.9373,3.923,3.8841,3.8542,3.8033,3.7375,3.6746,3.6686,3.6896,3.5908,3.6088,3.6896,3.6207,3.6596,3.7554,3.7793,3.8332,3.8901,3.8512,3.8422,3.8242,3.6896,3.6507,3.6447,3.6058,3.6447,3.7105,3.7704,3.8123,3.8332,3.8003,3.7734,3.7674,3.8272,3.7943,3.7584,3.7883,3.8242,3.8302,3.7644,3.8063,3.8362,3.7943,3.7375,0.0,3.7793,3.7614,3.7644,3.8302,3.899,3.9373,3.9373,3.9373,3.9373,3.9373,3.9373,3.9373,3.9373,3.9373,3.9373,3.9373,3.9373,3.9373,3.9373,3.9313,3.9639,4.0397,3.9995,4.0199,4.0879,4.159,4.1879,4.1814,4.1638,4.1175,4.0339,3.8971,3.8179,3.7723,3.7577,3.7665,3.79,3.79,3.79,3.8044,4.3379,4.329,4.329,4.329,4.329,4.329,4.329,4.329,4.329,4.329,4.329,4.329,4.329,4.329,4.329,4.329,4.2132,4.1422,4.1422,4.0157,3.9373,3.9373,3.9373,3.9373,3.9373,3.9373,3.9373,3.9373,3.9373,3.9373,3.9373,3.9373,3.914,3.8631,3.8631,3.8272,3.7584,3.6956,3.7075,3.7524,3.6237,3.6507,3.7524,3.6387,3.6956,3.8332,3.7823,3.8392,3.9313,3.8811,3.8871,3.8931,3.7404,3.7135,3.7195,3.6058,3.6327,3.7015,3.7315,3.7883,3.8362,3.8212,3.8272,3.8392,3.8392,3.8392,3.8392,3.8392,3.8931,3.92,3.8512,3.8811,3.8901,3.8003,0.0,3.7524,3.7823,3.7734,3.7883,3.8542,3.911,3.9373,3.9373,3.9373,3.9373,3.9373,3.9373,3.9373,3.9373,3.9373,3.9373,3.9373,3.9373,3.9559,3.9858,3.9858,4.0217,4.0846,4.0846,4.1308,4.2108,4.2303,4.2533,4.2773,4.2438,4.1919,4.121,3.9994,3.9158,3.8526,3.8055,3.79,3.79,3.8148,3.8319,3.8641,4.329,4.329,4.329,4.329,4.329,4.329,4.329,4.329,4.329,4.329,4.329,4.329,4.329,4.329,4.329,4.329,4.2132,4.1422,4.1422,4.0157,3.9373,3.9373,3.9373,3.9373,3.9373,3.9373,3.9373,3.9373,3.9373,3.9373,3.9373,3.9373,3.9343,3.9349,3.9349,3.896,3.8272,3.7614,3.7734,3.8212,3.6926,3.7165,3.8242,3.7524,3.7734,3.8392,3.8332,3.8781,3.9373,3.9313,3.896,3.8452,3.8302,3.7853,3.7285,3.6596,3.6058,3.5908,3.7075,3.7883,3.8242,3.7644,3.7943,3.8392,3.8392,3.8392,3.8392,3.8392,3.8931,3.92,3.8512,3.8422,3.8631,3.92,0.0,0.0,3.9074,3.8721,3.8571,3.926,3.9379,3.9373,3.9373,3.9373,3.9373,3.9373,3.9373,3.9373,3.9373,3.9373,3.9373,3.9373,3.9373,4.0008,4.1235,4.1235,4.1602,4.2261,4.2261,4.1872,4.1219,4.203,4.1991,4.1346,4.2634,4.271,4.1877,4.0873,3.9972,3.9067,3.8213,3.79,3.7992,3.8792,3.95,4.0169,4.329,4.329,4.329,4.329,4.329,4.329,4.329,4.329,4.329,4.329,4.329,4.329,4.329,4.329,4.329,4.329,4.2521,4.1841,4.1452,4.0516,3.9858,3.9439,3.9373,3.9373,3.9373,3.9373,3.9373,3.9373,3.9373,3.9373,3.9373,3.9373,3.9373,3.9373,3.9373,3.926,3.899,3.8302,3.8422,3.8901,3.7584,3.7853,3.8901,3.7823,3.8093,3.896,3.8542,3.8841,3.9349,3.8931,3.8901,3.8811,3.7584,3.7883,3.8601,3.8362,3.8123,3.7998,3.8512,3.8242,3.7823,3.7973,3.8512,3.902,3.902,3.9349,3.9649,3.9649,4.0157,4.0427,3.9768,3.9649,3.9589,3.9439,0.0,3.8332,3.9254,3.8811,3.8631,3.9313,3.9373,3.9373,3.9373,3.9373,3.9373,3.9373,3.9373,3.9373,3.9373,3.9373,3.9798,4.0606,4.0247,4.0277,4.0756,4.1175,4.1752,4.241,4.241,4.2434,4.2475,4.2783,4.2783,4.2505,4.3051,4.313,4.2739,4.1852,4.1239,4.0774,3.9282,3.906,3.9574,3.9734,4.0364,4.1279,4.329,4.329,4.329,4.329,4.329,4.329,4.329,4.329,4.329,4.329,4.329,4.329,4.329,4.329,4.329,4.329,4.2731,4.2201,4.1752,4.0876,4.0098,3.9439,3.9373,3.9373,3.9373,3.9373,3.9373,3.9373,3.9373,3.9373,3.9373,3.9373,3.9373,3.9373,3.9373,3.9373,3.9379,3.8691,3.8781,3.9284,3.8182,3.8392,3.932,3.8392,3.8601,3.9313,3.8871,3.902,3.9313,3.8871,3.917,3.9499,3.8153,3.8631,3.9768,3.9978,3.9738,3.9499,3.9918,3.92,3.8392,3.8661,3.9379,3.9978,3.9768,4.0247,4.0696,4.0696,4.1055,4.1235,4.0786,4.0696,4.0487,3.9828,3.932,3.911,3.9343,3.902,3.8901,3.9379,3.9373,3.9373,3.9373,3.9373,3.9373,3.9373,3.9619,3.9828,4.0038,3.9828,4.0247,4.1354,4.1145,4.1025,4.1025,4.1474,4.2051,4.2671,4.2671,4.291,4.329,4.329,4.329,4.329,4.329,4.329,4.325,4.2374,4.2005,4.1852,4.026,4.0043,4.0617,4.0956,4.1599,4.2524,4.329,4.329,4.329,4.329,4.329,4.329,4.329,4.329,4.329,4.329,4.329,4.329,4.329,4.329,4.329,4.329,4.2731,4.241,4.2381,4.1115,4.0098,3.9439,3.9373,3.9373,3.9373,3.9373,3.9373,3.9373,3.9373,3.9373,3.9373,3.9373,3.9373,3.9373,3.9373,3.9373,3.9379,3.8691,3.8781,3.9313,3.8691,3.8811,3.9403,3.9403,3.9403,3.9439,3.9439,3.9439,3.9439,3.9439,3.9858,4.0397,4.0397,4.0397,4.0546,4.1205,4.0457,3.9738,4.1025,4.0905,4.0277,3.9553,4.0427,4.1205,4.0576,4.0935,4.1384,4.1384,4.1384,4.1384,4.1384,4.1384,4.1175,4.0516,4.0397,4.0187,3.9493,3.9403,3.9403,3.9403,3.9373,3.9373,3.9403,3.9403,3.9403,3.9439,4.0038,4.0696,4.1354,4.0756,4.0696,4.1422,4.2051,4.241,4.241,4.241,4.2701,4.329,4.329,4.329,4.329,4.329,4.329,4.329,4.329,4.329,4.325,4.2374,4.2005,4.1893,4.0986,4.0646,4.0816,4.2407,4.3425,4.4048,4.329,4.329,4.329,4.329,4.329,4.329,4.329,4.329,4.329,4.329,4.329,4.329,4.329,4.329,4.329,4.329,4.311,4.2641,4.1782,4.0876,4.0098,3.9439,3.9373,3.9373,3.9373,3.9373,3.9373,3.9373,3.9373,3.9373,3.9373,3.9373,3.9373,3.9373,3.9373,3.9373,3.9373,3.92,3.923,3.9409,3.92,3.9499,4.0098,4.0098,4.0397,4.0786,4.0786,4.0786,4.0786,4.0786,4.0935,4.1175,4.1662,4.1482,4.1294,4.2432,4.2423,4.2213,4.2602,4.2572,4.2192,4.1085,4.1482,4.2051,4.1871,4.2282,4.2761,4.2761,4.2761,4.2611,4.2201,4.2111,4.1901,4.1205,4.1085,4.1025,4.0816,4.0397,4.0098,4.0098,3.9709,3.9553,4.0068,4.0098,4.0307,4.0756,4.0965,4.1175,4.1422,4.1205,4.1384,4.2081,4.2291,4.262,4.303,4.303,4.315,4.329,4.329,4.329,4.329,4.329,4.329,4.329,4.329,4.329,4.329,4.305,4.29,4.282,4.1935,4.1976,4.2614,4.3335,4.3851,4.4335,4.329,4.329,4.329,4.329,4.329,4.329,4.329,4.329,4.329,4.329,4.329,4.329,4.329,4.329,4.329,4.329,4.329,4.288,4.1871,4.1422,4.0876,4.0217,4.0187,3.9948,3.9403,3.9373,3.9373,3.9373,3.9373,3.9373,3.9373,3.9373,3.9373,3.9373,3.9373,3.9373,3.9373,3.9373,3.9373,3.9403,3.9709,3.9888,4.0038,4.0307,4.0487,4.0606,4.0606,4.0606,4.0636,4.0905,4.1354,4.1871,4.2261,4.2321,4.2252,4.2791,4.294,4.3,4.323,4.315,4.2761,4.2021,4.2252,4.2761,4.2761,4.306,4.329,4.329,4.329,4.317,4.2821,4.2761,4.2521,4.1901,4.1811,4.1722,4.1452,4.1025,4.0696,4.0427,4.0277,4.0247,4.0397,4.0636,4.1055,4.1752,4.1572,4.1594,4.2132,4.1923,4.2111,4.2731,4.2761,4.294,4.329,4.329,4.329,4.329,4.329,4.329,4.329,4.329,4.329,4.329,4.329,4.329,4.329,4.329,4.329,4.325,4.2699,4.282,4.3369,4.3891,4.4164,4.4466,4.329,4.329,4.329,4.329,4.329,4.329,4.329,4.329,4.329,4.329,4.329,4.329,4.329,4.329,4.329,4.329,4.329,4.306,4.244,4.241,4.2111,4.1452,4.1422,4.0816,3.9619,3.9589,3.9493,3.9373,3.9433,3.9433,3.9373,3.9373,3.9373,3.9373,3.9373,3.9373,3.9373,3.9373,3.9373,3.9433,4.0068,3.9978,3.9559,4.0157,4.0068,3.9589,3.9589,3.9589,3.9679,4.0277,4.1324,4.241,4.241,4.2791,4.317,4.2611,4.25,4.262,4.314,4.291,4.25,4.25,4.288,4.329,4.323,4.326,4.329,4.329,4.329,4.329,4.329,4.329,4.315,4.259,4.25,4.2291,4.1654,4.1504,4.1235,4.0636,4.1055,4.1175,4.0636,4.1175,4.1841,4.244,4.1893,4.2073,4.323,4.2761,4.2731,4.326,4.329,4.329,4.329,4.329,4.329,4.329,4.329,4.329,4.329,4.329,4.329,4.329,4.329,4.329,4.329,4.329,4.329,4.329,4.329,4.329,4.3379,4.4077,4.4317,4.4407,4.329,4.329,4.329,4.329,4.329,4.329,4.329,4.329,4.329,4.329,4.329,4.329,4.329,4.329,4.329,4.329,4.329,4.306,4.244,4.241,4.2111,4.1452,4.1422,4.1235,4.0965,4.0965,4.0457,3.9373,3.9948,3.9918,3.9373,3.9373,3.9373,3.9373,3.9373,3.9373,3.9373,3.9373,3.9373,3.9403,3.9589,3.9858,4.0217,4.0337,4.0636,4.0965,4.0965,4.0965,4.0965,4.1115,4.1752,4.241,4.241,4.2791,4.326,4.311,4.312,4.315,4.326,4.32,4.312,4.312,4.32,4.317,4.2671,4.297,4.329,4.329,4.329,4.329,4.329,4.329,4.326,4.315,4.312,4.306,4.2901,4.2462,4.2141,4.1991,4.1632,4.1572,4.1931,4.2521,4.2931,4.308,4.2961,4.2991,4.329,4.317,4.314,4.329,4.329,4.329,4.329,4.329,4.329,4.329,4.329,4.329,4.329,4.329,4.329,4.329,4.329,4.329,4.329,4.329,4.329,4.329,4.329,4.329,4.3379,4.4077,4.4317,4.4496,4.329,4.329,4.329,4.329,4.329,4.3409,4.3708,4.3499,4.3409,4.3738,4.3148,4.282,4.325,4.293,4.282,4.325,4.329,4.314,4.2851,4.2821,4.2671,4.2312,4.2312,4.2162,4.1901,4.2162,4.1683,4.0337,4.0397,4.0397,4.0337,4.0038,3.9888,3.9888,3.9888,3.9709,3.9373,3.9373,3.9373,3.9439,3.9768,3.9918,3.9978,4.0277,4.0427,4.0457,4.0457,4.0636,4.0905,4.0905,4.1392,4.1931,4.1931,4.2342,4.288,4.288,4.288,4.294,4.32,4.312,4.288,4.288,4.312,4.32,4.291,4.309,4.329,4.329,4.329,4.329,4.329,4.329,4.329,4.329,4.329,4.329,4.329,4.303,4.2701,4.244,4.2342,4.2432,4.2791,4.312,4.329,4.329,4.329,4.329,4.329,4.329,4.329,4.329,4.329,4.329,4.329,4.329,4.329,4.329,4.329,4.329,4.329,4.329,4.329,4.329,4.329,4.329,4.329,4.329,4.329,4.329,4.329,4.329,4.3319,4.3678,4.4257,4.4915,4.329,4.329,4.329,4.329,4.329,4.3459,4.3953,4.3556,4.3367,4.3779,4.2843,4.2368,4.301,4.2578,4.2496,4.325,4.329,4.329,4.329,4.329,4.329,4.329,4.329,4.309,4.256,4.306,4.2701,4.1422,4.0935,4.0965,4.1422,4.0816,4.0576,4.0576,4.0576,4.0277,3.9738,3.9649,3.9553,3.9619,4.0068,3.9918,3.9433,4.0038,3.9888,3.9373,3.9373,3.9828,4.0397,4.0397,4.0905,4.1602,4.1602,4.2021,4.256,4.256,4.256,4.2641,4.314,4.294,4.256,4.256,4.294,4.329,4.329,4.329,4.329,4.329,4.329,4.329,4.329,4.329,4.329,4.329,4.329,4.329,4.329,4.329,4.312,4.262,4.3,4.329,4.329,4.329,4.329,4.329,4.329,4.329,4.329,4.329,4.329,4.329,4.329,4.3349,4.3469,4.3349,4.3349,4.3469,4.3349,4.329,4.329,4.329,4.329,4.329,4.329,4.329,4.329,4.329,4.329,4.329,4.329,4.3349,4.3499,4.3708,4.4526,4.5574,4.329,4.329,4.329,4.329,4.329,4.3218,4.3057,4.296,4.2607,4.1994,4.2352,4.2557,4.2199,4.2739,4.317,4.329,4.329,4.329,4.329,4.329,4.329,4.329,4.329,4.326,4.317,4.326,4.2701,4.1422,4.1901,4.1901,4.1422,4.1294,4.1235,4.1235,4.1235,4.1205,4.1085,4.0516,4.0277,4.0217,3.9738,3.9499,3.9403,3.9529,3.9499,3.9373,3.9373,3.9828,4.0397,4.0397,4.1205,4.2261,4.2261,4.2671,4.317,4.317,4.317,4.32,4.326,4.323,4.317,4.317,4.323,4.329,4.329,4.329,4.329,4.329,4.329,4.329,4.329,4.329,4.329,4.329,4.329,4.329,4.329,4.329,4.326,4.317,4.323,4.329,4.329,4.329,4.329,4.329,4.329,4.329,4.329,4.329,4.329,4.329,4.329,4.3559,4.4167,4.3589,4.3589,4.4167,4.3559,4.329,4.329,4.329,4.329,4.329,4.329,4.329,4.329,4.329,4.329,4.329,4.329,4.3648,4.4317,4.5442,4.598,4.6249,4.329,4.329,4.3409,4.3768,4.3393,4.3224,4.3834,4.3098,4.2389,4.2109,4.1623,4.1278,4.1241,4.2017,4.2578,4.2578,4.305,4.329,4.329,4.329,4.329,4.329,4.329,4.329,4.329,4.329,4.3021,4.2462,4.244,4.244,4.2462,4.2141,4.1961,4.1961,4.1961,4.1542,4.0816,4.0516,4.0187,3.9828,3.9493,3.9373,3.9373,3.9373,3.9373,3.9373,3.9373,3.9828,4.0397,4.0397,4.1025,4.1931,4.2291,4.259,4.2851,4.32,4.329,4.329,4.329,4.329,4.329,4.329,4.329,4.329,4.329,4.329,4.329,4.329,4.329,4.329,4.329,4.329,4.329,4.329,4.329,4.329,4.329,4.329,4.329,4.329,4.329,4.329,4.329,4.329,4.329,4.329,4.329,4.329,4.329,4.329,4.329,4.329,4.329,4.3439,4.3738,4.3439,4.3439,4.3738,4.3439,4.329,4.329,4.329,4.329,4.329,4.329,4.329,4.329,4.329,4.329,4.329,4.329,4.3708,4.4466,4.5843,4.6279,4.6369]}]]